<?xml version="1.0" encoding="UTF-8" standalone="no" ?>
<gpx xmlns="http://www.topografix.com/GPX/1/1" creator="www.cicloide.com" version="1.1" xmlns:xsi="http://www.w3.org/2001/XMLSchema-instance" xsi:schemaLocation="http://www.topografix.com/GPX/1/1 http://www.topografix.com/GPX/1/1/gpx.xsd">
  <trk>
    <name>www.cicloide.com 12690</name>
    <desc>www.cicloide.com 12690</desc>
    <trkseg>
      <trkpt lat="41.606950400" lon="2.542220600">
        <ele>138.60</ele>
        <time>2013-03-23T16:24:47Z</time>
      </trkpt>
      <trkpt lat="41.606957200" lon="2.542205900">
        <ele>138.60</ele>
        <time>2013-03-23T16:24:52Z</time>
      </trkpt>
      <trkpt lat="41.606956700" lon="2.542203400">
        <ele>138.60</ele>
        <time>2013-03-23T16:24:54Z</time>
      </trkpt>
      <trkpt lat="41.606953800" lon="2.542201700">
        <ele>138.60</ele>
        <time>2013-03-23T16:24:56Z</time>
      </trkpt>
      <trkpt lat="41.606947000" lon="2.542203400">
        <ele>138.60</ele>
        <time>2013-03-23T16:24:58Z</time>
      </trkpt>
      <trkpt lat="41.606945100" lon="2.542203700">
        <ele>138.60</ele>
        <time>2013-03-23T16:24:59Z</time>
      </trkpt>
      <trkpt lat="41.606943700" lon="2.542204000">
        <ele>138.60</ele>
        <time>2013-03-23T16:24:59Z</time>
      </trkpt>
      <trkpt lat="41.606943600" lon="2.542203000">
        <ele>138.60</ele>
        <time>2013-03-23T16:25:01Z</time>
      </trkpt>
      <trkpt lat="41.606942700" lon="2.542201400">
        <ele>138.60</ele>
        <time>2013-03-23T16:25:03Z</time>
      </trkpt>
      <trkpt lat="41.606954200" lon="2.542196100">
        <ele>138.60</ele>
        <time>2013-03-23T16:25:06Z</time>
      </trkpt>
      <trkpt lat="41.606957300" lon="2.542193400">
        <ele>138.60</ele>
        <time>2013-03-23T16:25:06Z</time>
      </trkpt>
      <trkpt lat="41.606964200" lon="2.542188000">
        <ele>138.60</ele>
        <time>2013-03-23T16:25:10Z</time>
      </trkpt>
      <trkpt lat="41.606956200" lon="2.542190600">
        <ele>138.60</ele>
        <time>2013-03-23T16:25:13Z</time>
      </trkpt>
      <trkpt lat="41.606945800" lon="2.542191500">
        <ele>138.60</ele>
        <time>2013-03-23T16:25:15Z</time>
      </trkpt>
      <trkpt lat="41.606945500" lon="2.542178100">
        <ele>138.60</ele>
        <time>2013-03-23T16:25:20Z</time>
      </trkpt>
      <trkpt lat="41.606953000" lon="2.542175300">
        <ele>138.60</ele>
        <time>2013-03-23T16:25:24Z</time>
      </trkpt>
      <trkpt lat="41.606956900" lon="2.542178800">
        <ele>138.60</ele>
        <time>2013-03-23T16:25:29Z</time>
      </trkpt>
      <trkpt lat="41.606948100" lon="2.542175000">
        <ele>138.60</ele>
        <time>2013-03-23T16:25:34Z</time>
      </trkpt>
      <trkpt lat="41.606927700" lon="2.542159600">
        <ele>138.60</ele>
        <time>2013-03-23T16:25:41Z</time>
      </trkpt>
      <trkpt lat="41.606894000" lon="2.542135200">
        <ele>138.60</ele>
        <time>2013-03-23T16:25:52Z</time>
      </trkpt>
      <trkpt lat="41.606890100" lon="2.542134100">
        <ele>138.60</ele>
        <time>2013-03-23T16:25:53Z</time>
      </trkpt>
      <trkpt lat="41.606824600" lon="2.541952700">
        <ele>138.60</ele>
        <time>2013-03-23T16:25:59Z</time>
      </trkpt>
      <trkpt lat="41.606750900" lon="2.541633400">
        <ele>135.70</ele>
        <time>2013-03-23T16:26:04Z</time>
      </trkpt>
      <trkpt lat="41.606708300" lon="2.541472200">
        <ele>134.20</ele>
        <time>2013-03-23T16:26:07Z</time>
      </trkpt>
      <trkpt lat="41.606675900" lon="2.541360800">
        <ele>132.30</ele>
        <time>2013-03-23T16:26:09Z</time>
      </trkpt>
      <trkpt lat="41.606647000" lon="2.541244600">
        <ele>131.40</ele>
        <time>2013-03-23T16:26:11Z</time>
      </trkpt>
      <trkpt lat="41.606596200" lon="2.541068400">
        <ele>128.90</ele>
        <time>2013-03-23T16:26:16Z</time>
      </trkpt>
      <trkpt lat="41.606552600" lon="2.540870000">
        <ele>126.10</ele>
        <time>2013-03-23T16:26:21Z</time>
      </trkpt>
      <trkpt lat="41.606550200" lon="2.540822500">
        <ele>124.20</ele>
        <time>2013-03-23T16:26:25Z</time>
      </trkpt>
      <trkpt lat="41.606560100" lon="2.540829000">
        <ele>121.30</ele>
        <time>2013-03-23T16:26:35Z</time>
      </trkpt>
      <trkpt lat="41.606586000" lon="2.540838000">
        <ele>119.80</ele>
        <time>2013-03-23T16:26:42Z</time>
      </trkpt>
      <trkpt lat="41.606611400" lon="2.540859900">
        <ele>118.40</ele>
        <time>2013-03-23T16:26:58Z</time>
      </trkpt>
      <trkpt lat="41.606613200" lon="2.540856000">
        <ele>118.40</ele>
        <time>2013-03-23T16:27:05Z</time>
      </trkpt>
      <trkpt lat="41.606660300" lon="2.540819300">
        <ele>118.40</ele>
        <time>2013-03-23T16:27:10Z</time>
      </trkpt>
      <trkpt lat="41.606892300" lon="2.540908300">
        <ele>119.80</ele>
        <time>2013-03-23T16:27:19Z</time>
      </trkpt>
      <trkpt lat="41.607134600" lon="2.540984500">
        <ele>120.30</ele>
        <time>2013-03-23T16:27:29Z</time>
      </trkpt>
      <trkpt lat="41.607387600" lon="2.541024000">
        <ele>120.80</ele>
        <time>2013-03-23T16:27:38Z</time>
      </trkpt>
      <trkpt lat="41.607656100" lon="2.540982100">
        <ele>121.70</ele>
        <time>2013-03-23T16:27:48Z</time>
      </trkpt>
      <trkpt lat="41.607862000" lon="2.540943600">
        <ele>122.20</ele>
        <time>2013-03-23T16:27:55Z</time>
      </trkpt>
      <trkpt lat="41.608014100" lon="2.540840600">
        <ele>122.20</ele>
        <time>2013-03-23T16:28:00Z</time>
      </trkpt>
      <trkpt lat="41.608156400" lon="2.540751900">
        <ele>122.20</ele>
        <time>2013-03-23T16:28:06Z</time>
      </trkpt>
      <trkpt lat="41.608336300" lon="2.540723600">
        <ele>122.20</ele>
        <time>2013-03-23T16:28:13Z</time>
      </trkpt>
      <trkpt lat="41.608470300" lon="2.540655300">
        <ele>122.20</ele>
        <time>2013-03-23T16:28:18Z</time>
      </trkpt>
      <trkpt lat="41.608655300" lon="2.540598900">
        <ele>123.20</ele>
        <time>2013-03-23T16:28:25Z</time>
      </trkpt>
      <trkpt lat="41.608802400" lon="2.540483200">
        <ele>123.70</ele>
        <time>2013-03-23T16:28:32Z</time>
      </trkpt>
      <trkpt lat="41.608833200" lon="2.540461400">
        <ele>123.70</ele>
        <time>2013-03-23T16:28:34Z</time>
      </trkpt>
      <trkpt lat="41.609049800" lon="2.540252700">
        <ele>124.20</ele>
        <time>2013-03-23T16:28:42Z</time>
      </trkpt>
      <trkpt lat="41.609109500" lon="2.540087800">
        <ele>124.20</ele>
        <time>2013-03-23T16:28:46Z</time>
      </trkpt>
      <trkpt lat="41.609196500" lon="2.539933200">
        <ele>125.10</ele>
        <time>2013-03-23T16:28:51Z</time>
      </trkpt>
      <trkpt lat="41.609367100" lon="2.539814200">
        <ele>126.60</ele>
        <time>2013-03-23T16:28:58Z</time>
      </trkpt>
      <trkpt lat="41.609531700" lon="2.539724100">
        <ele>127.00</ele>
        <time>2013-03-23T16:29:07Z</time>
      </trkpt>
      <trkpt lat="41.609535500" lon="2.539710300">
        <ele>127.00</ele>
        <time>2013-03-23T16:29:12Z</time>
      </trkpt>
      <trkpt lat="41.609561100" lon="2.539708300">
        <ele>127.00</ele>
        <time>2013-03-23T16:29:47Z</time>
      </trkpt>
      <trkpt lat="41.609568900" lon="2.539691100">
        <ele>127.00</ele>
        <time>2013-03-23T16:30:01Z</time>
      </trkpt>
      <trkpt lat="41.609573200" lon="2.539693400">
        <ele>127.00</ele>
        <time>2013-03-23T16:30:09Z</time>
      </trkpt>
      <trkpt lat="41.609568000" lon="2.539688400">
        <ele>127.00</ele>
        <time>2013-03-23T16:30:27Z</time>
      </trkpt>
      <trkpt lat="41.609563800" lon="2.539692600">
        <ele>127.00</ele>
        <time>2013-03-23T16:30:46Z</time>
      </trkpt>
      <trkpt lat="41.609579200" lon="2.539668400">
        <ele>126.60</ele>
        <time>2013-03-23T16:31:12Z</time>
      </trkpt>
      <trkpt lat="41.609590700" lon="2.539691700">
        <ele>126.60</ele>
        <time>2013-03-23T16:31:26Z</time>
      </trkpt>
      <trkpt lat="41.609589600" lon="2.539670000">
        <ele>126.60</ele>
        <time>2013-03-23T16:31:42Z</time>
      </trkpt>
      <trkpt lat="41.609576100" lon="2.539701800">
        <ele>126.60</ele>
        <time>2013-03-23T16:31:59Z</time>
      </trkpt>
      <trkpt lat="41.609599800" lon="2.539683400">
        <ele>126.60</ele>
        <time>2013-03-23T16:32:10Z</time>
      </trkpt>
      <trkpt lat="41.609700000" lon="2.539588900">
        <ele>127.00</ele>
        <time>2013-03-23T16:32:17Z</time>
      </trkpt>
      <trkpt lat="41.609872500" lon="2.539486700">
        <ele>128.00</ele>
        <time>2013-03-23T16:32:24Z</time>
      </trkpt>
      <trkpt lat="41.610098500" lon="2.539360200">
        <ele>128.90</ele>
        <time>2013-03-23T16:32:32Z</time>
      </trkpt>
      <trkpt lat="41.610370700" lon="2.539165100">
        <ele>130.40</ele>
        <time>2013-03-23T16:32:41Z</time>
      </trkpt>
      <trkpt lat="41.610469900" lon="2.539099100">
        <ele>131.40</ele>
        <time>2013-03-23T16:32:46Z</time>
      </trkpt>
      <trkpt lat="41.610729600" lon="2.538948600">
        <ele>132.30</ele>
        <time>2013-03-23T16:32:55Z</time>
      </trkpt>
      <trkpt lat="41.610924400" lon="2.538830200">
        <ele>133.30</ele>
        <time>2013-03-23T16:33:04Z</time>
      </trkpt>
      <trkpt lat="41.611165600" lon="2.538750000">
        <ele>134.20</ele>
        <time>2013-03-23T16:33:12Z</time>
      </trkpt>
      <trkpt lat="41.611341400" lon="2.538728300">
        <ele>135.70</ele>
        <time>2013-03-23T16:33:19Z</time>
      </trkpt>
      <trkpt lat="41.611545600" lon="2.538719300">
        <ele>136.60</ele>
        <time>2013-03-23T16:33:26Z</time>
      </trkpt>
      <trkpt lat="41.611636000" lon="2.538712700">
        <ele>137.60</ele>
        <time>2013-03-23T16:33:30Z</time>
      </trkpt>
      <trkpt lat="41.611708100" lon="2.538878400">
        <ele>137.60</ele>
        <time>2013-03-23T16:33:33Z</time>
      </trkpt>
      <trkpt lat="41.611747700" lon="2.539035300">
        <ele>135.70</ele>
        <time>2013-03-23T16:33:37Z</time>
      </trkpt>
      <trkpt lat="41.611883200" lon="2.539043800">
        <ele>135.20</ele>
        <time>2013-03-23T16:33:42Z</time>
      </trkpt>
      <trkpt lat="41.612015200" lon="2.538834900">
        <ele>136.60</ele>
        <time>2013-03-23T16:33:49Z</time>
      </trkpt>
      <trkpt lat="41.612028800" lon="2.538806400">
        <ele>136.60</ele>
        <time>2013-03-23T16:33:51Z</time>
      </trkpt>
      <trkpt lat="41.612147600" lon="2.538603800">
        <ele>137.10</ele>
        <time>2013-03-23T16:33:59Z</time>
      </trkpt>
      <trkpt lat="41.612265700" lon="2.538364600">
        <ele>138.10</ele>
        <time>2013-03-23T16:34:06Z</time>
      </trkpt>
      <trkpt lat="41.612441300" lon="2.538094900">
        <ele>139.10</ele>
        <time>2013-03-23T16:34:15Z</time>
      </trkpt>
      <trkpt lat="41.612583600" lon="2.537907300">
        <ele>140.50</ele>
        <time>2013-03-23T16:34:22Z</time>
      </trkpt>
      <trkpt lat="41.612756800" lon="2.537696600">
        <ele>141.00</ele>
        <time>2013-03-23T16:34:31Z</time>
      </trkpt>
      <trkpt lat="41.612946400" lon="2.537495200">
        <ele>141.90</ele>
        <time>2013-03-23T16:34:38Z</time>
      </trkpt>
      <trkpt lat="41.613133800" lon="2.537281900">
        <ele>142.90</ele>
        <time>2013-03-23T16:34:46Z</time>
      </trkpt>
      <trkpt lat="41.613292500" lon="2.537088500">
        <ele>143.90</ele>
        <time>2013-03-23T16:34:53Z</time>
      </trkpt>
      <trkpt lat="41.613457500" lon="2.536860000">
        <ele>144.80</ele>
        <time>2013-03-23T16:35:02Z</time>
      </trkpt>
      <trkpt lat="41.613528600" lon="2.536626300">
        <ele>145.80</ele>
        <time>2013-03-23T16:35:09Z</time>
      </trkpt>
      <trkpt lat="41.613660500" lon="2.536325600">
        <ele>146.70</ele>
        <time>2013-03-23T16:35:18Z</time>
      </trkpt>
      <trkpt lat="41.613805500" lon="2.535961600">
        <ele>148.20</ele>
        <time>2013-03-23T16:35:28Z</time>
      </trkpt>
      <trkpt lat="41.613895600" lon="2.535727700">
        <ele>148.70</ele>
        <time>2013-03-23T16:35:35Z</time>
      </trkpt>
      <trkpt lat="41.613994300" lon="2.535446100">
        <ele>150.10</ele>
        <time>2013-03-23T16:35:42Z</time>
      </trkpt>
      <trkpt lat="41.614109400" lon="2.535136400">
        <ele>151.10</ele>
        <time>2013-03-23T16:35:51Z</time>
      </trkpt>
      <trkpt lat="41.614187000" lon="2.534917000">
        <ele>152.00</ele>
        <time>2013-03-23T16:35:58Z</time>
      </trkpt>
      <trkpt lat="41.614263500" lon="2.534657500">
        <ele>153.00</ele>
        <time>2013-03-23T16:36:06Z</time>
      </trkpt>
      <trkpt lat="41.614350200" lon="2.534416900">
        <ele>154.40</ele>
        <time>2013-03-23T16:36:13Z</time>
      </trkpt>
      <trkpt lat="41.614448600" lon="2.534087000">
        <ele>155.40</ele>
        <time>2013-03-23T16:36:22Z</time>
      </trkpt>
      <trkpt lat="41.614586500" lon="2.533634600">
        <ele>157.30</ele>
        <time>2013-03-23T16:36:34Z</time>
      </trkpt>
      <trkpt lat="41.614704500" lon="2.533236600">
        <ele>158.30</ele>
        <time>2013-03-23T16:36:45Z</time>
      </trkpt>
      <trkpt lat="41.614829400" lon="2.532849300">
        <ele>158.80</ele>
        <time>2013-03-23T16:36:55Z</time>
      </trkpt>
      <trkpt lat="41.614916100" lon="2.532548100">
        <ele>159.70</ele>
        <time>2013-03-23T16:37:02Z</time>
      </trkpt>
      <trkpt lat="41.615027400" lon="2.532116900">
        <ele>161.20</ele>
        <time>2013-03-23T16:37:13Z</time>
      </trkpt>
      <trkpt lat="41.615062500" lon="2.531704600">
        <ele>162.10</ele>
        <time>2013-03-23T16:37:23Z</time>
      </trkpt>
      <trkpt lat="41.615074100" lon="2.531326800">
        <ele>163.60</ele>
        <time>2013-03-23T16:37:32Z</time>
      </trkpt>
      <trkpt lat="41.615095100" lon="2.530943500">
        <ele>164.00</ele>
        <time>2013-03-23T16:37:42Z</time>
      </trkpt>
      <trkpt lat="41.615123100" lon="2.530572000">
        <ele>165.50</ele>
        <time>2013-03-23T16:37:51Z</time>
      </trkpt>
      <trkpt lat="41.615129800" lon="2.530161000">
        <ele>166.90</ele>
        <time>2013-03-23T16:38:00Z</time>
      </trkpt>
      <trkpt lat="41.615131000" lon="2.529883200">
        <ele>167.40</ele>
        <time>2013-03-23T16:38:07Z</time>
      </trkpt>
      <trkpt lat="41.615139100" lon="2.529481900">
        <ele>168.40</ele>
        <time>2013-03-23T16:38:17Z</time>
      </trkpt>
      <trkpt lat="41.615166600" lon="2.529129200">
        <ele>170.30</ele>
        <time>2013-03-23T16:38:26Z</time>
      </trkpt>
      <trkpt lat="41.615220900" lon="2.528798600">
        <ele>170.80</ele>
        <time>2013-03-23T16:38:35Z</time>
      </trkpt>
      <trkpt lat="41.615306900" lon="2.528390200">
        <ele>171.70</ele>
        <time>2013-03-23T16:38:45Z</time>
      </trkpt>
      <trkpt lat="41.615385400" lon="2.527988800">
        <ele>172.70</ele>
        <time>2013-03-23T16:38:54Z</time>
      </trkpt>
      <trkpt lat="41.615449000" lon="2.527637800">
        <ele>173.70</ele>
        <time>2013-03-23T16:39:04Z</time>
      </trkpt>
      <trkpt lat="41.615521300" lon="2.527264800">
        <ele>175.10</ele>
        <time>2013-03-23T16:39:13Z</time>
      </trkpt>
      <trkpt lat="41.615567400" lon="2.526933100">
        <ele>176.50</ele>
        <time>2013-03-23T16:39:23Z</time>
      </trkpt>
      <trkpt lat="41.615565400" lon="2.526621900">
        <ele>178.50</ele>
        <time>2013-03-23T16:39:30Z</time>
      </trkpt>
      <trkpt lat="41.615529200" lon="2.526309700">
        <ele>179.40</ele>
        <time>2013-03-23T16:39:39Z</time>
      </trkpt>
      <trkpt lat="41.615498400" lon="2.525923100">
        <ele>179.90</ele>
        <time>2013-03-23T16:39:48Z</time>
      </trkpt>
      <trkpt lat="41.615489400" lon="2.525527200">
        <ele>180.90</ele>
        <time>2013-03-23T16:39:58Z</time>
      </trkpt>
      <trkpt lat="41.615506400" lon="2.525175300">
        <ele>182.30</ele>
        <time>2013-03-23T16:40:05Z</time>
      </trkpt>
      <trkpt lat="41.615540100" lon="2.524760500">
        <ele>183.30</ele>
        <time>2013-03-23T16:40:16Z</time>
      </trkpt>
      <trkpt lat="41.615560700" lon="2.524383300">
        <ele>184.70</ele>
        <time>2013-03-23T16:40:24Z</time>
      </trkpt>
      <trkpt lat="41.615586400" lon="2.524099900">
        <ele>186.60</ele>
        <time>2013-03-23T16:40:33Z</time>
      </trkpt>
      <trkpt lat="41.615608400" lon="2.523842900">
        <ele>188.10</ele>
        <time>2013-03-23T16:40:40Z</time>
      </trkpt>
      <trkpt lat="41.615636800" lon="2.523569000">
        <ele>188.60</ele>
        <time>2013-03-23T16:40:47Z</time>
      </trkpt>
      <trkpt lat="41.615668100" lon="2.523223100">
        <ele>189.50</ele>
        <time>2013-03-23T16:40:56Z</time>
      </trkpt>
      <trkpt lat="41.615703000" lon="2.522928200">
        <ele>190.50</ele>
        <time>2013-03-23T16:41:03Z</time>
      </trkpt>
      <trkpt lat="41.615745600" lon="2.522628700">
        <ele>191.40</ele>
        <time>2013-03-23T16:41:11Z</time>
      </trkpt>
      <trkpt lat="41.615786000" lon="2.522318100">
        <ele>192.90</ele>
        <time>2013-03-23T16:41:18Z</time>
      </trkpt>
      <trkpt lat="41.615824500" lon="2.522029600">
        <ele>193.80</ele>
        <time>2013-03-23T16:41:27Z</time>
      </trkpt>
      <trkpt lat="41.615862200" lon="2.521691700">
        <ele>194.80</ele>
        <time>2013-03-23T16:41:36Z</time>
      </trkpt>
      <trkpt lat="41.615902100" lon="2.521398500">
        <ele>195.30</ele>
        <time>2013-03-23T16:41:43Z</time>
      </trkpt>
      <trkpt lat="41.615948900" lon="2.521076500">
        <ele>195.80</ele>
        <time>2013-03-23T16:41:50Z</time>
      </trkpt>
      <trkpt lat="41.616018000" lon="2.520802000">
        <ele>196.20</ele>
        <time>2013-03-23T16:41:58Z</time>
      </trkpt>
      <trkpt lat="41.616110500" lon="2.520505000">
        <ele>197.20</ele>
        <time>2013-03-23T16:42:05Z</time>
      </trkpt>
      <trkpt lat="41.616218200" lon="2.520202200">
        <ele>197.70</ele>
        <time>2013-03-23T16:42:14Z</time>
      </trkpt>
      <trkpt lat="41.616334700" lon="2.520021500">
        <ele>197.70</ele>
        <time>2013-03-23T16:42:21Z</time>
      </trkpt>
      <trkpt lat="41.616401000" lon="2.519957800">
        <ele>196.70</ele>
        <time>2013-03-23T16:42:23Z</time>
      </trkpt>
      <trkpt lat="41.616576800" lon="2.519831700">
        <ele>196.70</ele>
        <time>2013-03-23T16:42:28Z</time>
      </trkpt>
      <trkpt lat="41.616768800" lon="2.519745000">
        <ele>198.20</ele>
        <time>2013-03-23T16:42:35Z</time>
      </trkpt>
      <trkpt lat="41.616947300" lon="2.519692900">
        <ele>199.60</ele>
        <time>2013-03-23T16:42:42Z</time>
      </trkpt>
      <trkpt lat="41.617136000" lon="2.519672000">
        <ele>200.10</ele>
        <time>2013-03-23T16:42:49Z</time>
      </trkpt>
      <trkpt lat="41.617340700" lon="2.519642000">
        <ele>201.10</ele>
        <time>2013-03-23T16:42:58Z</time>
      </trkpt>
      <trkpt lat="41.617523200" lon="2.519614900">
        <ele>202.50</ele>
        <time>2013-03-23T16:43:05Z</time>
      </trkpt>
      <trkpt lat="41.617734200" lon="2.519611000">
        <ele>203.00</ele>
        <time>2013-03-23T16:43:13Z</time>
      </trkpt>
      <trkpt lat="41.617800100" lon="2.519611500">
        <ele>203.50</ele>
        <time>2013-03-23T16:43:17Z</time>
      </trkpt>
      <trkpt lat="41.617808700" lon="2.519591400">
        <ele>203.50</ele>
        <time>2013-03-23T16:43:20Z</time>
      </trkpt>
      <trkpt lat="41.617788500" lon="2.519594200">
        <ele>203.50</ele>
        <time>2013-03-23T16:43:27Z</time>
      </trkpt>
      <trkpt lat="41.617786800" lon="2.519620900">
        <ele>204.40</ele>
        <time>2013-03-23T16:43:34Z</time>
      </trkpt>
      <trkpt lat="41.617788100" lon="2.519643800">
        <ele>204.40</ele>
        <time>2013-03-23T16:43:43Z</time>
      </trkpt>
      <trkpt lat="41.617790100" lon="2.519653900">
        <ele>204.40</ele>
        <time>2013-03-23T16:43:46Z</time>
      </trkpt>
      <trkpt lat="41.617818900" lon="2.519717200">
        <ele>204.40</ele>
        <time>2013-03-23T16:43:50Z</time>
      </trkpt>
      <trkpt lat="41.617874000" lon="2.519818400">
        <ele>205.40</ele>
        <time>2013-03-23T16:43:55Z</time>
      </trkpt>
      <trkpt lat="41.617830900" lon="2.520020900">
        <ele>206.80</ele>
        <time>2013-03-23T16:44:06Z</time>
      </trkpt>
      <trkpt lat="41.617714200" lon="2.520123500">
        <ele>209.20</ele>
        <time>2013-03-23T16:44:14Z</time>
      </trkpt>
      <trkpt lat="41.617664700" lon="2.520281400">
        <ele>210.70</ele>
        <time>2013-03-23T16:44:21Z</time>
      </trkpt>
      <trkpt lat="41.617673000" lon="2.520491600">
        <ele>212.60</ele>
        <time>2013-03-23T16:44:30Z</time>
      </trkpt>
      <trkpt lat="41.617651000" lon="2.520719300">
        <ele>213.10</ele>
        <time>2013-03-23T16:44:40Z</time>
      </trkpt>
      <trkpt lat="41.617680600" lon="2.520903100">
        <ele>214.00</ele>
        <time>2013-03-23T16:44:47Z</time>
      </trkpt>
      <trkpt lat="41.617755000" lon="2.521148100">
        <ele>214.50</ele>
        <time>2013-03-23T16:44:56Z</time>
      </trkpt>
      <trkpt lat="41.617819000" lon="2.521393100">
        <ele>215.90</ele>
        <time>2013-03-23T16:45:06Z</time>
      </trkpt>
      <trkpt lat="41.617873700" lon="2.521585700">
        <ele>217.90</ele>
        <time>2013-03-23T16:45:15Z</time>
      </trkpt>
      <trkpt lat="41.617891900" lon="2.521619300">
        <ele>217.90</ele>
        <time>2013-03-23T16:45:17Z</time>
      </trkpt>
      <trkpt lat="41.617981800" lon="2.521586100">
        <ele>218.80</ele>
        <time>2013-03-23T16:45:24Z</time>
      </trkpt>
      <trkpt lat="41.618046000" lon="2.521419200">
        <ele>221.20</ele>
        <time>2013-03-23T16:45:33Z</time>
      </trkpt>
      <trkpt lat="41.618124000" lon="2.521264000">
        <ele>223.20</ele>
        <time>2013-03-23T16:45:41Z</time>
      </trkpt>
      <trkpt lat="41.618214800" lon="2.521090400">
        <ele>225.10</ele>
        <time>2013-03-23T16:45:52Z</time>
      </trkpt>
      <trkpt lat="41.618264300" lon="2.520917400">
        <ele>227.00</ele>
        <time>2013-03-23T16:46:00Z</time>
      </trkpt>
      <trkpt lat="41.618344100" lon="2.520683600">
        <ele>229.90</ele>
        <time>2013-03-23T16:46:13Z</time>
      </trkpt>
      <trkpt lat="41.618456700" lon="2.520597200">
        <ele>231.30</ele>
        <time>2013-03-23T16:46:21Z</time>
      </trkpt>
      <trkpt lat="41.618575300" lon="2.520572600">
        <ele>232.80</ele>
        <time>2013-03-23T16:46:30Z</time>
      </trkpt>
      <trkpt lat="41.618743000" lon="2.520549700">
        <ele>234.20</ele>
        <time>2013-03-23T16:46:39Z</time>
      </trkpt>
      <trkpt lat="41.618822700" lon="2.520512300">
        <ele>235.70</ele>
        <time>2013-03-23T16:46:46Z</time>
      </trkpt>
      <trkpt lat="41.618950800" lon="2.520435100">
        <ele>237.60</ele>
        <time>2013-03-23T16:46:54Z</time>
      </trkpt>
      <trkpt lat="41.619074700" lon="2.520372800">
        <ele>239.50</ele>
        <time>2013-03-23T16:47:03Z</time>
      </trkpt>
      <trkpt lat="41.619208100" lon="2.520320200">
        <ele>240.90</ele>
        <time>2013-03-23T16:47:12Z</time>
      </trkpt>
      <trkpt lat="41.619325600" lon="2.520313400">
        <ele>242.90</ele>
        <time>2013-03-23T16:47:21Z</time>
      </trkpt>
      <trkpt lat="41.619482800" lon="2.520367100">
        <ele>245.80</ele>
        <time>2013-03-23T16:47:31Z</time>
      </trkpt>
      <trkpt lat="41.619570000" lon="2.520344900">
        <ele>246.70</ele>
        <time>2013-03-23T16:47:40Z</time>
      </trkpt>
      <trkpt lat="41.619684500" lon="2.520317600">
        <ele>248.60</ele>
        <time>2013-03-23T16:47:48Z</time>
      </trkpt>
      <trkpt lat="41.619704000" lon="2.520305000">
        <ele>249.10</ele>
        <time>2013-03-23T16:47:50Z</time>
      </trkpt>
      <trkpt lat="41.619761000" lon="2.520276500">
        <ele>250.60</ele>
        <time>2013-03-23T16:47:55Z</time>
      </trkpt>
      <trkpt lat="41.619820900" lon="2.520257500">
        <ele>251.50</ele>
        <time>2013-03-23T16:47:59Z</time>
      </trkpt>
      <trkpt lat="41.619962900" lon="2.520187100">
        <ele>253.00</ele>
        <time>2013-03-23T16:48:09Z</time>
      </trkpt>
      <trkpt lat="41.620094800" lon="2.520120400">
        <ele>255.40</ele>
        <time>2013-03-23T16:48:18Z</time>
      </trkpt>
      <trkpt lat="41.620213000" lon="2.520111800">
        <ele>257.30</ele>
        <time>2013-03-23T16:48:29Z</time>
      </trkpt>
      <trkpt lat="41.620322100" lon="2.520134600">
        <ele>258.20</ele>
        <time>2013-03-23T16:48:37Z</time>
      </trkpt>
      <trkpt lat="41.620450600" lon="2.520158400">
        <ele>259.70</ele>
        <time>2013-03-23T16:48:46Z</time>
      </trkpt>
      <trkpt lat="41.620543500" lon="2.520167700">
        <ele>261.10</ele>
        <time>2013-03-23T16:48:55Z</time>
      </trkpt>
      <trkpt lat="41.620644400" lon="2.520179400">
        <ele>262.60</ele>
        <time>2013-03-23T16:49:02Z</time>
      </trkpt>
      <trkpt lat="41.620673100" lon="2.520175700">
        <ele>263.10</ele>
        <time>2013-03-23T16:49:05Z</time>
      </trkpt>
      <trkpt lat="41.620830800" lon="2.520205500">
        <ele>264.50</ele>
        <time>2013-03-23T16:49:14Z</time>
      </trkpt>
      <trkpt lat="41.620945200" lon="2.520230900">
        <ele>265.50</ele>
        <time>2013-03-23T16:49:23Z</time>
      </trkpt>
      <trkpt lat="41.621064300" lon="2.520259000">
        <ele>266.90</ele>
        <time>2013-03-23T16:49:31Z</time>
      </trkpt>
      <trkpt lat="41.621139400" lon="2.520272500">
        <ele>267.90</ele>
        <time>2013-03-23T16:49:36Z</time>
      </trkpt>
      <trkpt lat="41.621234500" lon="2.520272800">
        <ele>269.30</ele>
        <time>2013-03-23T16:49:43Z</time>
      </trkpt>
      <trkpt lat="41.621386800" lon="2.520292700">
        <ele>271.70</ele>
        <time>2013-03-23T16:49:54Z</time>
      </trkpt>
      <trkpt lat="41.621511200" lon="2.520345500">
        <ele>273.10</ele>
        <time>2013-03-23T16:50:04Z</time>
      </trkpt>
      <trkpt lat="41.621637000" lon="2.520384100">
        <ele>275.60</ele>
        <time>2013-03-23T16:50:13Z</time>
      </trkpt>
      <trkpt lat="41.621751400" lon="2.520409400">
        <ele>278.00</ele>
        <time>2013-03-23T16:50:22Z</time>
      </trkpt>
      <trkpt lat="41.621850800" lon="2.520430000">
        <ele>280.40</ele>
        <time>2013-03-23T16:50:29Z</time>
      </trkpt>
      <trkpt lat="41.621949800" lon="2.520439300">
        <ele>282.30</ele>
        <time>2013-03-23T16:50:37Z</time>
      </trkpt>
      <trkpt lat="41.621987700" lon="2.520432500">
        <ele>282.80</ele>
        <time>2013-03-23T16:50:41Z</time>
      </trkpt>
      <trkpt lat="41.622070100" lon="2.520416400">
        <ele>283.70</ele>
        <time>2013-03-23T16:50:46Z</time>
      </trkpt>
      <trkpt lat="41.622205700" lon="2.520354200">
        <ele>285.60</ele>
        <time>2013-03-23T16:50:57Z</time>
      </trkpt>
      <trkpt lat="41.622250200" lon="2.520350600">
        <ele>286.60</ele>
        <time>2013-03-23T16:51:00Z</time>
      </trkpt>
      <trkpt lat="41.622313100" lon="2.520332800">
        <ele>287.10</ele>
        <time>2013-03-23T16:51:04Z</time>
      </trkpt>
      <trkpt lat="41.622429500" lon="2.520372800">
        <ele>288.50</ele>
        <time>2013-03-23T16:51:12Z</time>
      </trkpt>
      <trkpt lat="41.622433800" lon="2.520433200">
        <ele>288.50</ele>
        <time>2013-03-23T16:51:16Z</time>
      </trkpt>
      <trkpt lat="41.622390800" lon="2.520473000">
        <ele>289.50</ele>
        <time>2013-03-23T16:51:21Z</time>
      </trkpt>
      <trkpt lat="41.622309900" lon="2.520481700">
        <ele>290.90</ele>
        <time>2013-03-23T16:51:28Z</time>
      </trkpt>
      <trkpt lat="41.622266000" lon="2.520521900">
        <ele>292.40</ele>
        <time>2013-03-23T16:51:33Z</time>
      </trkpt>
      <trkpt lat="41.622178400" lon="2.520602300">
        <ele>292.90</ele>
        <time>2013-03-23T16:51:42Z</time>
      </trkpt>
      <trkpt lat="41.622109800" lon="2.520653800">
        <ele>294.30</ele>
        <time>2013-03-23T16:51:49Z</time>
      </trkpt>
      <trkpt lat="41.622054600" lon="2.520724400">
        <ele>295.70</ele>
        <time>2013-03-23T16:51:56Z</time>
      </trkpt>
      <trkpt lat="41.621968300" lon="2.520811000">
        <ele>297.20</ele>
        <time>2013-03-23T16:52:03Z</time>
      </trkpt>
      <trkpt lat="41.621838200" lon="2.520910800">
        <ele>298.10</ele>
        <time>2013-03-23T16:52:13Z</time>
      </trkpt>
      <trkpt lat="41.621741500" lon="2.520996800">
        <ele>298.60</ele>
        <time>2013-03-23T16:52:22Z</time>
      </trkpt>
      <trkpt lat="41.621711100" lon="2.521008800">
        <ele>299.10</ele>
        <time>2013-03-23T16:52:24Z</time>
      </trkpt>
      <trkpt lat="41.621581800" lon="2.520990400">
        <ele>300.10</ele>
        <time>2013-03-23T16:52:34Z</time>
      </trkpt>
      <trkpt lat="41.621535100" lon="2.520965800">
        <ele>300.10</ele>
        <time>2013-03-23T16:52:36Z</time>
      </trkpt>
      <trkpt lat="41.621461600" lon="2.520941200">
        <ele>300.50</ele>
        <time>2013-03-23T16:52:41Z</time>
      </trkpt>
      <trkpt lat="41.621323600" lon="2.520961200">
        <ele>301.50</ele>
        <time>2013-03-23T16:52:50Z</time>
      </trkpt>
      <trkpt lat="41.621207700" lon="2.520994600">
        <ele>302.00</ele>
        <time>2013-03-23T16:52:57Z</time>
      </trkpt>
      <trkpt lat="41.621140200" lon="2.521005000">
        <ele>303.00</ele>
        <time>2013-03-23T16:53:02Z</time>
      </trkpt>
      <trkpt lat="41.621137300" lon="2.521104400">
        <ele>303.00</ele>
        <time>2013-03-23T16:53:07Z</time>
      </trkpt>
      <trkpt lat="41.621206700" lon="2.521092000">
        <ele>304.90</ele>
        <time>2013-03-23T16:53:14Z</time>
      </trkpt>
      <trkpt lat="41.621294100" lon="2.521142800">
        <ele>306.80</ele>
        <time>2013-03-23T16:53:21Z</time>
      </trkpt>
      <trkpt lat="41.621363400" lon="2.521273700">
        <ele>308.20</ele>
        <time>2013-03-23T16:53:30Z</time>
      </trkpt>
      <trkpt lat="41.621448600" lon="2.521397600">
        <ele>310.20</ele>
        <time>2013-03-23T16:53:40Z</time>
      </trkpt>
      <trkpt lat="41.621520000" lon="2.521479200">
        <ele>312.10</ele>
        <time>2013-03-23T16:53:47Z</time>
      </trkpt>
      <trkpt lat="41.621550100" lon="2.521560800">
        <ele>312.10</ele>
        <time>2013-03-23T16:53:51Z</time>
      </trkpt>
      <trkpt lat="41.621649000" lon="2.521702100">
        <ele>313.50</ele>
        <time>2013-03-23T16:54:01Z</time>
      </trkpt>
      <trkpt lat="41.621686600" lon="2.521757200">
        <ele>315.00</ele>
        <time>2013-03-23T16:54:05Z</time>
      </trkpt>
      <trkpt lat="41.621701600" lon="2.521783300">
        <ele>315.00</ele>
        <time>2013-03-23T16:54:06Z</time>
      </trkpt>
      <trkpt lat="41.621716000" lon="2.521861100">
        <ele>315.50</ele>
        <time>2013-03-23T16:54:12Z</time>
      </trkpt>
      <trkpt lat="41.621738600" lon="2.521902400">
        <ele>315.90</ele>
        <time>2013-03-23T16:54:15Z</time>
      </trkpt>
      <trkpt lat="41.621803000" lon="2.522043600">
        <ele>317.90</ele>
        <time>2013-03-23T16:54:24Z</time>
      </trkpt>
      <trkpt lat="41.621868000" lon="2.522202100">
        <ele>319.80</ele>
        <time>2013-03-23T16:54:33Z</time>
      </trkpt>
      <trkpt lat="41.621895900" lon="2.522264800">
        <ele>320.30</ele>
        <time>2013-03-23T16:54:36Z</time>
      </trkpt>
      <trkpt lat="41.621945800" lon="2.522236500">
        <ele>320.70</ele>
        <time>2013-03-23T16:54:43Z</time>
      </trkpt>
      <trkpt lat="41.621948800" lon="2.522198000">
        <ele>321.20</ele>
        <time>2013-03-23T16:54:45Z</time>
      </trkpt>
      <trkpt lat="41.621935900" lon="2.522046900">
        <ele>322.70</ele>
        <time>2013-03-23T16:54:55Z</time>
      </trkpt>
      <trkpt lat="41.621961300" lon="2.521918500">
        <ele>324.10</ele>
        <time>2013-03-23T16:55:02Z</time>
      </trkpt>
      <trkpt lat="41.621959000" lon="2.521751000">
        <ele>325.10</ele>
        <time>2013-03-23T16:55:11Z</time>
      </trkpt>
      <trkpt lat="41.622026100" lon="2.521576500">
        <ele>326.50</ele>
        <time>2013-03-23T16:55:21Z</time>
      </trkpt>
      <trkpt lat="41.622136500" lon="2.521504400">
        <ele>328.00</ele>
        <time>2013-03-23T16:55:30Z</time>
      </trkpt>
      <trkpt lat="41.622177600" lon="2.521507200">
        <ele>328.40</ele>
        <time>2013-03-23T16:55:34Z</time>
      </trkpt>
      <trkpt lat="41.622243400" lon="2.521554700">
        <ele>328.90</ele>
        <time>2013-03-23T16:55:39Z</time>
      </trkpt>
      <trkpt lat="41.622329500" lon="2.521630500">
        <ele>330.40</ele>
        <time>2013-03-23T16:55:46Z</time>
      </trkpt>
      <trkpt lat="41.622418200" lon="2.521703700">
        <ele>331.30</ele>
        <time>2013-03-23T16:55:53Z</time>
      </trkpt>
      <trkpt lat="41.622516200" lon="2.521772500">
        <ele>332.80</ele>
        <time>2013-03-23T16:56:01Z</time>
      </trkpt>
      <trkpt lat="41.622659100" lon="2.521850400">
        <ele>334.70</ele>
        <time>2013-03-23T16:56:12Z</time>
      </trkpt>
      <trkpt lat="41.622773600" lon="2.521854600">
        <ele>335.60</ele>
        <time>2013-03-23T16:56:19Z</time>
      </trkpt>
      <trkpt lat="41.622916500" lon="2.521845300">
        <ele>337.10</ele>
        <time>2013-03-23T16:56:29Z</time>
      </trkpt>
      <trkpt lat="41.623035700" lon="2.521810800">
        <ele>338.50</ele>
        <time>2013-03-23T16:56:36Z</time>
      </trkpt>
      <trkpt lat="41.623138400" lon="2.521807500">
        <ele>339.50</ele>
        <time>2013-03-23T16:56:43Z</time>
      </trkpt>
      <trkpt lat="41.623278000" lon="2.521957500">
        <ele>340.40</ele>
        <time>2013-03-23T16:56:54Z</time>
      </trkpt>
      <trkpt lat="41.623366700" lon="2.522076700">
        <ele>341.40</ele>
        <time>2013-03-23T16:57:01Z</time>
      </trkpt>
      <trkpt lat="41.623405400" lon="2.522107800">
        <ele>341.40</ele>
        <time>2013-03-23T16:57:04Z</time>
      </trkpt>
      <trkpt lat="41.623499100" lon="2.522089800">
        <ele>341.90</ele>
        <time>2013-03-23T16:57:11Z</time>
      </trkpt>
      <trkpt lat="41.623618100" lon="2.522039900">
        <ele>343.80</ele>
        <time>2013-03-23T16:57:20Z</time>
      </trkpt>
      <trkpt lat="41.623626100" lon="2.522032900">
        <ele>343.80</ele>
        <time>2013-03-23T16:57:20Z</time>
      </trkpt>
      <trkpt lat="41.623691500" lon="2.521930200">
        <ele>345.70</ele>
        <time>2013-03-23T16:57:30Z</time>
      </trkpt>
      <trkpt lat="41.623756000" lon="2.521842300">
        <ele>346.70</ele>
        <time>2013-03-23T16:57:37Z</time>
      </trkpt>
      <trkpt lat="41.623821100" lon="2.521681000">
        <ele>349.10</ele>
        <time>2013-03-23T16:57:46Z</time>
      </trkpt>
      <trkpt lat="41.623867700" lon="2.521548100">
        <ele>350.50</ele>
        <time>2013-03-23T16:57:55Z</time>
      </trkpt>
      <trkpt lat="41.623960300" lon="2.521410400">
        <ele>352.50</ele>
        <time>2013-03-23T16:58:05Z</time>
      </trkpt>
      <trkpt lat="41.624058200" lon="2.521347900">
        <ele>353.90</ele>
        <time>2013-03-23T16:58:12Z</time>
      </trkpt>
      <trkpt lat="41.624155000" lon="2.521289400">
        <ele>355.30</ele>
        <time>2013-03-23T16:58:21Z</time>
      </trkpt>
      <trkpt lat="41.624223400" lon="2.521236700">
        <ele>356.80</ele>
        <time>2013-03-23T16:58:28Z</time>
      </trkpt>
      <trkpt lat="41.624273600" lon="2.521220500">
        <ele>357.30</ele>
        <time>2013-03-23T16:58:33Z</time>
      </trkpt>
      <trkpt lat="41.624396300" lon="2.521234700">
        <ele>359.70</ele>
        <time>2013-03-23T16:58:42Z</time>
      </trkpt>
      <trkpt lat="41.624411000" lon="2.521240200">
        <ele>359.70</ele>
        <time>2013-03-23T16:58:43Z</time>
      </trkpt>
      <trkpt lat="41.624566500" lon="2.521309700">
        <ele>362.10</ele>
        <time>2013-03-23T16:58:54Z</time>
      </trkpt>
      <trkpt lat="41.624670200" lon="2.521373300">
        <ele>364.00</ele>
        <time>2013-03-23T16:59:04Z</time>
      </trkpt>
      <trkpt lat="41.624779200" lon="2.521360900">
        <ele>365.40</ele>
        <time>2013-03-23T16:59:11Z</time>
      </trkpt>
      <trkpt lat="41.624886300" lon="2.521333200">
        <ele>367.80</ele>
        <time>2013-03-23T16:59:20Z</time>
      </trkpt>
      <trkpt lat="41.624984900" lon="2.521316300">
        <ele>370.20</ele>
        <time>2013-03-23T16:59:29Z</time>
      </trkpt>
      <trkpt lat="41.625081300" lon="2.521310400">
        <ele>371.70</ele>
        <time>2013-03-23T16:59:36Z</time>
      </trkpt>
      <trkpt lat="41.625182300" lon="2.521299800">
        <ele>372.60</ele>
        <time>2013-03-23T16:59:43Z</time>
      </trkpt>
      <trkpt lat="41.625204100" lon="2.521284100">
        <ele>372.60</ele>
        <time>2013-03-23T16:59:46Z</time>
      </trkpt>
      <trkpt lat="41.625283000" lon="2.521250200">
        <ele>373.60</ele>
        <time>2013-03-23T16:59:53Z</time>
      </trkpt>
      <trkpt lat="41.625339500" lon="2.521210600">
        <ele>374.10</ele>
        <time>2013-03-23T16:59:58Z</time>
      </trkpt>
      <trkpt lat="41.625450300" lon="2.521134500">
        <ele>375.50</ele>
        <time>2013-03-23T17:00:07Z</time>
      </trkpt>
      <trkpt lat="41.625526600" lon="2.521020000">
        <ele>376.50</ele>
        <time>2013-03-23T17:00:16Z</time>
      </trkpt>
      <trkpt lat="41.625543200" lon="2.520933000">
        <ele>377.00</ele>
        <time>2013-03-23T17:00:21Z</time>
      </trkpt>
      <trkpt lat="41.625515300" lon="2.520793100">
        <ele>377.50</ele>
        <time>2013-03-23T17:00:30Z</time>
      </trkpt>
      <trkpt lat="41.625477600" lon="2.520669000">
        <ele>378.90</ele>
        <time>2013-03-23T17:00:37Z</time>
      </trkpt>
      <trkpt lat="41.625440600" lon="2.520534200">
        <ele>379.90</ele>
        <time>2013-03-23T17:00:45Z</time>
      </trkpt>
      <trkpt lat="41.625429300" lon="2.520376800">
        <ele>380.30</ele>
        <time>2013-03-23T17:00:54Z</time>
      </trkpt>
      <trkpt lat="41.625402500" lon="2.520234500">
        <ele>381.80</ele>
        <time>2013-03-23T17:01:01Z</time>
      </trkpt>
      <trkpt lat="41.625372400" lon="2.520099400">
        <ele>382.30</ele>
        <time>2013-03-23T17:01:08Z</time>
      </trkpt>
      <trkpt lat="41.625352800" lon="2.520001400">
        <ele>382.30</ele>
        <time>2013-03-23T17:01:13Z</time>
      </trkpt>
      <trkpt lat="41.625387700" lon="2.519858100">
        <ele>382.30</ele>
        <time>2013-03-23T17:01:20Z</time>
      </trkpt>
      <trkpt lat="41.625528300" lon="2.519746200">
        <ele>382.30</ele>
        <time>2013-03-23T17:01:27Z</time>
      </trkpt>
      <trkpt lat="41.625706400" lon="2.519640400">
        <ele>382.30</ele>
        <time>2013-03-23T17:01:36Z</time>
      </trkpt>
      <trkpt lat="41.625811700" lon="2.519464400">
        <ele>382.70</ele>
        <time>2013-03-23T17:01:43Z</time>
      </trkpt>
      <trkpt lat="41.625829800" lon="2.519394600">
        <ele>382.70</ele>
        <time>2013-03-23T17:01:46Z</time>
      </trkpt>
      <trkpt lat="41.625768700" lon="2.519138000">
        <ele>382.70</ele>
        <time>2013-03-23T17:01:53Z</time>
      </trkpt>
      <trkpt lat="41.625746400" lon="2.519090500">
        <ele>381.80</ele>
        <time>2013-03-23T17:01:53Z</time>
      </trkpt>
      <trkpt lat="41.625656800" lon="2.518857100">
        <ele>380.30</ele>
        <time>2013-03-23T17:01:57Z</time>
      </trkpt>
      <trkpt lat="41.625595200" lon="2.518507500">
        <ele>377.50</ele>
        <time>2013-03-23T17:02:02Z</time>
      </trkpt>
      <trkpt lat="41.625585400" lon="2.518360500">
        <ele>376.50</ele>
        <time>2013-03-23T17:02:07Z</time>
      </trkpt>
      <trkpt lat="41.625546800" lon="2.518302200">
        <ele>376.00</ele>
        <time>2013-03-23T17:02:09Z</time>
      </trkpt>
      <trkpt lat="41.625461000" lon="2.518152200">
        <ele>374.60</ele>
        <time>2013-03-23T17:02:12Z</time>
      </trkpt>
      <trkpt lat="41.625455700" lon="2.517964300">
        <ele>372.20</ele>
        <time>2013-03-23T17:02:18Z</time>
      </trkpt>
      <trkpt lat="41.625436200" lon="2.517874100">
        <ele>371.20</ele>
        <time>2013-03-23T17:02:21Z</time>
      </trkpt>
      <trkpt lat="41.625399800" lon="2.517726500">
        <ele>370.20</ele>
        <time>2013-03-23T17:02:26Z</time>
      </trkpt>
      <trkpt lat="41.625263800" lon="2.517617900">
        <ele>367.80</ele>
        <time>2013-03-23T17:02:32Z</time>
      </trkpt>
      <trkpt lat="41.625010000" lon="2.517472400">
        <ele>366.90</ele>
        <time>2013-03-23T17:02:40Z</time>
      </trkpt>
      <trkpt lat="41.624843300" lon="2.517377600">
        <ele>366.90</ele>
        <time>2013-03-23T17:02:47Z</time>
      </trkpt>
      <trkpt lat="41.624662500" lon="2.517323000">
        <ele>366.90</ele>
        <time>2013-03-23T17:02:54Z</time>
      </trkpt>
      <trkpt lat="41.624460300" lon="2.517283000">
        <ele>367.80</ele>
        <time>2013-03-23T17:03:03Z</time>
      </trkpt>
      <trkpt lat="41.624433500" lon="2.517277400">
        <ele>367.80</ele>
        <time>2013-03-23T17:03:03Z</time>
      </trkpt>
      <trkpt lat="41.624252500" lon="2.517264500">
        <ele>368.80</ele>
        <time>2013-03-23T17:03:12Z</time>
      </trkpt>
      <trkpt lat="41.624173200" lon="2.517284500">
        <ele>369.80</ele>
        <time>2013-03-23T17:03:15Z</time>
      </trkpt>
      <trkpt lat="41.624130300" lon="2.517210700">
        <ele>370.20</ele>
        <time>2013-03-23T17:03:22Z</time>
      </trkpt>
      <trkpt lat="41.624254100" lon="2.517161500">
        <ele>372.60</ele>
        <time>2013-03-23T17:03:33Z</time>
      </trkpt>
      <trkpt lat="41.624352600" lon="2.517122300">
        <ele>375.00</ele>
        <time>2013-03-23T17:03:41Z</time>
      </trkpt>
      <trkpt lat="41.624444800" lon="2.517099000">
        <ele>376.50</ele>
        <time>2013-03-23T17:03:50Z</time>
      </trkpt>
      <trkpt lat="41.624493700" lon="2.517093500">
        <ele>377.00</ele>
        <time>2013-03-23T17:03:55Z</time>
      </trkpt>
      <trkpt lat="41.624496500" lon="2.517085200">
        <ele>377.50</ele>
        <time>2013-03-23T17:04:04Z</time>
      </trkpt>
      <trkpt lat="41.624563400" lon="2.517052400">
        <ele>377.90</ele>
        <time>2013-03-23T17:04:14Z</time>
      </trkpt>
      <trkpt lat="41.624635300" lon="2.517012000">
        <ele>378.40</ele>
        <time>2013-03-23T17:04:21Z</time>
      </trkpt>
      <trkpt lat="41.624738200" lon="2.516993200">
        <ele>379.90</ele>
        <time>2013-03-23T17:04:28Z</time>
      </trkpt>
      <trkpt lat="41.624854200" lon="2.517009600">
        <ele>380.80</ele>
        <time>2013-03-23T17:04:37Z</time>
      </trkpt>
      <trkpt lat="41.624954300" lon="2.517037800">
        <ele>382.30</ele>
        <time>2013-03-23T17:04:44Z</time>
      </trkpt>
      <trkpt lat="41.625044700" lon="2.517075600">
        <ele>383.20</ele>
        <time>2013-03-23T17:04:51Z</time>
      </trkpt>
      <trkpt lat="41.625142000" lon="2.517100700">
        <ele>384.20</ele>
        <time>2013-03-23T17:04:58Z</time>
      </trkpt>
      <trkpt lat="41.625252800" lon="2.517171300">
        <ele>385.10</ele>
        <time>2013-03-23T17:05:07Z</time>
      </trkpt>
      <trkpt lat="41.625379400" lon="2.517244500">
        <ele>386.60</ele>
        <time>2013-03-23T17:05:15Z</time>
      </trkpt>
      <trkpt lat="41.625515000" lon="2.517317000">
        <ele>388.50</ele>
        <time>2013-03-23T17:05:24Z</time>
      </trkpt>
      <trkpt lat="41.625585300" lon="2.517394900">
        <ele>390.90</ele>
        <time>2013-03-23T17:05:33Z</time>
      </trkpt>
      <trkpt lat="41.625655400" lon="2.517489800">
        <ele>392.40</ele>
        <time>2013-03-23T17:05:40Z</time>
      </trkpt>
      <trkpt lat="41.625707000" lon="2.517597300">
        <ele>394.30</ele>
        <time>2013-03-23T17:05:47Z</time>
      </trkpt>
      <trkpt lat="41.625721000" lon="2.517623100">
        <ele>394.80</ele>
        <time>2013-03-23T17:05:48Z</time>
      </trkpt>
      <trkpt lat="41.625748100" lon="2.517654800">
        <ele>394.80</ele>
        <time>2013-03-23T17:05:52Z</time>
      </trkpt>
      <trkpt lat="41.625799900" lon="2.517750200">
        <ele>396.70</ele>
        <time>2013-03-23T17:05:59Z</time>
      </trkpt>
      <trkpt lat="41.625845900" lon="2.517909700">
        <ele>398.10</ele>
        <time>2013-03-23T17:06:09Z</time>
      </trkpt>
      <trkpt lat="41.625853200" lon="2.517924200">
        <ele>399.10</ele>
        <time>2013-03-23T17:06:11Z</time>
      </trkpt>
      <trkpt lat="41.625881500" lon="2.518064200">
        <ele>400.00</ele>
        <time>2013-03-23T17:06:20Z</time>
      </trkpt>
      <trkpt lat="41.625914200" lon="2.518175000">
        <ele>401.00</ele>
        <time>2013-03-23T17:06:27Z</time>
      </trkpt>
      <trkpt lat="41.625980000" lon="2.518356000">
        <ele>403.40</ele>
        <time>2013-03-23T17:06:37Z</time>
      </trkpt>
      <trkpt lat="41.626040500" lon="2.518499800">
        <ele>405.80</ele>
        <time>2013-03-23T17:06:46Z</time>
      </trkpt>
      <trkpt lat="41.626103500" lon="2.518618000">
        <ele>407.30</ele>
        <time>2013-03-23T17:06:55Z</time>
      </trkpt>
      <trkpt lat="41.626166500" lon="2.518768600">
        <ele>409.20</ele>
        <time>2013-03-23T17:07:05Z</time>
      </trkpt>
      <trkpt lat="41.626208700" lon="2.518877000">
        <ele>411.10</ele>
        <time>2013-03-23T17:07:14Z</time>
      </trkpt>
      <trkpt lat="41.626274200" lon="2.518975700">
        <ele>412.50</ele>
        <time>2013-03-23T17:07:23Z</time>
      </trkpt>
      <trkpt lat="41.626350400" lon="2.519108000">
        <ele>414.50</ele>
        <time>2013-03-23T17:07:33Z</time>
      </trkpt>
      <trkpt lat="41.626363900" lon="2.519134500">
        <ele>414.50</ele>
        <time>2013-03-23T17:07:35Z</time>
      </trkpt>
      <trkpt lat="41.626388000" lon="2.519196100">
        <ele>415.90</ele>
        <time>2013-03-23T17:07:38Z</time>
      </trkpt>
      <trkpt lat="41.626467500" lon="2.519347900">
        <ele>418.30</ele>
        <time>2013-03-23T17:07:50Z</time>
      </trkpt>
      <trkpt lat="41.626487200" lon="2.519396400">
        <ele>419.30</ele>
        <time>2013-03-23T17:07:56Z</time>
      </trkpt>
      <trkpt lat="41.626494300" lon="2.519437500">
        <ele>420.20</ele>
        <time>2013-03-23T17:07:59Z</time>
      </trkpt>
      <trkpt lat="41.626551400" lon="2.519560400">
        <ele>421.70</ele>
        <time>2013-03-23T17:08:08Z</time>
      </trkpt>
      <trkpt lat="41.626589700" lon="2.519689900">
        <ele>423.60</ele>
        <time>2013-03-23T17:08:17Z</time>
      </trkpt>
      <trkpt lat="41.626607500" lon="2.519761400">
        <ele>424.60</ele>
        <time>2013-03-23T17:08:20Z</time>
      </trkpt>
      <trkpt lat="41.626599900" lon="2.519904700">
        <ele>426.50</ele>
        <time>2013-03-23T17:08:29Z</time>
      </trkpt>
      <trkpt lat="41.626576000" lon="2.520016100">
        <ele>427.90</ele>
        <time>2013-03-23T17:08:37Z</time>
      </trkpt>
      <trkpt lat="41.626566000" lon="2.520048200">
        <ele>428.90</ele>
        <time>2013-03-23T17:08:41Z</time>
      </trkpt>
      <trkpt lat="41.626553600" lon="2.520075400">
        <ele>428.90</ele>
        <time>2013-03-23T17:08:43Z</time>
      </trkpt>
      <trkpt lat="41.626557600" lon="2.520146100">
        <ele>429.40</ele>
        <time>2013-03-23T17:08:48Z</time>
      </trkpt>
      <trkpt lat="41.626602900" lon="2.520105900">
        <ele>429.40</ele>
        <time>2013-03-23T17:08:53Z</time>
      </trkpt>
      <trkpt lat="41.626631000" lon="2.520049400">
        <ele>429.40</ele>
        <time>2013-03-23T17:08:57Z</time>
      </trkpt>
      <trkpt lat="41.626720800" lon="2.519810500">
        <ele>429.40</ele>
        <time>2013-03-23T17:09:05Z</time>
      </trkpt>
      <trkpt lat="41.626741500" lon="2.519600900">
        <ele>429.40</ele>
        <time>2013-03-23T17:09:14Z</time>
      </trkpt>
      <trkpt lat="41.626722900" lon="2.519429200">
        <ele>430.30</ele>
        <time>2013-03-23T17:09:23Z</time>
      </trkpt>
      <trkpt lat="41.626719600" lon="2.519295600">
        <ele>430.80</ele>
        <time>2013-03-23T17:09:30Z</time>
      </trkpt>
      <trkpt lat="41.626718100" lon="2.519280400">
        <ele>431.30</ele>
        <time>2013-03-23T17:09:30Z</time>
      </trkpt>
      <trkpt lat="41.626705700" lon="2.519143200">
        <ele>431.80</ele>
        <time>2013-03-23T17:09:37Z</time>
      </trkpt>
      <trkpt lat="41.626694300" lon="2.519023700">
        <ele>432.70</ele>
        <time>2013-03-23T17:09:44Z</time>
      </trkpt>
      <trkpt lat="41.626650700" lon="2.518856000">
        <ele>433.20</ele>
        <time>2013-03-23T17:09:52Z</time>
      </trkpt>
      <trkpt lat="41.626568900" lon="2.518650300">
        <ele>433.20</ele>
        <time>2013-03-23T17:09:59Z</time>
      </trkpt>
      <trkpt lat="41.626573600" lon="2.518254300">
        <ele>431.30</ele>
        <time>2013-03-23T17:10:06Z</time>
      </trkpt>
      <trkpt lat="41.626576300" lon="2.517965700">
        <ele>431.30</ele>
        <time>2013-03-23T17:10:12Z</time>
      </trkpt>
      <trkpt lat="41.626569300" lon="2.517555600">
        <ele>432.70</ele>
        <time>2013-03-23T17:10:22Z</time>
      </trkpt>
      <trkpt lat="41.626597700" lon="2.517301200">
        <ele>434.20</ele>
        <time>2013-03-23T17:10:31Z</time>
      </trkpt>
      <trkpt lat="41.626640200" lon="2.516991100">
        <ele>435.60</ele>
        <time>2013-03-23T17:10:41Z</time>
      </trkpt>
      <trkpt lat="41.626655700" lon="2.516590000">
        <ele>437.50</ele>
        <time>2013-03-23T17:10:55Z</time>
      </trkpt>
      <trkpt lat="41.626680000" lon="2.516356900">
        <ele>438.50</ele>
        <time>2013-03-23T17:11:02Z</time>
      </trkpt>
      <trkpt lat="41.626717500" lon="2.516159800">
        <ele>439.90</ele>
        <time>2013-03-23T17:11:09Z</time>
      </trkpt>
      <trkpt lat="41.626748800" lon="2.515952400">
        <ele>441.40</ele>
        <time>2013-03-23T17:11:18Z</time>
      </trkpt>
      <trkpt lat="41.626751200" lon="2.515928600">
        <ele>441.40</ele>
        <time>2013-03-23T17:11:18Z</time>
      </trkpt>
      <trkpt lat="41.626795500" lon="2.515797600">
        <ele>441.90</ele>
        <time>2013-03-23T17:11:23Z</time>
      </trkpt>
      <trkpt lat="41.626932300" lon="2.515623700">
        <ele>443.80</ele>
        <time>2013-03-23T17:11:33Z</time>
      </trkpt>
      <trkpt lat="41.627043000" lon="2.515497300">
        <ele>444.30</ele>
        <time>2013-03-23T17:11:40Z</time>
      </trkpt>
      <trkpt lat="41.627134200" lon="2.515394100">
        <ele>445.20</ele>
        <time>2013-03-23T17:11:47Z</time>
      </trkpt>
      <trkpt lat="41.627208900" lon="2.515361300">
        <ele>446.70</ele>
        <time>2013-03-23T17:11:54Z</time>
      </trkpt>
      <trkpt lat="41.627355200" lon="2.515279300">
        <ele>449.10</ele>
        <time>2013-03-23T17:12:05Z</time>
      </trkpt>
      <trkpt lat="41.627451500" lon="2.515192500">
        <ele>451.00</ele>
        <time>2013-03-23T17:12:15Z</time>
      </trkpt>
      <trkpt lat="41.627484300" lon="2.515172600">
        <ele>452.40</ele>
        <time>2013-03-23T17:12:17Z</time>
      </trkpt>
      <trkpt lat="41.627571600" lon="2.515110100">
        <ele>454.40</ele>
        <time>2013-03-23T17:12:26Z</time>
      </trkpt>
      <trkpt lat="41.627626000" lon="2.515058100">
        <ele>455.30</ele>
        <time>2013-03-23T17:12:31Z</time>
      </trkpt>
      <trkpt lat="41.627657900" lon="2.515033800">
        <ele>456.30</ele>
        <time>2013-03-23T17:12:34Z</time>
      </trkpt>
      <trkpt lat="41.627742100" lon="2.514985100">
        <ele>457.20</ele>
        <time>2013-03-23T17:12:43Z</time>
      </trkpt>
      <trkpt lat="41.627840800" lon="2.514967700">
        <ele>457.70</ele>
        <time>2013-03-23T17:12:50Z</time>
      </trkpt>
      <trkpt lat="41.628012100" lon="2.514961400">
        <ele>457.70</ele>
        <time>2013-03-23T17:12:59Z</time>
      </trkpt>
      <trkpt lat="41.628205500" lon="2.514968100">
        <ele>457.70</ele>
        <time>2013-03-23T17:13:04Z</time>
      </trkpt>
      <trkpt lat="41.628292400" lon="2.514996800">
        <ele>456.30</ele>
        <time>2013-03-23T17:13:06Z</time>
      </trkpt>
      <trkpt lat="41.628467200" lon="2.515152000">
        <ele>454.40</ele>
        <time>2013-03-23T17:13:13Z</time>
      </trkpt>
      <trkpt lat="41.628509500" lon="2.515184200">
        <ele>452.90</ele>
        <time>2013-03-23T17:13:16Z</time>
      </trkpt>
      <trkpt lat="41.628551200" lon="2.515207200">
        <ele>452.40</ele>
        <time>2013-03-23T17:13:27Z</time>
      </trkpt>
      <trkpt lat="41.628695800" lon="2.515309200">
        <ele>450.00</ele>
        <time>2013-03-23T17:13:32Z</time>
      </trkpt>
      <trkpt lat="41.628760200" lon="2.515359700">
        <ele>449.10</ele>
        <time>2013-03-23T17:13:35Z</time>
      </trkpt>
      <trkpt lat="41.628922800" lon="2.515480000">
        <ele>445.20</ele>
        <time>2013-03-23T17:13:39Z</time>
      </trkpt>
      <trkpt lat="41.628990800" lon="2.515512500">
        <ele>443.80</ele>
        <time>2013-03-23T17:13:42Z</time>
      </trkpt>
      <trkpt lat="41.629108700" lon="2.515565100">
        <ele>440.90</ele>
        <time>2013-03-23T17:13:49Z</time>
      </trkpt>
      <trkpt lat="41.629273600" lon="2.515630600">
        <ele>438.00</ele>
        <time>2013-03-23T17:13:56Z</time>
      </trkpt>
      <trkpt lat="41.629385700" lon="2.515615000">
        <ele>436.10</ele>
        <time>2013-03-23T17:14:00Z</time>
      </trkpt>
      <trkpt lat="41.629642000" lon="2.515631500">
        <ele>434.20</ele>
        <time>2013-03-23T17:14:05Z</time>
      </trkpt>
      <trkpt lat="41.629850600" lon="2.515573100">
        <ele>431.80</ele>
        <time>2013-03-23T17:14:10Z</time>
      </trkpt>
      <trkpt lat="41.630069200" lon="2.515584500">
        <ele>430.80</ele>
        <time>2013-03-23T17:14:14Z</time>
      </trkpt>
      <trkpt lat="41.630167100" lon="2.515727100">
        <ele>427.90</ele>
        <time>2013-03-23T17:14:19Z</time>
      </trkpt>
      <trkpt lat="41.630205100" lon="2.515805000">
        <ele>427.00</ele>
        <time>2013-03-23T17:14:22Z</time>
      </trkpt>
      <trkpt lat="41.630376500" lon="2.515960900">
        <ele>422.20</ele>
        <time>2013-03-23T17:14:28Z</time>
      </trkpt>
      <trkpt lat="41.630412400" lon="2.515956600">
        <ele>421.70</ele>
        <time>2013-03-23T17:14:29Z</time>
      </trkpt>
      <trkpt lat="41.630503800" lon="2.515926600">
        <ele>420.70</ele>
        <time>2013-03-23T17:14:31Z</time>
      </trkpt>
      <trkpt lat="41.630719100" lon="2.515842900">
        <ele>417.80</ele>
        <time>2013-03-23T17:14:36Z</time>
      </trkpt>
      <trkpt lat="41.630755000" lon="2.515819500">
        <ele>416.90</ele>
        <time>2013-03-23T17:14:36Z</time>
      </trkpt>
      <trkpt lat="41.630903200" lon="2.515598900">
        <ele>413.50</ele>
        <time>2013-03-23T17:14:40Z</time>
      </trkpt>
      <trkpt lat="41.631006400" lon="2.515315600">
        <ele>410.10</ele>
        <time>2013-03-23T17:14:45Z</time>
      </trkpt>
      <trkpt lat="41.631062800" lon="2.515154700">
        <ele>408.70</ele>
        <time>2013-03-23T17:14:47Z</time>
      </trkpt>
      <trkpt lat="41.631161200" lon="2.515002500">
        <ele>407.30</ele>
        <time>2013-03-23T17:14:50Z</time>
      </trkpt>
      <trkpt lat="41.631334500" lon="2.514883800">
        <ele>402.90</ele>
        <time>2013-03-23T17:14:54Z</time>
      </trkpt>
      <trkpt lat="41.631384600" lon="2.514858800">
        <ele>402.00</ele>
        <time>2013-03-23T17:14:54Z</time>
      </trkpt>
      <trkpt lat="41.631520800" lon="2.514748600">
        <ele>400.50</ele>
        <time>2013-03-23T17:14:57Z</time>
      </trkpt>
      <trkpt lat="41.631573000" lon="2.514719100">
        <ele>400.00</ele>
        <time>2013-03-23T17:14:59Z</time>
      </trkpt>
      <trkpt lat="41.632004000" lon="2.514598800">
        <ele>395.20</ele>
        <time>2013-03-23T17:15:04Z</time>
      </trkpt>
      <trkpt lat="41.632141100" lon="2.514595100">
        <ele>394.80</ele>
        <time>2013-03-23T17:15:06Z</time>
      </trkpt>
      <trkpt lat="41.632361200" lon="2.514674300">
        <ele>391.40</ele>
        <time>2013-03-23T17:15:09Z</time>
      </trkpt>
      <trkpt lat="41.632435300" lon="2.514722100">
        <ele>390.90</ele>
        <time>2013-03-23T17:15:11Z</time>
      </trkpt>
      <trkpt lat="41.632818700" lon="2.514976100">
        <ele>387.10</ele>
        <time>2013-03-23T17:15:16Z</time>
      </trkpt>
      <trkpt lat="41.633147400" lon="2.515058400">
        <ele>385.60</ele>
        <time>2013-03-23T17:15:20Z</time>
      </trkpt>
      <trkpt lat="41.633369600" lon="2.515054500">
        <ele>383.20</ele>
        <time>2013-03-23T17:15:23Z</time>
      </trkpt>
      <trkpt lat="41.633653300" lon="2.514838300">
        <ele>380.80</ele>
        <time>2013-03-23T17:15:27Z</time>
      </trkpt>
      <trkpt lat="41.633709200" lon="2.514797300">
        <ele>380.80</ele>
        <time>2013-03-23T17:15:29Z</time>
      </trkpt>
      <trkpt lat="41.633912800" lon="2.514790900">
        <ele>378.90</ele>
        <time>2013-03-23T17:15:32Z</time>
      </trkpt>
      <trkpt lat="41.634069700" lon="2.514819900">
        <ele>377.90</ele>
        <time>2013-03-23T17:15:34Z</time>
      </trkpt>
      <trkpt lat="41.634430700" lon="2.514719600">
        <ele>374.60</ele>
        <time>2013-03-23T17:15:39Z</time>
      </trkpt>
      <trkpt lat="41.634622300" lon="2.514654700">
        <ele>372.20</ele>
        <time>2013-03-23T17:15:41Z</time>
      </trkpt>
      <trkpt lat="41.634761500" lon="2.514677500">
        <ele>370.70</ele>
        <time>2013-03-23T17:15:44Z</time>
      </trkpt>
      <trkpt lat="41.635073500" lon="2.514753600">
        <ele>365.00</ele>
        <time>2013-03-23T17:15:48Z</time>
      </trkpt>
      <trkpt lat="41.635160500" lon="2.514854000">
        <ele>363.00</ele>
        <time>2013-03-23T17:15:51Z</time>
      </trkpt>
      <trkpt lat="41.635210600" lon="2.514944500">
        <ele>361.60</ele>
        <time>2013-03-23T17:15:53Z</time>
      </trkpt>
      <trkpt lat="41.635203700" lon="2.515188300">
        <ele>357.30</ele>
        <time>2013-03-23T17:15:56Z</time>
      </trkpt>
      <trkpt lat="41.635272600" lon="2.515334200">
        <ele>353.40</ele>
        <time>2013-03-23T17:16:00Z</time>
      </trkpt>
      <trkpt lat="41.635346800" lon="2.515225600">
        <ele>351.00</ele>
        <time>2013-03-23T17:16:05Z</time>
      </trkpt>
      <trkpt lat="41.635464800" lon="2.515024500">
        <ele>348.60</ele>
        <time>2013-03-23T17:16:09Z</time>
      </trkpt>
      <trkpt lat="41.635745600" lon="2.514948300">
        <ele>345.70</ele>
        <time>2013-03-23T17:16:12Z</time>
      </trkpt>
      <trkpt lat="41.635965800" lon="2.514987800">
        <ele>342.90</ele>
        <time>2013-03-23T17:16:16Z</time>
      </trkpt>
      <trkpt lat="41.636182200" lon="2.515165800">
        <ele>340.00</ele>
        <time>2013-03-23T17:16:19Z</time>
      </trkpt>
      <trkpt lat="41.636457800" lon="2.515341100">
        <ele>337.60</ele>
        <time>2013-03-23T17:16:24Z</time>
      </trkpt>
      <trkpt lat="41.636617300" lon="2.515360000">
        <ele>336.60</ele>
        <time>2013-03-23T17:16:26Z</time>
      </trkpt>
      <trkpt lat="41.636789200" lon="2.515389800">
        <ele>336.10</ele>
        <time>2013-03-23T17:16:28Z</time>
      </trkpt>
      <trkpt lat="41.637260200" lon="2.515260300">
        <ele>334.20</ele>
        <time>2013-03-23T17:16:33Z</time>
      </trkpt>
      <trkpt lat="41.637482600" lon="2.515111100">
        <ele>333.70</ele>
        <time>2013-03-23T17:16:38Z</time>
      </trkpt>
      <trkpt lat="41.637529800" lon="2.515088300">
        <ele>335.20</ele>
        <time>2013-03-23T17:16:40Z</time>
      </trkpt>
      <trkpt lat="41.637645500" lon="2.515103800">
        <ele>335.20</ele>
        <time>2013-03-23T17:16:45Z</time>
      </trkpt>
      <trkpt lat="41.637871200" lon="2.515101500">
        <ele>335.20</ele>
        <time>2013-03-23T17:16:49Z</time>
      </trkpt>
      <trkpt lat="41.638061100" lon="2.515176700">
        <ele>335.20</ele>
        <time>2013-03-23T17:16:54Z</time>
      </trkpt>
      <trkpt lat="41.638401100" lon="2.515468200">
        <ele>333.20</ele>
        <time>2013-03-23T17:17:03Z</time>
      </trkpt>
      <trkpt lat="41.638431000" lon="2.515508800">
        <ele>333.20</ele>
        <time>2013-03-23T17:17:04Z</time>
      </trkpt>
      <trkpt lat="41.638588000" lon="2.515525300">
        <ele>332.80</ele>
        <time>2013-03-23T17:17:08Z</time>
      </trkpt>
      <trkpt lat="41.638623300" lon="2.515478200">
        <ele>332.30</ele>
        <time>2013-03-23T17:17:08Z</time>
      </trkpt>
      <trkpt lat="41.638727000" lon="2.515284800">
        <ele>331.80</ele>
        <time>2013-03-23T17:17:11Z</time>
      </trkpt>
      <trkpt lat="41.638981400" lon="2.514965400">
        <ele>329.90</ele>
        <time>2013-03-23T17:17:18Z</time>
      </trkpt>
      <trkpt lat="41.639022700" lon="2.514929200">
        <ele>328.90</ele>
        <time>2013-03-23T17:17:18Z</time>
      </trkpt>
      <trkpt lat="41.639120800" lon="2.514912000">
        <ele>328.40</ele>
        <time>2013-03-23T17:17:20Z</time>
      </trkpt>
      <trkpt lat="41.639175700" lon="2.514926200">
        <ele>328.40</ele>
        <time>2013-03-23T17:17:22Z</time>
      </trkpt>
      <trkpt lat="41.639427900" lon="2.514944100">
        <ele>326.50</ele>
        <time>2013-03-23T17:17:27Z</time>
      </trkpt>
      <trkpt lat="41.639506600" lon="2.514824100">
        <ele>325.50</ele>
        <time>2013-03-23T17:17:29Z</time>
      </trkpt>
      <trkpt lat="41.639773200" lon="2.514410600">
        <ele>322.70</ele>
        <time>2013-03-23T17:17:34Z</time>
      </trkpt>
      <trkpt lat="41.639817700" lon="2.514355800">
        <ele>321.70</ele>
        <time>2013-03-23T17:17:36Z</time>
      </trkpt>
      <trkpt lat="41.640029800" lon="2.514275000">
        <ele>317.90</ele>
        <time>2013-03-23T17:17:39Z</time>
      </trkpt>
      <trkpt lat="41.640095300" lon="2.514309500">
        <ele>317.90</ele>
        <time>2013-03-23T17:17:41Z</time>
      </trkpt>
      <trkpt lat="41.640248100" lon="2.514507300">
        <ele>316.40</ele>
        <time>2013-03-23T17:17:43Z</time>
      </trkpt>
      <trkpt lat="41.640490500" lon="2.514998600">
        <ele>312.60</ele>
        <time>2013-03-23T17:17:51Z</time>
      </trkpt>
      <trkpt lat="41.640528800" lon="2.515098200">
        <ele>309.70</ele>
        <time>2013-03-23T17:17:55Z</time>
      </trkpt>
      <trkpt lat="41.640555900" lon="2.515119400">
        <ele>308.70</ele>
        <time>2013-03-23T17:18:02Z</time>
      </trkpt>
      <trkpt lat="41.640542100" lon="2.515092600">
        <ele>308.70</ele>
        <time>2013-03-23T17:18:09Z</time>
      </trkpt>
      <trkpt lat="41.640542900" lon="2.515087800">
        <ele>308.70</ele>
        <time>2013-03-23T17:18:18Z</time>
      </trkpt>
      <trkpt lat="41.640521000" lon="2.515058600">
        <ele>308.70</ele>
        <time>2013-03-23T17:18:23Z</time>
      </trkpt>
      <trkpt lat="41.640486900" lon="2.514945400">
        <ele>312.10</ele>
        <time>2013-03-23T17:18:30Z</time>
      </trkpt>
      <trkpt lat="41.640546700" lon="2.514890100">
        <ele>312.60</ele>
        <time>2013-03-23T17:18:37Z</time>
      </trkpt>
      <trkpt lat="41.640637300" lon="2.514822800">
        <ele>312.60</ele>
        <time>2013-03-23T17:18:40Z</time>
      </trkpt>
      <trkpt lat="41.640665600" lon="2.514737700">
        <ele>312.60</ele>
        <time>2013-03-23T17:18:42Z</time>
      </trkpt>
      <trkpt lat="41.640700000" lon="2.514596200">
        <ele>311.10</ele>
        <time>2013-03-23T17:18:45Z</time>
      </trkpt>
      <trkpt lat="41.640756600" lon="2.514226500">
        <ele>310.20</ele>
        <time>2013-03-23T17:18:52Z</time>
      </trkpt>
      <trkpt lat="41.640754300" lon="2.514174000">
        <ele>310.20</ele>
        <time>2013-03-23T17:18:54Z</time>
      </trkpt>
      <trkpt lat="41.640666700" lon="2.513907200">
        <ele>308.70</ele>
        <time>2013-03-23T17:18:59Z</time>
      </trkpt>
      <trkpt lat="41.640656400" lon="2.513693800">
        <ele>307.80</ele>
        <time>2013-03-23T17:19:03Z</time>
      </trkpt>
      <trkpt lat="41.640678100" lon="2.513650400">
        <ele>307.80</ele>
        <time>2013-03-23T17:19:03Z</time>
      </trkpt>
      <trkpt lat="41.640732800" lon="2.513569000">
        <ele>306.80</ele>
        <time>2013-03-23T17:19:06Z</time>
      </trkpt>
      <trkpt lat="41.640992500" lon="2.513310500">
        <ele>302.50</ele>
        <time>2013-03-23T17:19:13Z</time>
      </trkpt>
      <trkpt lat="41.641121600" lon="2.513153400">
        <ele>299.60</ele>
        <time>2013-03-23T17:19:17Z</time>
      </trkpt>
      <trkpt lat="41.641144900" lon="2.513114400">
        <ele>299.60</ele>
        <time>2013-03-23T17:19:17Z</time>
      </trkpt>
      <trkpt lat="41.641226800" lon="2.513137400">
        <ele>297.20</ele>
        <time>2013-03-23T17:19:22Z</time>
      </trkpt>
      <trkpt lat="41.641206700" lon="2.513269800">
        <ele>295.70</ele>
        <time>2013-03-23T17:19:24Z</time>
      </trkpt>
      <trkpt lat="41.641134000" lon="2.513495900">
        <ele>294.30</ele>
        <time>2013-03-23T17:19:29Z</time>
      </trkpt>
      <trkpt lat="41.641178500" lon="2.513624600">
        <ele>292.40</ele>
        <time>2013-03-23T17:19:34Z</time>
      </trkpt>
      <trkpt lat="41.641215800" lon="2.513612500">
        <ele>292.40</ele>
        <time>2013-03-23T17:19:34Z</time>
      </trkpt>
      <trkpt lat="41.641296400" lon="2.513549700">
        <ele>290.90</ele>
        <time>2013-03-23T17:19:36Z</time>
      </trkpt>
      <trkpt lat="41.641445200" lon="2.513258700">
        <ele>288.00</ele>
        <time>2013-03-23T17:19:43Z</time>
      </trkpt>
      <trkpt lat="41.641428400" lon="2.513063000">
        <ele>286.10</ele>
        <time>2013-03-23T17:19:46Z</time>
      </trkpt>
      <trkpt lat="41.641434600" lon="2.512785200">
        <ele>284.20</ele>
        <time>2013-03-23T17:19:52Z</time>
      </trkpt>
      <trkpt lat="41.641543100" lon="2.512709400">
        <ele>281.80</ele>
        <time>2013-03-23T17:19:55Z</time>
      </trkpt>
      <trkpt lat="41.641611500" lon="2.512755700">
        <ele>280.40</ele>
        <time>2013-03-23T17:19:57Z</time>
      </trkpt>
      <trkpt lat="41.641702600" lon="2.512940500">
        <ele>278.00</ele>
        <time>2013-03-23T17:20:00Z</time>
      </trkpt>
      <trkpt lat="41.641759100" lon="2.513069100">
        <ele>276.50</ele>
        <time>2013-03-23T17:20:02Z</time>
      </trkpt>
      <trkpt lat="41.641920500" lon="2.513339500">
        <ele>272.70</ele>
        <time>2013-03-23T17:20:07Z</time>
      </trkpt>
      <trkpt lat="41.642044500" lon="2.513485500">
        <ele>270.30</ele>
        <time>2013-03-23T17:20:11Z</time>
      </trkpt>
      <trkpt lat="41.642179600" lon="2.513656300">
        <ele>267.90</ele>
        <time>2013-03-23T17:20:14Z</time>
      </trkpt>
      <trkpt lat="41.642415600" lon="2.513880900">
        <ele>266.40</ele>
        <time>2013-03-23T17:20:18Z</time>
      </trkpt>
      <trkpt lat="41.642528900" lon="2.514011800">
        <ele>264.00</ele>
        <time>2013-03-23T17:20:21Z</time>
      </trkpt>
      <trkpt lat="41.642804200" lon="2.514211700">
        <ele>261.10</ele>
        <time>2013-03-23T17:20:25Z</time>
      </trkpt>
      <trkpt lat="41.643308400" lon="2.514393200">
        <ele>256.80</ele>
        <time>2013-03-23T17:20:30Z</time>
      </trkpt>
      <trkpt lat="41.643711700" lon="2.514509600">
        <ele>253.00</ele>
        <time>2013-03-23T17:20:35Z</time>
      </trkpt>
      <trkpt lat="41.643938400" lon="2.514562300">
        <ele>250.10</ele>
        <time>2013-03-23T17:20:37Z</time>
      </trkpt>
      <trkpt lat="41.644285200" lon="2.514586800">
        <ele>246.70</ele>
        <time>2013-03-23T17:20:40Z</time>
      </trkpt>
      <trkpt lat="41.644391000" lon="2.514580600">
        <ele>245.30</ele>
        <time>2013-03-23T17:20:40Z</time>
      </trkpt>
      <trkpt lat="41.644737900" lon="2.514680800">
        <ele>241.90</ele>
        <time>2013-03-23T17:20:44Z</time>
      </trkpt>
      <trkpt lat="41.644890500" lon="2.514821700">
        <ele>239.50</ele>
        <time>2013-03-23T17:20:47Z</time>
      </trkpt>
      <trkpt lat="41.645183300" lon="2.515270600">
        <ele>234.20</ele>
        <time>2013-03-23T17:20:51Z</time>
      </trkpt>
      <trkpt lat="41.645432700" lon="2.515434400">
        <ele>229.90</ele>
        <time>2013-03-23T17:20:56Z</time>
      </trkpt>
      <trkpt lat="41.645543300" lon="2.515346800">
        <ele>230.40</ele>
        <time>2013-03-23T17:21:00Z</time>
      </trkpt>
      <trkpt lat="41.645800100" lon="2.515023300">
        <ele>229.40</ele>
        <time>2013-03-23T17:21:06Z</time>
      </trkpt>
      <trkpt lat="41.645905600" lon="2.514756300">
        <ele>229.40</ele>
        <time>2013-03-23T17:21:12Z</time>
      </trkpt>
      <trkpt lat="41.646073000" lon="2.514438400">
        <ele>228.90</ele>
        <time>2013-03-23T17:21:19Z</time>
      </trkpt>
      <trkpt lat="41.646199000" lon="2.514274500">
        <ele>228.90</ele>
        <time>2013-03-23T17:21:26Z</time>
      </trkpt>
      <trkpt lat="41.646245800" lon="2.514142400">
        <ele>228.90</ele>
        <time>2013-03-23T17:21:29Z</time>
      </trkpt>
      <trkpt lat="41.646296300" lon="2.513911400">
        <ele>228.90</ele>
        <time>2013-03-23T17:21:34Z</time>
      </trkpt>
      <trkpt lat="41.646384600" lon="2.513716700">
        <ele>227.50</ele>
        <time>2013-03-23T17:21:38Z</time>
      </trkpt>
      <trkpt lat="41.646400700" lon="2.513596800">
        <ele>227.50</ele>
        <time>2013-03-23T17:21:40Z</time>
      </trkpt>
      <trkpt lat="41.646425600" lon="2.513473600">
        <ele>227.00</ele>
        <time>2013-03-23T17:21:41Z</time>
      </trkpt>
      <trkpt lat="41.646526500" lon="2.513245200">
        <ele>226.50</ele>
        <time>2013-03-23T17:21:45Z</time>
      </trkpt>
      <trkpt lat="41.646651200" lon="2.513076800">
        <ele>226.50</ele>
        <time>2013-03-23T17:21:50Z</time>
      </trkpt>
      <trkpt lat="41.646828900" lon="2.512934400">
        <ele>226.50</ele>
        <time>2013-03-23T17:21:55Z</time>
      </trkpt>
      <trkpt lat="41.646847500" lon="2.512826800">
        <ele>226.50</ele>
        <time>2013-03-23T17:21:59Z</time>
      </trkpt>
      <trkpt lat="41.646855300" lon="2.512634000">
        <ele>226.10</ele>
        <time>2013-03-23T17:22:02Z</time>
      </trkpt>
      <trkpt lat="41.646800600" lon="2.512042300">
        <ele>224.10</ele>
        <time>2013-03-23T17:22:11Z</time>
      </trkpt>
      <trkpt lat="41.646851200" lon="2.511385900">
        <ele>223.60</ele>
        <time>2013-03-23T17:22:18Z</time>
      </trkpt>
      <trkpt lat="41.646921700" lon="2.510625300">
        <ele>222.70</ele>
        <time>2013-03-23T17:22:30Z</time>
      </trkpt>
      <trkpt lat="41.646930000" lon="2.510555600">
        <ele>222.70</ele>
        <time>2013-03-23T17:22:30Z</time>
      </trkpt>
      <trkpt lat="41.647059500" lon="2.510225800">
        <ele>222.70</ele>
        <time>2013-03-23T17:22:37Z</time>
      </trkpt>
      <trkpt lat="41.647268200" lon="2.509768100">
        <ele>222.70</ele>
        <time>2013-03-23T17:22:48Z</time>
      </trkpt>
      <trkpt lat="41.647291200" lon="2.509705100">
        <ele>222.70</ele>
        <time>2013-03-23T17:22:49Z</time>
      </trkpt>
      <trkpt lat="41.647375000" lon="2.509742800">
        <ele>222.70</ele>
        <time>2013-03-23T17:22:54Z</time>
      </trkpt>
      <trkpt lat="41.647525600" lon="2.509899300">
        <ele>222.70</ele>
        <time>2013-03-23T17:23:03Z</time>
      </trkpt>
      <trkpt lat="41.647646000" lon="2.510037400">
        <ele>222.70</ele>
        <time>2013-03-23T17:23:10Z</time>
      </trkpt>
      <trkpt lat="41.647750800" lon="2.510124700">
        <ele>223.60</ele>
        <time>2013-03-23T17:23:14Z</time>
      </trkpt>
      <trkpt lat="41.647893900" lon="2.510271000">
        <ele>224.60</ele>
        <time>2013-03-23T17:23:22Z</time>
      </trkpt>
      <trkpt lat="41.648171400" lon="2.510504400">
        <ele>225.60</ele>
        <time>2013-03-23T17:23:38Z</time>
      </trkpt>
      <trkpt lat="41.648508600" lon="2.510753600">
        <ele>225.60</ele>
        <time>2013-03-23T17:23:52Z</time>
      </trkpt>
      <trkpt lat="41.648664900" lon="2.510798100">
        <ele>225.60</ele>
        <time>2013-03-23T17:23:55Z</time>
      </trkpt>
      <trkpt lat="41.648823200" lon="2.510767500">
        <ele>224.10</ele>
        <time>2013-03-23T17:23:59Z</time>
      </trkpt>
      <trkpt lat="41.648950600" lon="2.510629200">
        <ele>224.10</ele>
        <time>2013-03-23T17:24:01Z</time>
      </trkpt>
      <trkpt lat="41.649135300" lon="2.510477000">
        <ele>224.10</ele>
        <time>2013-03-23T17:24:08Z</time>
      </trkpt>
      <trkpt lat="41.649332500" lon="2.510560600">
        <ele>224.10</ele>
        <time>2013-03-23T17:24:15Z</time>
      </trkpt>
      <trkpt lat="41.649432800" lon="2.510600100">
        <ele>226.10</ele>
        <time>2013-03-23T17:24:18Z</time>
      </trkpt>
      <trkpt lat="41.649657900" lon="2.510711000">
        <ele>227.00</ele>
        <time>2013-03-23T17:24:29Z</time>
      </trkpt>
      <trkpt lat="41.649827500" lon="2.510788700">
        <ele>228.90</ele>
        <time>2013-03-23T17:24:37Z</time>
      </trkpt>
      <trkpt lat="41.649991800" lon="2.510832300">
        <ele>230.40</ele>
        <time>2013-03-23T17:24:44Z</time>
      </trkpt>
      <trkpt lat="41.650158900" lon="2.510875600">
        <ele>231.80</ele>
        <time>2013-03-23T17:24:53Z</time>
      </trkpt>
      <trkpt lat="41.650388400" lon="2.510977900">
        <ele>232.80</ele>
        <time>2013-03-23T17:25:05Z</time>
      </trkpt>
      <trkpt lat="41.650531200" lon="2.511133700">
        <ele>233.70</ele>
        <time>2013-03-23T17:25:14Z</time>
      </trkpt>
      <trkpt lat="41.650673100" lon="2.511250800">
        <ele>235.20</ele>
        <time>2013-03-23T17:25:23Z</time>
      </trkpt>
      <trkpt lat="41.650853300" lon="2.511275100">
        <ele>235.70</ele>
        <time>2013-03-23T17:25:31Z</time>
      </trkpt>
      <trkpt lat="41.651078300" lon="2.511186300">
        <ele>237.10</ele>
        <time>2013-03-23T17:25:42Z</time>
      </trkpt>
      <trkpt lat="41.651218100" lon="2.511037100">
        <ele>238.10</ele>
        <time>2013-03-23T17:25:50Z</time>
      </trkpt>
      <trkpt lat="41.651345500" lon="2.510963200">
        <ele>239.00</ele>
        <time>2013-03-23T17:25:57Z</time>
      </trkpt>
      <trkpt lat="41.651508500" lon="2.511052600">
        <ele>240.00</ele>
        <time>2013-03-23T17:26:06Z</time>
      </trkpt>
      <trkpt lat="41.651728900" lon="2.511127100">
        <ele>241.40</ele>
        <time>2013-03-23T17:26:15Z</time>
      </trkpt>
      <trkpt lat="41.651971200" lon="2.511128100">
        <ele>242.40</ele>
        <time>2013-03-23T17:26:25Z</time>
      </trkpt>
      <trkpt lat="41.652158500" lon="2.511227500">
        <ele>242.90</ele>
        <time>2013-03-23T17:26:32Z</time>
      </trkpt>
      <trkpt lat="41.652368000" lon="2.511264400">
        <ele>244.30</ele>
        <time>2013-03-23T17:26:41Z</time>
      </trkpt>
      <trkpt lat="41.652541300" lon="2.511263100">
        <ele>245.80</ele>
        <time>2013-03-23T17:26:50Z</time>
      </trkpt>
      <trkpt lat="41.652656600" lon="2.511311800">
        <ele>247.70</ele>
        <time>2013-03-23T17:26:58Z</time>
      </trkpt>
      <trkpt lat="41.652845900" lon="2.511385700">
        <ele>250.10</ele>
        <time>2013-03-23T17:27:11Z</time>
      </trkpt>
      <trkpt lat="41.652975600" lon="2.511440300">
        <ele>252.00</ele>
        <time>2013-03-23T17:27:19Z</time>
      </trkpt>
      <trkpt lat="41.653122100" lon="2.511450800">
        <ele>253.90</ele>
        <time>2013-03-23T17:27:28Z</time>
      </trkpt>
      <trkpt lat="41.653280600" lon="2.511392200">
        <ele>254.90</ele>
        <time>2013-03-23T17:27:37Z</time>
      </trkpt>
      <trkpt lat="41.653417200" lon="2.511298300">
        <ele>256.80</ele>
        <time>2013-03-23T17:27:47Z</time>
      </trkpt>
      <trkpt lat="41.653542800" lon="2.511150800">
        <ele>258.20</ele>
        <time>2013-03-23T17:27:56Z</time>
      </trkpt>
      <trkpt lat="41.653636600" lon="2.511014800">
        <ele>259.20</ele>
        <time>2013-03-23T17:28:06Z</time>
      </trkpt>
      <trkpt lat="41.653746700" lon="2.510891400">
        <ele>261.10</ele>
        <time>2013-03-23T17:28:15Z</time>
      </trkpt>
      <trkpt lat="41.653864400" lon="2.510756200">
        <ele>262.10</ele>
        <time>2013-03-23T17:28:25Z</time>
      </trkpt>
      <trkpt lat="41.653943400" lon="2.510650400">
        <ele>264.00</ele>
        <time>2013-03-23T17:28:32Z</time>
      </trkpt>
      <trkpt lat="41.654042700" lon="2.510508300">
        <ele>265.50</ele>
        <time>2013-03-23T17:28:41Z</time>
      </trkpt>
      <trkpt lat="41.654081800" lon="2.510424100">
        <ele>265.90</ele>
        <time>2013-03-23T17:28:46Z</time>
      </trkpt>
      <trkpt lat="41.654135600" lon="2.510272400">
        <ele>267.40</ele>
        <time>2013-03-23T17:28:55Z</time>
      </trkpt>
      <trkpt lat="41.654187400" lon="2.510081200">
        <ele>267.90</ele>
        <time>2013-03-23T17:29:04Z</time>
      </trkpt>
      <trkpt lat="41.654225600" lon="2.509923000">
        <ele>269.30</ele>
        <time>2013-03-23T17:29:11Z</time>
      </trkpt>
      <trkpt lat="41.654274300" lon="2.509812600">
        <ele>269.80</ele>
        <time>2013-03-23T17:29:16Z</time>
      </trkpt>
      <trkpt lat="41.654410400" lon="2.509786900">
        <ele>269.80</ele>
        <time>2013-03-23T17:29:23Z</time>
      </trkpt>
      <trkpt lat="41.654558300" lon="2.509853100">
        <ele>270.30</ele>
        <time>2013-03-23T17:29:32Z</time>
      </trkpt>
      <trkpt lat="41.654709400" lon="2.509847500">
        <ele>270.80</ele>
        <time>2013-03-23T17:29:40Z</time>
      </trkpt>
      <trkpt lat="41.654763600" lon="2.509815000">
        <ele>270.80</ele>
        <time>2013-03-23T17:29:42Z</time>
      </trkpt>
      <trkpt lat="41.654903600" lon="2.509670800">
        <ele>271.20</ele>
        <time>2013-03-23T17:29:51Z</time>
      </trkpt>
      <trkpt lat="41.655047000" lon="2.509649700">
        <ele>272.20</ele>
        <time>2013-03-23T17:29:56Z</time>
      </trkpt>
      <trkpt lat="41.655239900" lon="2.509612400">
        <ele>273.10</ele>
        <time>2013-03-23T17:30:05Z</time>
      </trkpt>
      <trkpt lat="41.655366600" lon="2.509447800">
        <ele>273.10</ele>
        <time>2013-03-23T17:30:12Z</time>
      </trkpt>
      <trkpt lat="41.655411800" lon="2.509190800">
        <ele>274.10</ele>
        <time>2013-03-23T17:30:19Z</time>
      </trkpt>
      <trkpt lat="41.655476000" lon="2.508961100">
        <ele>275.60</ele>
        <time>2013-03-23T17:30:29Z</time>
      </trkpt>
      <trkpt lat="41.655621400" lon="2.508955300">
        <ele>276.50</ele>
        <time>2013-03-23T17:30:36Z</time>
      </trkpt>
      <trkpt lat="41.655768700" lon="2.508931700">
        <ele>278.00</ele>
        <time>2013-03-23T17:30:45Z</time>
      </trkpt>
      <trkpt lat="41.655922100" lon="2.508909600">
        <ele>279.90</ele>
        <time>2013-03-23T17:30:52Z</time>
      </trkpt>
      <trkpt lat="41.656087000" lon="2.508891700">
        <ele>281.30</ele>
        <time>2013-03-23T17:31:02Z</time>
      </trkpt>
      <trkpt lat="41.656183300" lon="2.509050800">
        <ele>283.20</ele>
        <time>2013-03-23T17:31:11Z</time>
      </trkpt>
      <trkpt lat="41.656246800" lon="2.509204700">
        <ele>285.20</ele>
        <time>2013-03-23T17:31:18Z</time>
      </trkpt>
      <trkpt lat="41.656356300" lon="2.509252900">
        <ele>285.60</ele>
        <time>2013-03-23T17:31:25Z</time>
      </trkpt>
      <trkpt lat="41.656491800" lon="2.509257000">
        <ele>287.10</ele>
        <time>2013-03-23T17:31:35Z</time>
      </trkpt>
      <trkpt lat="41.656590300" lon="2.509272000">
        <ele>288.00</ele>
        <time>2013-03-23T17:31:42Z</time>
      </trkpt>
      <trkpt lat="41.656661700" lon="2.509270300">
        <ele>289.00</ele>
        <time>2013-03-23T17:31:46Z</time>
      </trkpt>
      <trkpt lat="41.656701100" lon="2.509248700">
        <ele>290.00</ele>
        <time>2013-03-23T17:31:49Z</time>
      </trkpt>
      <trkpt lat="41.656733100" lon="2.509170200">
        <ele>290.90</ele>
        <time>2013-03-23T17:31:54Z</time>
      </trkpt>
      <trkpt lat="41.656698000" lon="2.508984200">
        <ele>292.40</ele>
        <time>2013-03-23T17:32:05Z</time>
      </trkpt>
      <trkpt lat="41.656693300" lon="2.508948700">
        <ele>292.90</ele>
        <time>2013-03-23T17:32:07Z</time>
      </trkpt>
      <trkpt lat="41.656694900" lon="2.508816600">
        <ele>294.80</ele>
        <time>2013-03-23T17:32:14Z</time>
      </trkpt>
      <trkpt lat="41.656702200" lon="2.508658300">
        <ele>295.30</ele>
        <time>2013-03-23T17:32:22Z</time>
      </trkpt>
      <trkpt lat="41.656712700" lon="2.508551900">
        <ele>295.70</ele>
        <time>2013-03-23T17:32:26Z</time>
      </trkpt>
      <trkpt lat="41.656728000" lon="2.508357300">
        <ele>297.20</ele>
        <time>2013-03-23T17:32:36Z</time>
      </trkpt>
      <trkpt lat="41.656714600" lon="2.508256400">
        <ele>297.70</ele>
        <time>2013-03-23T17:32:43Z</time>
      </trkpt>
      <trkpt lat="41.656721500" lon="2.508206500">
        <ele>298.10</ele>
        <time>2013-03-23T17:32:45Z</time>
      </trkpt>
      <trkpt lat="41.656692200" lon="2.508070300">
        <ele>298.60</ele>
        <time>2013-03-23T17:32:52Z</time>
      </trkpt>
      <trkpt lat="41.656630700" lon="2.507870300">
        <ele>300.50</ele>
        <time>2013-03-23T17:33:01Z</time>
      </trkpt>
      <trkpt lat="41.656580200" lon="2.507756800">
        <ele>301.50</ele>
        <time>2013-03-23T17:33:09Z</time>
      </trkpt>
      <trkpt lat="41.656490900" lon="2.507664300">
        <ele>302.00</ele>
        <time>2013-03-23T17:33:16Z</time>
      </trkpt>
      <trkpt lat="41.656388400" lon="2.507570300">
        <ele>303.00</ele>
        <time>2013-03-23T17:33:23Z</time>
      </trkpt>
      <trkpt lat="41.656257700" lon="2.507549400">
        <ele>303.40</ele>
        <time>2013-03-23T17:33:32Z</time>
      </trkpt>
      <trkpt lat="41.656125900" lon="2.507619600">
        <ele>303.90</ele>
        <time>2013-03-23T17:33:39Z</time>
      </trkpt>
      <trkpt lat="41.656090300" lon="2.507670900">
        <ele>304.40</ele>
        <time>2013-03-23T17:33:42Z</time>
      </trkpt>
      <trkpt lat="41.656018300" lon="2.507892100">
        <ele>305.40</ele>
        <time>2013-03-23T17:33:53Z</time>
      </trkpt>
      <trkpt lat="41.655848700" lon="2.507991500">
        <ele>306.30</ele>
        <time>2013-03-23T17:34:02Z</time>
      </trkpt>
      <trkpt lat="41.655714300" lon="2.507940600">
        <ele>306.80</ele>
        <time>2013-03-23T17:34:10Z</time>
      </trkpt>
      <trkpt lat="41.655610500" lon="2.507835600">
        <ele>307.80</ele>
        <time>2013-03-23T17:34:17Z</time>
      </trkpt>
      <trkpt lat="41.655577900" lon="2.507645700">
        <ele>308.20</ele>
        <time>2013-03-23T17:34:26Z</time>
      </trkpt>
      <trkpt lat="41.655480200" lon="2.507422200">
        <ele>308.70</ele>
        <time>2013-03-23T17:34:35Z</time>
      </trkpt>
      <trkpt lat="41.655353300" lon="2.507299200">
        <ele>310.20</ele>
        <time>2013-03-23T17:34:45Z</time>
      </trkpt>
      <trkpt lat="41.655300400" lon="2.507292500">
        <ele>310.20</ele>
        <time>2013-03-23T17:34:47Z</time>
      </trkpt>
      <trkpt lat="41.655145600" lon="2.507360500">
        <ele>311.10</ele>
        <time>2013-03-23T17:34:57Z</time>
      </trkpt>
      <trkpt lat="41.655016700" lon="2.507432000">
        <ele>311.60</ele>
        <time>2013-03-23T17:35:04Z</time>
      </trkpt>
      <trkpt lat="41.654902000" lon="2.507490500">
        <ele>313.00</ele>
        <time>2013-03-23T17:35:13Z</time>
      </trkpt>
      <trkpt lat="41.654743900" lon="2.507492400">
        <ele>313.50</ele>
        <time>2013-03-23T17:35:20Z</time>
      </trkpt>
      <trkpt lat="41.654598300" lon="2.507456000">
        <ele>310.20</ele>
        <time>2013-03-23T17:35:24Z</time>
      </trkpt>
      <trkpt lat="41.654539500" lon="2.507439100">
        <ele>309.20</ele>
        <time>2013-03-23T17:35:25Z</time>
      </trkpt>
      <trkpt lat="41.654515100" lon="2.507426900">
        <ele>308.20</ele>
        <time>2013-03-23T17:35:27Z</time>
      </trkpt>
      <trkpt lat="41.654526900" lon="2.507281200">
        <ele>308.20</ele>
        <time>2013-03-23T17:35:34Z</time>
      </trkpt>
      <trkpt lat="41.654582500" lon="2.507123200">
        <ele>308.20</ele>
        <time>2013-03-23T17:35:41Z</time>
      </trkpt>
      <trkpt lat="41.654607900" lon="2.507042300">
        <ele>309.70</ele>
        <time>2013-03-23T17:35:43Z</time>
      </trkpt>
      <trkpt lat="41.654730700" lon="2.506708100">
        <ele>310.20</ele>
        <time>2013-03-23T17:35:55Z</time>
      </trkpt>
      <trkpt lat="41.654818700" lon="2.506504800">
        <ele>310.60</ele>
        <time>2013-03-23T17:36:02Z</time>
      </trkpt>
      <trkpt lat="41.654834800" lon="2.506499600">
        <ele>311.10</ele>
        <time>2013-03-23T17:36:04Z</time>
      </trkpt>
      <trkpt lat="41.654952300" lon="2.506557700">
        <ele>311.10</ele>
        <time>2013-03-23T17:36:09Z</time>
      </trkpt>
      <trkpt lat="41.655115100" lon="2.506629200">
        <ele>311.10</ele>
        <time>2013-03-23T17:36:14Z</time>
      </trkpt>
      <trkpt lat="41.655322100" lon="2.506690200">
        <ele>309.70</ele>
        <time>2013-03-23T17:36:17Z</time>
      </trkpt>
      <trkpt lat="41.655640800" lon="2.506708900">
        <ele>306.80</ele>
        <time>2013-03-23T17:36:21Z</time>
      </trkpt>
      <trkpt lat="41.656019700" lon="2.506653900">
        <ele>304.40</ele>
        <time>2013-03-23T17:36:26Z</time>
      </trkpt>
      <trkpt lat="41.656406400" lon="2.506420900">
        <ele>305.80</ele>
        <time>2013-03-23T17:36:31Z</time>
      </trkpt>
      <trkpt lat="41.656449400" lon="2.506384400">
        <ele>305.80</ele>
        <time>2013-03-23T17:36:33Z</time>
      </trkpt>
      <trkpt lat="41.656596900" lon="2.506243800">
        <ele>307.30</ele>
        <time>2013-03-23T17:36:37Z</time>
      </trkpt>
      <trkpt lat="41.656743100" lon="2.506080600">
        <ele>309.70</ele>
        <time>2013-03-23T17:36:45Z</time>
      </trkpt>
      <trkpt lat="41.656775400" lon="2.506046800">
        <ele>310.20</ele>
        <time>2013-03-23T17:36:47Z</time>
      </trkpt>
      <trkpt lat="41.656825300" lon="2.505953200">
        <ele>311.10</ele>
        <time>2013-03-23T17:36:52Z</time>
      </trkpt>
      <trkpt lat="41.656929500" lon="2.505676700">
        <ele>313.00</ele>
        <time>2013-03-23T17:37:01Z</time>
      </trkpt>
      <trkpt lat="41.657007800" lon="2.505447100">
        <ele>314.00</ele>
        <time>2013-03-23T17:37:10Z</time>
      </trkpt>
      <trkpt lat="41.657066900" lon="2.505271400">
        <ele>315.00</ele>
        <time>2013-03-23T17:37:17Z</time>
      </trkpt>
      <trkpt lat="41.657208500" lon="2.505118600">
        <ele>315.90</ele>
        <time>2013-03-23T17:37:24Z</time>
      </trkpt>
      <trkpt lat="41.657383700" lon="2.504943600">
        <ele>316.40</ele>
        <time>2013-03-23T17:37:34Z</time>
      </trkpt>
      <trkpt lat="41.657557700" lon="2.504868200">
        <ele>316.90</ele>
        <time>2013-03-23T17:37:41Z</time>
      </trkpt>
      <trkpt lat="41.657818000" lon="2.504864900">
        <ele>317.90</ele>
        <time>2013-03-23T17:37:50Z</time>
      </trkpt>
      <trkpt lat="41.658027000" lon="2.504913700">
        <ele>318.30</ele>
        <time>2013-03-23T17:37:59Z</time>
      </trkpt>
      <trkpt lat="41.658276400" lon="2.504944400">
        <ele>319.30</ele>
        <time>2013-03-23T17:38:07Z</time>
      </trkpt>
      <trkpt lat="41.658435400" lon="2.505094200">
        <ele>321.20</ele>
        <time>2013-03-23T17:38:16Z</time>
      </trkpt>
      <trkpt lat="41.658599100" lon="2.505275100">
        <ele>321.20</ele>
        <time>2013-03-23T17:38:23Z</time>
      </trkpt>
      <trkpt lat="41.658830600" lon="2.505482400">
        <ele>321.20</ele>
        <time>2013-03-23T17:38:30Z</time>
      </trkpt>
      <trkpt lat="41.658901000" lon="2.505545800">
        <ele>319.80</ele>
        <time>2013-03-23T17:38:32Z</time>
      </trkpt>
      <trkpt lat="41.659151700" lon="2.505670000">
        <ele>319.30</ele>
        <time>2013-03-23T17:38:39Z</time>
      </trkpt>
      <trkpt lat="41.659361000" lon="2.505638200">
        <ele>319.30</ele>
        <time>2013-03-23T17:38:44Z</time>
      </trkpt>
      <trkpt lat="41.659412700" lon="2.505582800">
        <ele>319.30</ele>
        <time>2013-03-23T17:38:47Z</time>
      </trkpt>
      <trkpt lat="41.659465600" lon="2.505453900">
        <ele>318.80</ele>
        <time>2013-03-23T17:38:49Z</time>
      </trkpt>
      <trkpt lat="41.659523000" lon="2.505354200">
        <ele>318.30</ele>
        <time>2013-03-23T17:38:51Z</time>
      </trkpt>
      <trkpt lat="41.659715900" lon="2.505169700">
        <ele>316.90</ele>
        <time>2013-03-23T17:38:58Z</time>
      </trkpt>
      <trkpt lat="41.659887000" lon="2.505164600">
        <ele>316.40</ele>
        <time>2013-03-23T17:39:03Z</time>
      </trkpt>
      <trkpt lat="41.660184100" lon="2.505166700">
        <ele>315.90</ele>
        <time>2013-03-23T17:39:12Z</time>
      </trkpt>
      <trkpt lat="41.660494100" lon="2.505095900">
        <ele>315.50</ele>
        <time>2013-03-23T17:39:19Z</time>
      </trkpt>
      <trkpt lat="41.660739900" lon="2.505105700">
        <ele>315.50</ele>
        <time>2013-03-23T17:39:26Z</time>
      </trkpt>
      <trkpt lat="41.661003200" lon="2.505182600">
        <ele>315.00</ele>
        <time>2013-03-23T17:39:33Z</time>
      </trkpt>
      <trkpt lat="41.661246900" lon="2.505163800">
        <ele>315.00</ele>
        <time>2013-03-23T17:39:40Z</time>
      </trkpt>
      <trkpt lat="41.661337900" lon="2.505161500">
        <ele>315.00</ele>
        <time>2013-03-23T17:39:43Z</time>
      </trkpt>
      <trkpt lat="41.661410600" lon="2.505025500">
        <ele>316.40</ele>
        <time>2013-03-23T17:39:48Z</time>
      </trkpt>
      <trkpt lat="41.661407800" lon="2.504996100">
        <ele>316.40</ele>
        <time>2013-03-23T17:39:48Z</time>
      </trkpt>
      <trkpt lat="41.661403500" lon="2.504889600">
        <ele>316.40</ele>
        <time>2013-03-23T17:39:52Z</time>
      </trkpt>
      <trkpt lat="41.661393100" lon="2.504791300">
        <ele>316.40</ele>
        <time>2013-03-23T17:39:54Z</time>
      </trkpt>
      <trkpt lat="41.661342000" lon="2.504566000">
        <ele>315.00</ele>
        <time>2013-03-23T17:39:57Z</time>
      </trkpt>
      <trkpt lat="41.661276600" lon="2.504293400">
        <ele>313.50</ele>
        <time>2013-03-23T17:40:02Z</time>
      </trkpt>
      <trkpt lat="41.661259600" lon="2.503825900">
        <ele>312.60</ele>
        <time>2013-03-23T17:40:07Z</time>
      </trkpt>
      <trkpt lat="41.661275800" lon="2.503611800">
        <ele>311.60</ele>
        <time>2013-03-23T17:40:11Z</time>
      </trkpt>
      <trkpt lat="41.661349500" lon="2.503391800">
        <ele>311.10</ele>
        <time>2013-03-23T17:40:16Z</time>
      </trkpt>
      <trkpt lat="41.661574600" lon="2.503158600">
        <ele>309.70</ele>
        <time>2013-03-23T17:40:23Z</time>
      </trkpt>
      <trkpt lat="41.661907100" lon="2.502951900">
        <ele>306.30</ele>
        <time>2013-03-23T17:40:30Z</time>
      </trkpt>
      <trkpt lat="41.661956900" lon="2.502915300">
        <ele>305.80</ele>
        <time>2013-03-23T17:40:30Z</time>
      </trkpt>
      <trkpt lat="41.662227300" lon="2.502625000">
        <ele>303.00</ele>
        <time>2013-03-23T17:40:37Z</time>
      </trkpt>
      <trkpt lat="41.662517300" lon="2.502309000">
        <ele>301.00</ele>
        <time>2013-03-23T17:40:42Z</time>
      </trkpt>
      <trkpt lat="41.662810100" lon="2.502075200">
        <ele>299.60</ele>
        <time>2013-03-23T17:40:49Z</time>
      </trkpt>
      <trkpt lat="41.663132000" lon="2.501791300">
        <ele>298.60</ele>
        <time>2013-03-23T17:40:58Z</time>
      </trkpt>
      <trkpt lat="41.663313500" lon="2.501734400">
        <ele>300.10</ele>
        <time>2013-03-23T17:41:03Z</time>
      </trkpt>
      <trkpt lat="41.663338700" lon="2.501736700">
        <ele>300.10</ele>
        <time>2013-03-23T17:41:05Z</time>
      </trkpt>
      <trkpt lat="41.663490400" lon="2.501725300">
        <ele>302.00</ele>
        <time>2013-03-23T17:41:12Z</time>
      </trkpt>
      <trkpt lat="41.663585800" lon="2.501557500">
        <ele>302.50</ele>
        <time>2013-03-23T17:41:17Z</time>
      </trkpt>
      <trkpt lat="41.663618000" lon="2.501454500">
        <ele>301.00</ele>
        <time>2013-03-23T17:41:22Z</time>
      </trkpt>
      <trkpt lat="41.663650800" lon="2.501276200">
        <ele>300.50</ele>
        <time>2013-03-23T17:41:28Z</time>
      </trkpt>
      <trkpt lat="41.663697800" lon="2.500893800">
        <ele>300.10</ele>
        <time>2013-03-23T17:41:36Z</time>
      </trkpt>
      <trkpt lat="41.663821400" lon="2.500687800">
        <ele>300.10</ele>
        <time>2013-03-23T17:41:43Z</time>
      </trkpt>
      <trkpt lat="41.663899800" lon="2.500520900">
        <ele>301.50</ele>
        <time>2013-03-23T17:41:50Z</time>
      </trkpt>
      <trkpt lat="41.663933900" lon="2.500406200">
        <ele>301.50</ele>
        <time>2013-03-23T17:41:52Z</time>
      </trkpt>
      <trkpt lat="41.664085400" lon="2.500269000">
        <ele>299.60</ele>
        <time>2013-03-23T17:41:57Z</time>
      </trkpt>
      <trkpt lat="41.664204700" lon="2.500311100">
        <ele>297.70</ele>
        <time>2013-03-23T17:42:01Z</time>
      </trkpt>
      <trkpt lat="41.664414200" lon="2.500423300">
        <ele>293.30</ele>
        <time>2013-03-23T17:42:06Z</time>
      </trkpt>
      <trkpt lat="41.664543300" lon="2.500516500">
        <ele>290.00</ele>
        <time>2013-03-23T17:42:11Z</time>
      </trkpt>
      <trkpt lat="41.664626700" lon="2.500581200">
        <ele>287.10</ele>
        <time>2013-03-23T17:42:13Z</time>
      </trkpt>
      <trkpt lat="41.664702800" lon="2.500638000">
        <ele>284.70</ele>
        <time>2013-03-23T17:42:16Z</time>
      </trkpt>
      <trkpt lat="41.664748300" lon="2.500758000">
        <ele>283.70</ele>
        <time>2013-03-23T17:42:20Z</time>
      </trkpt>
      <trkpt lat="41.664753200" lon="2.500950400">
        <ele>279.40</ele>
        <time>2013-03-23T17:42:25Z</time>
      </trkpt>
      <trkpt lat="41.664758800" lon="2.501131400">
        <ele>275.60</ele>
        <time>2013-03-23T17:42:32Z</time>
      </trkpt>
      <trkpt lat="41.664750500" lon="2.501138400">
        <ele>275.60</ele>
        <time>2013-03-23T17:42:36Z</time>
      </trkpt>
      <trkpt lat="41.664747000" lon="2.501225500">
        <ele>274.60</ele>
        <time>2013-03-23T17:42:41Z</time>
      </trkpt>
      <trkpt lat="41.664743500" lon="2.501457200">
        <ele>271.70</ele>
        <time>2013-03-23T17:42:46Z</time>
      </trkpt>
      <trkpt lat="41.664757700" lon="2.501549500">
        <ele>270.80</ele>
        <time>2013-03-23T17:42:48Z</time>
      </trkpt>
      <trkpt lat="41.664874500" lon="2.501747700">
        <ele>268.40</ele>
        <time>2013-03-23T17:42:55Z</time>
      </trkpt>
      <trkpt lat="41.664912000" lon="2.501815200">
        <ele>267.90</ele>
        <time>2013-03-23T17:42:58Z</time>
      </trkpt>
      <trkpt lat="41.665007100" lon="2.502078200">
        <ele>265.00</ele>
        <time>2013-03-23T17:43:03Z</time>
      </trkpt>
      <trkpt lat="41.664985600" lon="2.502273700">
        <ele>264.00</ele>
        <time>2013-03-23T17:43:09Z</time>
      </trkpt>
      <trkpt lat="41.664984000" lon="2.502356900">
        <ele>263.50</ele>
        <time>2013-03-23T17:43:10Z</time>
      </trkpt>
      <trkpt lat="41.665082600" lon="2.502391500">
        <ele>263.10</ele>
        <time>2013-03-23T17:43:16Z</time>
      </trkpt>
      <trkpt lat="41.665269300" lon="2.502300600">
        <ele>262.60</ele>
        <time>2013-03-23T17:43:24Z</time>
      </trkpt>
      <trkpt lat="41.665443200" lon="2.502093600">
        <ele>262.60</ele>
        <time>2013-03-23T17:43:31Z</time>
      </trkpt>
      <trkpt lat="41.665625400" lon="2.501762000">
        <ele>262.60</ele>
        <time>2013-03-23T17:43:38Z</time>
      </trkpt>
      <trkpt lat="41.665822400" lon="2.501455600">
        <ele>262.10</ele>
        <time>2013-03-23T17:43:47Z</time>
      </trkpt>
      <trkpt lat="41.665926100" lon="2.501173500">
        <ele>261.60</ele>
        <time>2013-03-23T17:43:52Z</time>
      </trkpt>
      <trkpt lat="41.666020400" lon="2.500796400">
        <ele>260.60</ele>
        <time>2013-03-23T17:43:59Z</time>
      </trkpt>
      <trkpt lat="41.666067600" lon="2.500625600">
        <ele>260.60</ele>
        <time>2013-03-23T17:44:06Z</time>
      </trkpt>
      <trkpt lat="41.666074800" lon="2.500590000">
        <ele>262.10</ele>
        <time>2013-03-23T17:44:08Z</time>
      </trkpt>
      <trkpt lat="41.666044400" lon="2.500480700">
        <ele>263.10</ele>
        <time>2013-03-23T17:44:13Z</time>
      </trkpt>
      <trkpt lat="41.665952800" lon="2.500420700">
        <ele>266.40</ele>
        <time>2013-03-23T17:44:22Z</time>
      </trkpt>
      <trkpt lat="41.665884400" lon="2.500324400">
        <ele>267.90</ele>
        <time>2013-03-23T17:44:29Z</time>
      </trkpt>
      <trkpt lat="41.665851500" lon="2.500238800">
        <ele>268.80</ele>
        <time>2013-03-23T17:44:34Z</time>
      </trkpt>
      <trkpt lat="41.665772900" lon="2.500117800">
        <ele>269.80</ele>
        <time>2013-03-23T17:44:41Z</time>
      </trkpt>
      <trkpt lat="41.665645000" lon="2.499955000">
        <ele>270.80</ele>
        <time>2013-03-23T17:44:51Z</time>
      </trkpt>
      <trkpt lat="41.665577800" lon="2.499859200">
        <ele>271.70</ele>
        <time>2013-03-23T17:44:58Z</time>
      </trkpt>
      <trkpt lat="41.665557000" lon="2.499805900">
        <ele>272.20</ele>
        <time>2013-03-23T17:45:00Z</time>
      </trkpt>
      <trkpt lat="41.665526400" lon="2.499741600">
        <ele>273.10</ele>
        <time>2013-03-23T17:45:05Z</time>
      </trkpt>
      <trkpt lat="41.665433800" lon="2.499591800">
        <ele>274.10</ele>
        <time>2013-03-23T17:45:14Z</time>
      </trkpt>
      <trkpt lat="41.665349600" lon="2.499433000">
        <ele>275.60</ele>
        <time>2013-03-23T17:45:23Z</time>
      </trkpt>
      <trkpt lat="41.665288900" lon="2.499298100">
        <ele>276.00</ele>
        <time>2013-03-23T17:45:30Z</time>
      </trkpt>
      <trkpt lat="41.665219800" lon="2.499084800">
        <ele>276.00</ele>
        <time>2013-03-23T17:45:37Z</time>
      </trkpt>
      <trkpt lat="41.665132500" lon="2.498873900">
        <ele>276.50</ele>
        <time>2013-03-23T17:45:45Z</time>
      </trkpt>
      <trkpt lat="41.665018900" lon="2.498707700">
        <ele>278.90</ele>
        <time>2013-03-23T17:45:54Z</time>
      </trkpt>
      <trkpt lat="41.664934200" lon="2.498606500">
        <ele>280.40</ele>
        <time>2013-03-23T17:46:01Z</time>
      </trkpt>
      <trkpt lat="41.664851800" lon="2.498503500">
        <ele>281.30</ele>
        <time>2013-03-23T17:46:10Z</time>
      </trkpt>
      <trkpt lat="41.664796600" lon="2.498325100">
        <ele>282.80</ele>
        <time>2013-03-23T17:46:18Z</time>
      </trkpt>
      <trkpt lat="41.664783600" lon="2.498168000">
        <ele>283.70</ele>
        <time>2013-03-23T17:46:25Z</time>
      </trkpt>
      <trkpt lat="41.664711200" lon="2.498012100">
        <ele>285.60</ele>
        <time>2013-03-23T17:46:34Z</time>
      </trkpt>
      <trkpt lat="41.664681200" lon="2.497962600">
        <ele>285.60</ele>
        <time>2013-03-23T17:46:38Z</time>
      </trkpt>
      <trkpt lat="41.664539700" lon="2.497861800">
        <ele>287.60</ele>
        <time>2013-03-23T17:46:48Z</time>
      </trkpt>
      <trkpt lat="41.664487600" lon="2.497846800">
        <ele>287.60</ele>
        <time>2013-03-23T17:46:53Z</time>
      </trkpt>
      <trkpt lat="41.664422000" lon="2.497820900">
        <ele>287.60</ele>
        <time>2013-03-23T17:46:57Z</time>
      </trkpt>
      <trkpt lat="41.664370200" lon="2.497741700">
        <ele>287.60</ele>
        <time>2013-03-23T17:47:00Z</time>
      </trkpt>
      <trkpt lat="41.664319400" lon="2.497436100">
        <ele>284.70</ele>
        <time>2013-03-23T17:47:05Z</time>
      </trkpt>
      <trkpt lat="41.664291600" lon="2.497123600">
        <ele>282.30</ele>
        <time>2013-03-23T17:47:09Z</time>
      </trkpt>
      <trkpt lat="41.664263200" lon="2.496862100">
        <ele>280.80</ele>
        <time>2013-03-23T17:47:12Z</time>
      </trkpt>
      <trkpt lat="41.664268200" lon="2.496489200">
        <ele>275.60</ele>
        <time>2013-03-23T17:47:16Z</time>
      </trkpt>
      <trkpt lat="41.664265500" lon="2.496315600">
        <ele>275.10</ele>
        <time>2013-03-23T17:47:18Z</time>
      </trkpt>
      <trkpt lat="41.664263100" lon="2.496231200">
        <ele>274.60</ele>
        <time>2013-03-23T17:47:19Z</time>
      </trkpt>
      <trkpt lat="41.664276300" lon="2.495916700">
        <ele>273.10</ele>
        <time>2013-03-23T17:47:23Z</time>
      </trkpt>
      <trkpt lat="41.664304200" lon="2.495777400">
        <ele>272.70</ele>
        <time>2013-03-23T17:47:25Z</time>
      </trkpt>
      <trkpt lat="41.664365100" lon="2.495505600">
        <ele>273.10</ele>
        <time>2013-03-23T17:47:32Z</time>
      </trkpt>
      <trkpt lat="41.664301000" lon="2.495345300">
        <ele>274.60</ele>
        <time>2013-03-23T17:47:37Z</time>
      </trkpt>
      <trkpt lat="41.664269700" lon="2.495225800">
        <ele>275.60</ele>
        <time>2013-03-23T17:47:42Z</time>
      </trkpt>
      <trkpt lat="41.664246100" lon="2.495075600">
        <ele>276.50</ele>
        <time>2013-03-23T17:47:47Z</time>
      </trkpt>
      <trkpt lat="41.664220200" lon="2.494786800">
        <ele>276.50</ele>
        <time>2013-03-23T17:47:56Z</time>
      </trkpt>
      <trkpt lat="41.664220200" lon="2.494645000">
        <ele>275.60</ele>
        <time>2013-03-23T17:47:58Z</time>
      </trkpt>
      <trkpt lat="41.664182200" lon="2.494402400">
        <ele>274.10</ele>
        <time>2013-03-23T17:48:03Z</time>
      </trkpt>
      <trkpt lat="41.664198000" lon="2.494351200">
        <ele>274.10</ele>
        <time>2013-03-23T17:48:05Z</time>
      </trkpt>
      <trkpt lat="41.664264700" lon="2.494084200">
        <ele>271.20</ele>
        <time>2013-03-23T17:48:10Z</time>
      </trkpt>
      <trkpt lat="41.664319900" lon="2.493908400">
        <ele>269.80</ele>
        <time>2013-03-23T17:48:12Z</time>
      </trkpt>
      <trkpt lat="41.664362700" lon="2.493653400">
        <ele>267.40</ele>
        <time>2013-03-23T17:48:17Z</time>
      </trkpt>
      <trkpt lat="41.664391500" lon="2.493511500">
        <ele>265.90</ele>
        <time>2013-03-23T17:48:19Z</time>
      </trkpt>
      <trkpt lat="41.664374100" lon="2.493198700">
        <ele>264.00</ele>
        <time>2013-03-23T17:48:22Z</time>
      </trkpt>
      <trkpt lat="41.664344900" lon="2.493056100">
        <ele>262.60</ele>
        <time>2013-03-23T17:48:24Z</time>
      </trkpt>
      <trkpt lat="41.664362900" lon="2.492704500">
        <ele>258.70</ele>
        <time>2013-03-23T17:48:29Z</time>
      </trkpt>
      <trkpt lat="41.664376500" lon="2.492547600">
        <ele>257.30</ele>
        <time>2013-03-23T17:48:31Z</time>
      </trkpt>
      <trkpt lat="41.664370100" lon="2.492414800">
        <ele>256.30</ele>
        <time>2013-03-23T17:48:34Z</time>
      </trkpt>
      <trkpt lat="41.664353900" lon="2.492194100">
        <ele>253.40</ele>
        <time>2013-03-23T17:48:38Z</time>
      </trkpt>
      <trkpt lat="41.664380000" lon="2.491945700">
        <ele>249.60</ele>
        <time>2013-03-23T17:48:43Z</time>
      </trkpt>
      <trkpt lat="41.664390300" lon="2.491786400">
        <ele>246.20</ele>
        <time>2013-03-23T17:48:47Z</time>
      </trkpt>
      <trkpt lat="41.664390600" lon="2.491679700">
        <ele>244.30</ele>
        <time>2013-03-23T17:48:50Z</time>
      </trkpt>
      <trkpt lat="41.664317800" lon="2.491554800">
        <ele>241.40</ele>
        <time>2013-03-23T17:48:53Z</time>
      </trkpt>
      <trkpt lat="41.664086500" lon="2.491449600">
        <ele>239.00</ele>
        <time>2013-03-23T17:49:00Z</time>
      </trkpt>
      <trkpt lat="41.663871200" lon="2.491369200">
        <ele>238.10</ele>
        <time>2013-03-23T17:49:06Z</time>
      </trkpt>
      <trkpt lat="41.663798900" lon="2.491358100">
        <ele>238.10</ele>
        <time>2013-03-23T17:49:09Z</time>
      </trkpt>
      <trkpt lat="41.663771900" lon="2.491241900">
        <ele>236.10</ele>
        <time>2013-03-23T17:49:13Z</time>
      </trkpt>
      <trkpt lat="41.663831100" lon="2.491232300">
        <ele>235.20</ele>
        <time>2013-03-23T17:49:14Z</time>
      </trkpt>
      <trkpt lat="41.664045500" lon="2.491255900">
        <ele>232.80</ele>
        <time>2013-03-23T17:49:20Z</time>
      </trkpt>
      <trkpt lat="41.664124000" lon="2.491250300">
        <ele>232.30</ele>
        <time>2013-03-23T17:49:21Z</time>
      </trkpt>
      <trkpt lat="41.664210900" lon="2.491111300">
        <ele>230.40</ele>
        <time>2013-03-23T17:49:25Z</time>
      </trkpt>
      <trkpt lat="41.664342200" lon="2.491015600">
        <ele>228.90</ele>
        <time>2013-03-23T17:49:30Z</time>
      </trkpt>
      <trkpt lat="41.664383700" lon="2.490994500">
        <ele>228.90</ele>
        <time>2013-03-23T17:49:30Z</time>
      </trkpt>
      <trkpt lat="41.664502200" lon="2.490907900">
        <ele>227.00</ele>
        <time>2013-03-23T17:49:34Z</time>
      </trkpt>
      <trkpt lat="41.664618900" lon="2.490814500">
        <ele>225.60</ele>
        <time>2013-03-23T17:49:37Z</time>
      </trkpt>
      <trkpt lat="41.664552100" lon="2.490723600">
        <ele>225.10</ele>
        <time>2013-03-23T17:49:41Z</time>
      </trkpt>
      <trkpt lat="41.664519200" lon="2.490616400">
        <ele>223.20</ele>
        <time>2013-03-23T17:49:46Z</time>
      </trkpt>
      <trkpt lat="41.664543800" lon="2.490612000">
        <ele>222.70</ele>
        <time>2013-03-23T17:49:46Z</time>
      </trkpt>
      <trkpt lat="41.664714500" lon="2.490728300">
        <ele>221.70</ele>
        <time>2013-03-23T17:49:53Z</time>
      </trkpt>
      <trkpt lat="41.664757400" lon="2.490897600">
        <ele>219.80</ele>
        <time>2013-03-23T17:49:58Z</time>
      </trkpt>
      <trkpt lat="41.664763900" lon="2.491122100">
        <ele>218.40</ele>
        <time>2013-03-23T17:50:03Z</time>
      </trkpt>
      <trkpt lat="41.664781800" lon="2.491284700">
        <ele>217.40</ele>
        <time>2013-03-23T17:50:07Z</time>
      </trkpt>
      <trkpt lat="41.664872400" lon="2.491328700">
        <ele>215.90</ele>
        <time>2013-03-23T17:50:10Z</time>
      </trkpt>
      <trkpt lat="41.664915700" lon="2.491243300">
        <ele>215.00</ele>
        <time>2013-03-23T17:50:14Z</time>
      </trkpt>
      <trkpt lat="41.665003400" lon="2.491035800">
        <ele>212.60</ele>
        <time>2013-03-23T17:50:21Z</time>
      </trkpt>
      <trkpt lat="41.665049200" lon="2.490802600">
        <ele>210.70</ele>
        <time>2013-03-23T17:50:26Z</time>
      </trkpt>
      <trkpt lat="41.665016200" lon="2.490597500">
        <ele>209.20</ele>
        <time>2013-03-23T17:50:31Z</time>
      </trkpt>
      <trkpt lat="41.664985300" lon="2.490460000">
        <ele>207.80</ele>
        <time>2013-03-23T17:50:35Z</time>
      </trkpt>
      <trkpt lat="41.664932500" lon="2.490265600">
        <ele>205.40</ele>
        <time>2013-03-23T17:50:40Z</time>
      </trkpt>
      <trkpt lat="41.664934900" lon="2.490192000">
        <ele>203.90</ele>
        <time>2013-03-23T17:50:43Z</time>
      </trkpt>
      <trkpt lat="41.664876500" lon="2.489985500">
        <ele>202.00</ele>
        <time>2013-03-23T17:50:50Z</time>
      </trkpt>
      <trkpt lat="41.664815300" lon="2.489743600">
        <ele>198.60</ele>
        <time>2013-03-23T17:50:54Z</time>
      </trkpt>
      <trkpt lat="41.664808000" lon="2.489467200">
        <ele>196.20</ele>
        <time>2013-03-23T17:51:01Z</time>
      </trkpt>
      <trkpt lat="41.664721000" lon="2.489395000">
        <ele>196.20</ele>
        <time>2013-03-23T17:51:06Z</time>
      </trkpt>
      <trkpt lat="41.664637900" lon="2.489446400">
        <ele>196.20</ele>
        <time>2013-03-23T17:51:13Z</time>
      </trkpt>
      <trkpt lat="41.664617100" lon="2.489459300">
        <ele>197.70</ele>
        <time>2013-03-23T17:51:16Z</time>
      </trkpt>
      <trkpt lat="41.664530300" lon="2.489563200">
        <ele>199.60</ele>
        <time>2013-03-23T17:51:25Z</time>
      </trkpt>
      <trkpt lat="41.664434800" lon="2.489627800">
        <ele>201.10</ele>
        <time>2013-03-23T17:51:32Z</time>
      </trkpt>
      <trkpt lat="41.664367800" lon="2.489648700">
        <ele>201.10</ele>
        <time>2013-03-23T17:51:37Z</time>
      </trkpt>
      <trkpt lat="41.664182500" lon="2.489777800">
        <ele>201.50</ele>
        <time>2013-03-23T17:51:48Z</time>
      </trkpt>
      <trkpt lat="41.663975500" lon="2.489854000">
        <ele>203.50</ele>
        <time>2013-03-23T17:51:58Z</time>
      </trkpt>
      <trkpt lat="41.663838600" lon="2.489855200">
        <ele>203.50</ele>
        <time>2013-03-23T17:52:05Z</time>
      </trkpt>
      <trkpt lat="41.663682500" lon="2.489831200">
        <ele>203.90</ele>
        <time>2013-03-23T17:52:14Z</time>
      </trkpt>
      <trkpt lat="41.663588300" lon="2.489820800">
        <ele>203.90</ele>
        <time>2013-03-23T17:52:19Z</time>
      </trkpt>
      <trkpt lat="41.663467800" lon="2.489820100">
        <ele>203.90</ele>
        <time>2013-03-23T17:52:26Z</time>
      </trkpt>
      <trkpt lat="41.663271700" lon="2.489933100">
        <ele>203.90</ele>
        <time>2013-03-23T17:52:35Z</time>
      </trkpt>
      <trkpt lat="41.663199400" lon="2.489876200">
        <ele>203.90</ele>
        <time>2013-03-23T17:52:40Z</time>
      </trkpt>
      <trkpt lat="41.663130700" lon="2.489809200">
        <ele>204.90</ele>
        <time>2013-03-23T17:52:45Z</time>
      </trkpt>
      <trkpt lat="41.663010200" lon="2.489788900">
        <ele>206.30</ele>
        <time>2013-03-23T17:52:54Z</time>
      </trkpt>
      <trkpt lat="41.662898000" lon="2.489769300">
        <ele>207.30</ele>
        <time>2013-03-23T17:53:03Z</time>
      </trkpt>
      <trkpt lat="41.662795400" lon="2.489727700">
        <ele>209.70</ele>
        <time>2013-03-23T17:53:11Z</time>
      </trkpt>
      <trkpt lat="41.662762200" lon="2.489650800">
        <ele>212.10</ele>
        <time>2013-03-23T17:53:18Z</time>
      </trkpt>
      <trkpt lat="41.662702800" lon="2.489510200">
        <ele>214.00</ele>
        <time>2013-03-23T17:53:27Z</time>
      </trkpt>
      <trkpt lat="41.662697000" lon="2.489445600">
        <ele>215.90</ele>
        <time>2013-03-23T17:53:32Z</time>
      </trkpt>
      <trkpt lat="41.662710700" lon="2.489415600">
        <ele>216.40</ele>
        <time>2013-03-23T17:53:36Z</time>
      </trkpt>
      <trkpt lat="41.662845200" lon="2.489441300">
        <ele>216.40</ele>
        <time>2013-03-23T17:53:44Z</time>
      </trkpt>
      <trkpt lat="41.663014400" lon="2.489389800">
        <ele>216.40</ele>
        <time>2013-03-23T17:53:53Z</time>
      </trkpt>
      <trkpt lat="41.663076200" lon="2.489318300">
        <ele>216.90</ele>
        <time>2013-03-23T17:53:58Z</time>
      </trkpt>
      <trkpt lat="41.663087500" lon="2.489309000">
        <ele>217.90</ele>
        <time>2013-03-23T17:54:00Z</time>
      </trkpt>
      <trkpt lat="41.663197400" lon="2.489237200">
        <ele>218.40</ele>
        <time>2013-03-23T17:54:07Z</time>
      </trkpt>
      <trkpt lat="41.663230700" lon="2.489188800">
        <ele>218.40</ele>
        <time>2013-03-23T17:54:11Z</time>
      </trkpt>
      <trkpt lat="41.663240500" lon="2.489159100">
        <ele>219.30</ele>
        <time>2013-03-23T17:54:12Z</time>
      </trkpt>
      <trkpt lat="41.663236900" lon="2.489026100">
        <ele>220.80</ele>
        <time>2013-03-23T17:54:21Z</time>
      </trkpt>
      <trkpt lat="41.663240500" lon="2.488993100">
        <ele>220.80</ele>
        <time>2013-03-23T17:54:23Z</time>
      </trkpt>
      <trkpt lat="41.663224400" lon="2.488890800">
        <ele>221.70</ele>
        <time>2013-03-23T17:54:28Z</time>
      </trkpt>
      <trkpt lat="41.663211100" lon="2.488779300">
        <ele>223.20</ele>
        <time>2013-03-23T17:54:37Z</time>
      </trkpt>
      <trkpt lat="41.663206100" lon="2.488726800">
        <ele>223.20</ele>
        <time>2013-03-23T17:54:40Z</time>
      </trkpt>
      <trkpt lat="41.663271300" lon="2.488446000">
        <ele>224.10</ele>
        <time>2013-03-23T17:54:52Z</time>
      </trkpt>
      <trkpt lat="41.663346200" lon="2.488281000">
        <ele>224.60</ele>
        <time>2013-03-23T17:54:59Z</time>
      </trkpt>
      <trkpt lat="41.663426500" lon="2.488168000">
        <ele>226.10</ele>
        <time>2013-03-23T17:55:08Z</time>
      </trkpt>
      <trkpt lat="41.663522400" lon="2.488035500">
        <ele>227.00</ele>
        <time>2013-03-23T17:55:17Z</time>
      </trkpt>
      <trkpt lat="41.663560500" lon="2.487990400">
        <ele>227.50</ele>
        <time>2013-03-23T17:55:20Z</time>
      </trkpt>
      <trkpt lat="41.663583200" lon="2.487908200">
        <ele>228.90</ele>
        <time>2013-03-23T17:55:24Z</time>
      </trkpt>
      <trkpt lat="41.663536900" lon="2.487829500">
        <ele>230.40</ele>
        <time>2013-03-23T17:55:31Z</time>
      </trkpt>
      <trkpt lat="41.663412600" lon="2.487821200">
        <ele>231.80</ele>
        <time>2013-03-23T17:55:41Z</time>
      </trkpt>
      <trkpt lat="41.663342600" lon="2.487833300">
        <ele>232.30</ele>
        <time>2013-03-23T17:55:46Z</time>
      </trkpt>
      <trkpt lat="41.663241900" lon="2.487866800">
        <ele>233.70</ele>
        <time>2013-03-23T17:55:55Z</time>
      </trkpt>
      <trkpt lat="41.663231700" lon="2.487871300">
        <ele>233.70</ele>
        <time>2013-03-23T17:55:55Z</time>
      </trkpt>
      <trkpt lat="41.663129500" lon="2.487908800">
        <ele>234.70</ele>
        <time>2013-03-23T17:56:04Z</time>
      </trkpt>
      <trkpt lat="41.663027600" lon="2.487974300">
        <ele>236.10</ele>
        <time>2013-03-23T17:56:11Z</time>
      </trkpt>
      <trkpt lat="41.662994900" lon="2.487997900">
        <ele>236.60</ele>
        <time>2013-03-23T17:56:14Z</time>
      </trkpt>
      <trkpt lat="41.662894800" lon="2.488096600">
        <ele>239.50</ele>
        <time>2013-03-23T17:56:23Z</time>
      </trkpt>
      <trkpt lat="41.662779300" lon="2.488204500">
        <ele>240.90</ele>
        <time>2013-03-23T17:56:33Z</time>
      </trkpt>
      <trkpt lat="41.662672400" lon="2.488293500">
        <ele>243.80</ele>
        <time>2013-03-23T17:56:44Z</time>
      </trkpt>
      <trkpt lat="41.662628800" lon="2.488331500">
        <ele>244.80</ele>
        <time>2013-03-23T17:56:49Z</time>
      </trkpt>
      <trkpt lat="41.662593500" lon="2.488356000">
        <ele>245.30</ele>
        <time>2013-03-23T17:56:53Z</time>
      </trkpt>
      <trkpt lat="41.662488800" lon="2.488388500">
        <ele>245.30</ele>
        <time>2013-03-23T17:56:58Z</time>
      </trkpt>
      <trkpt lat="41.662375900" lon="2.488303600">
        <ele>246.20</ele>
        <time>2013-03-23T17:57:08Z</time>
      </trkpt>
      <trkpt lat="41.662288300" lon="2.488253600">
        <ele>246.70</ele>
        <time>2013-03-23T17:57:13Z</time>
      </trkpt>
      <trkpt lat="41.662148900" lon="2.488184500">
        <ele>248.20</ele>
        <time>2013-03-23T17:57:24Z</time>
      </trkpt>
      <trkpt lat="41.662140700" lon="2.488183000">
        <ele>249.10</ele>
        <time>2013-03-23T17:57:24Z</time>
      </trkpt>
      <trkpt lat="41.662077600" lon="2.488209000">
        <ele>249.10</ele>
        <time>2013-03-23T17:57:29Z</time>
      </trkpt>
      <trkpt lat="41.661854300" lon="2.488365400">
        <ele>246.20</ele>
        <time>2013-03-23T17:57:36Z</time>
      </trkpt>
      <trkpt lat="41.661782000" lon="2.488373500">
        <ele>244.80</ele>
        <time>2013-03-23T17:57:38Z</time>
      </trkpt>
      <trkpt lat="41.661580800" lon="2.488319900">
        <ele>243.80</ele>
        <time>2013-03-23T17:57:41Z</time>
      </trkpt>
      <trkpt lat="41.661491800" lon="2.488365900">
        <ele>244.30</ele>
        <time>2013-03-23T17:57:48Z</time>
      </trkpt>
      <trkpt lat="41.661490100" lon="2.488514500">
        <ele>246.20</ele>
        <time>2013-03-23T17:57:57Z</time>
      </trkpt>
      <trkpt lat="41.661510500" lon="2.488651100">
        <ele>248.60</ele>
        <time>2013-03-23T17:58:04Z</time>
      </trkpt>
      <trkpt lat="41.661518500" lon="2.488784800">
        <ele>250.60</ele>
        <time>2013-03-23T17:58:13Z</time>
      </trkpt>
      <trkpt lat="41.661517700" lon="2.488834500">
        <ele>251.00</ele>
        <time>2013-03-23T17:58:16Z</time>
      </trkpt>
      <trkpt lat="41.661518600" lon="2.489077000">
        <ele>251.00</ele>
        <time>2013-03-23T17:58:23Z</time>
      </trkpt>
      <trkpt lat="41.661485000" lon="2.489166900">
        <ele>249.60</ele>
        <time>2013-03-23T17:58:25Z</time>
      </trkpt>
      <trkpt lat="41.661360300" lon="2.489280800">
        <ele>249.60</ele>
        <time>2013-03-23T17:58:32Z</time>
      </trkpt>
      <trkpt lat="41.661307000" lon="2.489310700">
        <ele>250.60</ele>
        <time>2013-03-23T17:58:35Z</time>
      </trkpt>
      <trkpt lat="41.661182000" lon="2.489381500">
        <ele>252.50</ele>
        <time>2013-03-23T17:58:44Z</time>
      </trkpt>
      <trkpt lat="41.661038300" lon="2.489478900">
        <ele>255.40</ele>
        <time>2013-03-23T17:58:56Z</time>
      </trkpt>
      <trkpt lat="41.660960400" lon="2.489524000">
        <ele>256.80</ele>
        <time>2013-03-23T17:59:03Z</time>
      </trkpt>
      <trkpt lat="41.660876000" lon="2.489636500">
        <ele>257.80</ele>
        <time>2013-03-23T17:59:14Z</time>
      </trkpt>
      <trkpt lat="41.660835800" lon="2.489748100">
        <ele>259.70</ele>
        <time>2013-03-23T17:59:22Z</time>
      </trkpt>
      <trkpt lat="41.660823500" lon="2.489856100">
        <ele>261.10</ele>
        <time>2013-03-23T17:59:29Z</time>
      </trkpt>
      <trkpt lat="41.660822300" lon="2.489900200">
        <ele>261.10</ele>
        <time>2013-03-23T17:59:31Z</time>
      </trkpt>
      <trkpt lat="41.660782800" lon="2.490095700">
        <ele>263.10</ele>
        <time>2013-03-23T17:59:41Z</time>
      </trkpt>
      <trkpt lat="41.660750900" lon="2.490184900">
        <ele>264.50</ele>
        <time>2013-03-23T17:59:47Z</time>
      </trkpt>
      <trkpt lat="41.660661700" lon="2.490325400">
        <ele>265.50</ele>
        <time>2013-03-23T17:59:57Z</time>
      </trkpt>
      <trkpt lat="41.660608900" lon="2.490422200">
        <ele>265.90</ele>
        <time>2013-03-23T18:00:04Z</time>
      </trkpt>
      <trkpt lat="41.660581900" lon="2.490543400">
        <ele>267.40</ele>
        <time>2013-03-23T18:00:11Z</time>
      </trkpt>
      <trkpt lat="41.660519700" lon="2.490686400">
        <ele>268.80</ele>
        <time>2013-03-23T18:00:20Z</time>
      </trkpt>
      <trkpt lat="41.660399900" lon="2.490794500">
        <ele>269.80</ele>
        <time>2013-03-23T18:00:30Z</time>
      </trkpt>
      <trkpt lat="41.660322900" lon="2.490890900">
        <ele>271.70</ele>
        <time>2013-03-23T18:00:39Z</time>
      </trkpt>
      <trkpt lat="41.660218800" lon="2.491043100">
        <ele>273.10</ele>
        <time>2013-03-23T18:00:49Z</time>
      </trkpt>
      <trkpt lat="41.660144500" lon="2.491191600">
        <ele>273.60</ele>
        <time>2013-03-23T18:00:58Z</time>
      </trkpt>
      <trkpt lat="41.660055600" lon="2.491317300">
        <ele>273.60</ele>
        <time>2013-03-23T18:01:05Z</time>
      </trkpt>
      <trkpt lat="41.660048000" lon="2.491338500">
        <ele>273.60</ele>
        <time>2013-03-23T18:01:07Z</time>
      </trkpt>
      <trkpt lat="41.660092800" lon="2.491483600">
        <ele>272.20</ele>
        <time>2013-03-23T18:01:12Z</time>
      </trkpt>
      <trkpt lat="41.660138900" lon="2.491603300">
        <ele>271.70</ele>
        <time>2013-03-23T18:01:14Z</time>
      </trkpt>
      <trkpt lat="41.660223600" lon="2.491822700">
        <ele>271.70</ele>
        <time>2013-03-23T18:01:23Z</time>
      </trkpt>
      <trkpt lat="41.660262700" lon="2.492017400">
        <ele>272.70</ele>
        <time>2013-03-23T18:01:31Z</time>
      </trkpt>
      <trkpt lat="41.660272900" lon="2.492171400">
        <ele>274.10</ele>
        <time>2013-03-23T18:01:38Z</time>
      </trkpt>
      <trkpt lat="41.660301800" lon="2.492339500">
        <ele>277.00</ele>
        <time>2013-03-23T18:01:47Z</time>
      </trkpt>
      <trkpt lat="41.660308100" lon="2.492353700">
        <ele>277.00</ele>
        <time>2013-03-23T18:01:47Z</time>
      </trkpt>
      <trkpt lat="41.660327200" lon="2.492383400">
        <ele>277.50</ele>
        <time>2013-03-23T18:01:49Z</time>
      </trkpt>
      <trkpt lat="41.660424000" lon="2.492473500">
        <ele>279.40</ele>
        <time>2013-03-23T18:01:59Z</time>
      </trkpt>
      <trkpt lat="41.660491200" lon="2.492570100">
        <ele>280.40</ele>
        <time>2013-03-23T18:02:06Z</time>
      </trkpt>
      <trkpt lat="41.660538300" lon="2.492731500">
        <ele>281.30</ele>
        <time>2013-03-23T18:02:15Z</time>
      </trkpt>
      <trkpt lat="41.660550000" lon="2.492876900">
        <ele>281.80</ele>
        <time>2013-03-23T18:02:22Z</time>
      </trkpt>
      <trkpt lat="41.660531300" lon="2.493032600">
        <ele>282.80</ele>
        <time>2013-03-23T18:02:29Z</time>
      </trkpt>
      <trkpt lat="41.660529900" lon="2.493249900">
        <ele>283.20</ele>
        <time>2013-03-23T18:02:37Z</time>
      </trkpt>
      <trkpt lat="41.660545300" lon="2.493442300">
        <ele>282.30</ele>
        <time>2013-03-23T18:02:41Z</time>
      </trkpt>
      <trkpt lat="41.660508100" lon="2.493722800">
        <ele>280.40</ele>
        <time>2013-03-23T18:02:48Z</time>
      </trkpt>
      <trkpt lat="41.660506500" lon="2.493779700">
        <ele>279.90</ele>
        <time>2013-03-23T18:02:48Z</time>
      </trkpt>
      <trkpt lat="41.660462800" lon="2.494154800">
        <ele>278.40</ele>
        <time>2013-03-23T18:02:55Z</time>
      </trkpt>
      <trkpt lat="41.660443300" lon="2.494298500">
        <ele>278.40</ele>
        <time>2013-03-23T18:03:00Z</time>
      </trkpt>
      <trkpt lat="41.660433100" lon="2.494536700">
        <ele>278.40</ele>
        <time>2013-03-23T18:03:07Z</time>
      </trkpt>
      <trkpt lat="41.660426500" lon="2.494645500">
        <ele>280.40</ele>
        <time>2013-03-23T18:03:11Z</time>
      </trkpt>
      <trkpt lat="41.660299700" lon="2.494838300">
        <ele>280.40</ele>
        <time>2013-03-23T18:03:19Z</time>
      </trkpt>
      <trkpt lat="41.660171700" lon="2.494850000">
        <ele>278.00</ele>
        <time>2013-03-23T18:03:21Z</time>
      </trkpt>
      <trkpt lat="41.659999300" lon="2.494865200">
        <ele>276.50</ele>
        <time>2013-03-23T18:03:24Z</time>
      </trkpt>
      <trkpt lat="41.659851900" lon="2.494927600">
        <ele>274.60</ele>
        <time>2013-03-23T18:03:28Z</time>
      </trkpt>
      <trkpt lat="41.659686600" lon="2.495122900">
        <ele>272.20</ele>
        <time>2013-03-23T18:03:31Z</time>
      </trkpt>
      <trkpt lat="41.659653800" lon="2.495176800">
        <ele>271.20</ele>
        <time>2013-03-23T18:03:33Z</time>
      </trkpt>
      <trkpt lat="41.659580400" lon="2.495291500">
        <ele>269.30</ele>
        <time>2013-03-23T18:03:35Z</time>
      </trkpt>
      <trkpt lat="41.659430200" lon="2.495394000">
        <ele>265.00</ele>
        <time>2013-03-23T18:03:38Z</time>
      </trkpt>
      <trkpt lat="41.659170000" lon="2.495464500">
        <ele>261.10</ele>
        <time>2013-03-23T18:03:42Z</time>
      </trkpt>
      <trkpt lat="41.658739800" lon="2.495477200">
        <ele>258.20</ele>
        <time>2013-03-23T18:03:47Z</time>
      </trkpt>
      <trkpt lat="41.658667000" lon="2.495459800">
        <ele>258.20</ele>
        <time>2013-03-23T18:03:49Z</time>
      </trkpt>
      <trkpt lat="41.658532400" lon="2.495458200">
        <ele>257.80</ele>
        <time>2013-03-23T18:03:51Z</time>
      </trkpt>
      <trkpt lat="41.658314800" lon="2.495407100">
        <ele>253.40</ele>
        <time>2013-03-23T18:03:56Z</time>
      </trkpt>
      <trkpt lat="41.658317700" lon="2.495324400">
        <ele>253.00</ele>
        <time>2013-03-23T18:03:58Z</time>
      </trkpt>
      <trkpt lat="41.658409700" lon="2.495082800">
        <ele>253.00</ele>
        <time>2013-03-23T18:04:05Z</time>
      </trkpt>
      <trkpt lat="41.658466000" lon="2.494966200">
        <ele>253.40</ele>
        <time>2013-03-23T18:04:08Z</time>
      </trkpt>
      <trkpt lat="41.658417800" lon="2.494737500">
        <ele>251.50</ele>
        <time>2013-03-23T18:04:12Z</time>
      </trkpt>
      <trkpt lat="41.658301400" lon="2.494516600">
        <ele>247.70</ele>
        <time>2013-03-23T18:04:17Z</time>
      </trkpt>
      <trkpt lat="41.658233500" lon="2.494397400">
        <ele>245.30</ele>
        <time>2013-03-23T18:04:22Z</time>
      </trkpt>
      <trkpt lat="41.658205000" lon="2.494332800">
        <ele>244.30</ele>
        <time>2013-03-23T18:04:24Z</time>
      </trkpt>
      <trkpt lat="41.658192800" lon="2.494289100">
        <ele>243.80</ele>
        <time>2013-03-23T18:04:24Z</time>
      </trkpt>
      <trkpt lat="41.658142200" lon="2.494076500">
        <ele>239.50</ele>
        <time>2013-03-23T18:04:27Z</time>
      </trkpt>
      <trkpt lat="41.658127800" lon="2.493986700">
        <ele>239.00</ele>
        <time>2013-03-23T18:04:29Z</time>
      </trkpt>
      <trkpt lat="41.657986600" lon="2.493688500">
        <ele>235.20</ele>
        <time>2013-03-23T18:04:32Z</time>
      </trkpt>
      <trkpt lat="41.657855000" lon="2.493599100">
        <ele>234.70</ele>
        <time>2013-03-23T18:04:34Z</time>
      </trkpt>
      <trkpt lat="41.657669600" lon="2.493462200">
        <ele>231.30</ele>
        <time>2013-03-23T18:04:39Z</time>
      </trkpt>
      <trkpt lat="41.657633200" lon="2.493338700">
        <ele>228.40</ele>
        <time>2013-03-23T18:04:43Z</time>
      </trkpt>
      <trkpt lat="41.657643100" lon="2.493149600">
        <ele>224.60</ele>
        <time>2013-03-23T18:04:46Z</time>
      </trkpt>
      <trkpt lat="41.657710200" lon="2.492920100">
        <ele>219.30</ele>
        <time>2013-03-23T18:04:50Z</time>
      </trkpt>
      <trkpt lat="41.657766700" lon="2.492767000">
        <ele>215.90</ele>
        <time>2013-03-23T18:04:55Z</time>
      </trkpt>
      <trkpt lat="41.657867900" lon="2.492682000">
        <ele>212.60</ele>
        <time>2013-03-23T18:04:59Z</time>
      </trkpt>
      <trkpt lat="41.658007000" lon="2.492585100">
        <ele>209.20</ele>
        <time>2013-03-23T18:05:02Z</time>
      </trkpt>
      <trkpt lat="41.658025700" lon="2.492513700">
        <ele>208.30</ele>
        <time>2013-03-23T18:05:04Z</time>
      </trkpt>
      <trkpt lat="41.657992600" lon="2.492441900">
        <ele>207.80</ele>
        <time>2013-03-23T18:05:07Z</time>
      </trkpt>
      <trkpt lat="41.657910100" lon="2.492306700">
        <ele>204.40</ele>
        <time>2013-03-23T18:05:11Z</time>
      </trkpt>
      <trkpt lat="41.657809400" lon="2.492162300">
        <ele>201.10</ele>
        <time>2013-03-23T18:05:14Z</time>
      </trkpt>
      <trkpt lat="41.657692000" lon="2.492000000">
        <ele>198.20</ele>
        <time>2013-03-23T18:05:18Z</time>
      </trkpt>
      <trkpt lat="41.657580000" lon="2.491911100">
        <ele>194.30</ele>
        <time>2013-03-23T18:05:21Z</time>
      </trkpt>
      <trkpt lat="41.657549600" lon="2.491907500">
        <ele>193.40</ele>
        <time>2013-03-23T18:05:21Z</time>
      </trkpt>
      <trkpt lat="41.657481300" lon="2.491911600">
        <ele>192.90</ele>
        <time>2013-03-23T18:05:25Z</time>
      </trkpt>
      <trkpt lat="41.657416600" lon="2.492031800">
        <ele>192.90</ele>
        <time>2013-03-23T18:05:28Z</time>
      </trkpt>
      <trkpt lat="41.657309300" lon="2.492442900">
        <ele>194.30</ele>
        <time>2013-03-23T18:05:40Z</time>
      </trkpt>
      <trkpt lat="41.657218600" lon="2.492813300">
        <ele>195.30</ele>
        <time>2013-03-23T18:05:49Z</time>
      </trkpt>
      <trkpt lat="41.657142600" lon="2.493174800">
        <ele>196.20</ele>
        <time>2013-03-23T18:05:56Z</time>
      </trkpt>
      <trkpt lat="41.657034300" lon="2.493571800">
        <ele>197.20</ele>
        <time>2013-03-23T18:06:05Z</time>
      </trkpt>
      <trkpt lat="41.656937700" lon="2.493726400">
        <ele>197.70</ele>
        <time>2013-03-23T18:06:10Z</time>
      </trkpt>
      <trkpt lat="41.656787400" lon="2.493820700">
        <ele>197.70</ele>
        <time>2013-03-23T18:06:13Z</time>
      </trkpt>
      <trkpt lat="41.656345600" lon="2.493908300">
        <ele>196.20</ele>
        <time>2013-03-23T18:06:22Z</time>
      </trkpt>
      <trkpt lat="41.656285700" lon="2.493915800">
        <ele>196.20</ele>
        <time>2013-03-23T18:06:22Z</time>
      </trkpt>
      <trkpt lat="41.655594200" lon="2.493946500">
        <ele>193.80</ele>
        <time>2013-03-23T18:06:34Z</time>
      </trkpt>
      <trkpt lat="41.655195600" lon="2.493959800">
        <ele>192.40</ele>
        <time>2013-03-23T18:06:40Z</time>
      </trkpt>
      <trkpt lat="41.655016100" lon="2.493955500">
        <ele>192.40</ele>
        <time>2013-03-23T18:06:43Z</time>
      </trkpt>
      <trkpt lat="41.654691800" lon="2.493951900">
        <ele>192.40</ele>
        <time>2013-03-23T18:06:50Z</time>
      </trkpt>
      <trkpt lat="41.654148400" lon="2.493950900">
        <ele>192.40</ele>
        <time>2013-03-23T18:07:02Z</time>
      </trkpt>
      <trkpt lat="41.653589600" lon="2.493951100">
        <ele>193.80</ele>
        <time>2013-03-23T18:07:13Z</time>
      </trkpt>
      <trkpt lat="41.653079900" lon="2.493916200">
        <ele>194.80</ele>
        <time>2013-03-23T18:07:25Z</time>
      </trkpt>
      <trkpt lat="41.652766600" lon="2.493930300">
        <ele>196.20</ele>
        <time>2013-03-23T18:07:32Z</time>
      </trkpt>
      <trkpt lat="41.652600800" lon="2.493825800">
        <ele>195.80</ele>
        <time>2013-03-23T18:07:37Z</time>
      </trkpt>
      <trkpt lat="41.652504800" lon="2.493565300">
        <ele>196.70</ele>
        <time>2013-03-23T18:07:44Z</time>
      </trkpt>
      <trkpt lat="41.652396700" lon="2.493384800">
        <ele>197.20</ele>
        <time>2013-03-23T18:07:49Z</time>
      </trkpt>
      <trkpt lat="41.652228700" lon="2.493218100">
        <ele>200.60</ele>
        <time>2013-03-23T18:07:58Z</time>
      </trkpt>
      <trkpt lat="41.652125700" lon="2.493160400">
        <ele>199.10</ele>
        <time>2013-03-23T18:08:01Z</time>
      </trkpt>
      <trkpt lat="41.651809200" lon="2.493210700">
        <ele>197.20</ele>
        <time>2013-03-23T18:08:07Z</time>
      </trkpt>
      <trkpt lat="41.651661900" lon="2.493304900">
        <ele>197.20</ele>
        <time>2013-03-23T18:08:10Z</time>
      </trkpt>
      <trkpt lat="41.651565800" lon="2.493424100">
        <ele>197.20</ele>
        <time>2013-03-23T18:08:12Z</time>
      </trkpt>
      <trkpt lat="41.651340500" lon="2.493704300">
        <ele>196.70</ele>
        <time>2013-03-23T18:08:21Z</time>
      </trkpt>
      <trkpt lat="41.651144400" lon="2.493924500">
        <ele>198.20</ele>
        <time>2013-03-23T18:08:29Z</time>
      </trkpt>
      <trkpt lat="41.650994500" lon="2.493981400">
        <ele>199.60</ele>
        <time>2013-03-23T18:08:36Z</time>
      </trkpt>
      <trkpt lat="41.650824400" lon="2.493948000">
        <ele>200.60</ele>
        <time>2013-03-23T18:08:43Z</time>
      </trkpt>
      <trkpt lat="41.650674200" lon="2.493996300">
        <ele>202.50</ele>
        <time>2013-03-23T18:08:50Z</time>
      </trkpt>
      <trkpt lat="41.650491900" lon="2.494105100">
        <ele>204.90</ele>
        <time>2013-03-23T18:08:57Z</time>
      </trkpt>
      <trkpt lat="41.650472600" lon="2.494123900">
        <ele>204.90</ele>
        <time>2013-03-23T18:08:59Z</time>
      </trkpt>
      <trkpt lat="41.650368200" lon="2.494261200">
        <ele>205.40</ele>
        <time>2013-03-23T18:09:06Z</time>
      </trkpt>
      <trkpt lat="41.650317800" lon="2.494307800">
        <ele>205.40</ele>
        <time>2013-03-23T18:09:09Z</time>
      </trkpt>
      <trkpt lat="41.650235600" lon="2.494344500">
        <ele>203.90</ele>
        <time>2013-03-23T18:09:11Z</time>
      </trkpt>
      <trkpt lat="41.649898400" lon="2.494562600">
        <ele>202.50</ele>
        <time>2013-03-23T18:09:18Z</time>
      </trkpt>
      <trkpt lat="41.649777100" lon="2.494616500">
        <ele>201.50</ele>
        <time>2013-03-23T18:09:22Z</time>
      </trkpt>
      <trkpt lat="41.649692100" lon="2.494665700">
        <ele>201.10</ele>
        <time>2013-03-23T18:09:27Z</time>
      </trkpt>
      <trkpt lat="41.649645400" lon="2.494828500">
        <ele>202.50</ele>
        <time>2013-03-23T18:09:34Z</time>
      </trkpt>
      <trkpt lat="41.649616000" lon="2.495066700">
        <ele>203.90</ele>
        <time>2013-03-23T18:09:41Z</time>
      </trkpt>
      <trkpt lat="41.649519600" lon="2.495346900">
        <ele>204.40</ele>
        <time>2013-03-23T18:09:51Z</time>
      </trkpt>
      <trkpt lat="41.649426500" lon="2.495589100">
        <ele>204.40</ele>
        <time>2013-03-23T18:09:58Z</time>
      </trkpt>
      <trkpt lat="41.649264300" lon="2.495896000">
        <ele>205.90</ele>
        <time>2013-03-23T18:10:10Z</time>
      </trkpt>
      <trkpt lat="41.649141300" lon="2.496053200">
        <ele>208.30</ele>
        <time>2013-03-23T18:10:17Z</time>
      </trkpt>
      <trkpt lat="41.649073600" lon="2.496138800">
        <ele>208.70</ele>
        <time>2013-03-23T18:10:21Z</time>
      </trkpt>
      <trkpt lat="41.649061500" lon="2.496236400">
        <ele>209.20</ele>
        <time>2013-03-23T18:10:24Z</time>
      </trkpt>
      <trkpt lat="41.649076000" lon="2.496467100">
        <ele>209.20</ele>
        <time>2013-03-23T18:10:29Z</time>
      </trkpt>
      <trkpt lat="41.649072400" lon="2.496634100">
        <ele>207.80</ele>
        <time>2013-03-23T18:10:33Z</time>
      </trkpt>
      <trkpt lat="41.649070300" lon="2.496694700">
        <ele>207.30</ele>
        <time>2013-03-23T18:10:33Z</time>
      </trkpt>
      <trkpt lat="41.649042800" lon="2.496963500">
        <ele>205.90</ele>
        <time>2013-03-23T18:10:38Z</time>
      </trkpt>
      <trkpt lat="41.648922800" lon="2.497305700">
        <ele>204.40</ele>
        <time>2013-03-23T18:10:42Z</time>
      </trkpt>
      <trkpt lat="41.648827300" lon="2.497509300">
        <ele>203.00</ele>
        <time>2013-03-23T18:10:47Z</time>
      </trkpt>
      <trkpt lat="41.648765600" lon="2.497622400">
        <ele>202.50</ele>
        <time>2013-03-23T18:10:52Z</time>
      </trkpt>
      <trkpt lat="41.648750100" lon="2.497652500">
        <ele>202.00</ele>
        <time>2013-03-23T18:10:59Z</time>
      </trkpt>
      <trkpt lat="41.648738800" lon="2.497664500">
        <ele>202.00</ele>
        <time>2013-03-23T18:11:13Z</time>
      </trkpt>
      <trkpt lat="41.648616400" lon="2.497658300">
        <ele>202.00</ele>
        <time>2013-03-23T18:11:22Z</time>
      </trkpt>
      <trkpt lat="41.648502800" lon="2.497651200">
        <ele>203.50</ele>
        <time>2013-03-23T18:11:27Z</time>
      </trkpt>
      <trkpt lat="41.648344000" lon="2.497625600">
        <ele>204.90</ele>
        <time>2013-03-23T18:11:36Z</time>
      </trkpt>
      <trkpt lat="41.648198800" lon="2.497527400">
        <ele>205.90</ele>
        <time>2013-03-23T18:11:43Z</time>
      </trkpt>
      <trkpt lat="41.648057000" lon="2.497364700">
        <ele>206.80</ele>
        <time>2013-03-23T18:11:53Z</time>
      </trkpt>
      <trkpt lat="41.647938400" lon="2.497243800">
        <ele>207.30</ele>
        <time>2013-03-23T18:12:00Z</time>
      </trkpt>
      <trkpt lat="41.647772700" lon="2.497114700">
        <ele>207.80</ele>
        <time>2013-03-23T18:12:07Z</time>
      </trkpt>
      <trkpt lat="41.647638800" lon="2.497017500">
        <ele>209.20</ele>
        <time>2013-03-23T18:12:16Z</time>
      </trkpt>
      <trkpt lat="41.647524100" lon="2.496932500">
        <ele>211.60</ele>
        <time>2013-03-23T18:12:24Z</time>
      </trkpt>
      <trkpt lat="41.647372700" lon="2.496821100">
        <ele>213.60</ele>
        <time>2013-03-23T18:12:35Z</time>
      </trkpt>
      <trkpt lat="41.647285400" lon="2.496760100">
        <ele>214.50</ele>
        <time>2013-03-23T18:12:42Z</time>
      </trkpt>
      <trkpt lat="41.647212000" lon="2.496670400">
        <ele>215.00</ele>
        <time>2013-03-23T18:12:49Z</time>
      </trkpt>
      <trkpt lat="41.647200100" lon="2.496631300">
        <ele>215.50</ele>
        <time>2013-03-23T18:12:52Z</time>
      </trkpt>
      <trkpt lat="41.647114200" lon="2.496424000">
        <ele>216.90</ele>
        <time>2013-03-23T18:13:03Z</time>
      </trkpt>
      <trkpt lat="41.647075700" lon="2.496298800">
        <ele>217.90</ele>
        <time>2013-03-23T18:13:10Z</time>
      </trkpt>
      <trkpt lat="41.646971500" lon="2.496087500">
        <ele>219.80</ele>
        <time>2013-03-23T18:13:20Z</time>
      </trkpt>
      <trkpt lat="41.646950700" lon="2.495925600">
        <ele>221.70</ele>
        <time>2013-03-23T18:13:29Z</time>
      </trkpt>
      <trkpt lat="41.646950500" lon="2.495779100">
        <ele>222.70</ele>
        <time>2013-03-23T18:13:36Z</time>
      </trkpt>
      <trkpt lat="41.646934900" lon="2.495680300">
        <ele>224.10</ele>
        <time>2013-03-23T18:13:43Z</time>
      </trkpt>
      <trkpt lat="41.646864400" lon="2.495553500">
        <ele>225.10</ele>
        <time>2013-03-23T18:13:50Z</time>
      </trkpt>
      <trkpt lat="41.646776700" lon="2.495425100">
        <ele>228.00</ele>
        <time>2013-03-23T18:14:00Z</time>
      </trkpt>
      <trkpt lat="41.646699400" lon="2.495312500">
        <ele>229.40</ele>
        <time>2013-03-23T18:14:07Z</time>
      </trkpt>
      <trkpt lat="41.646639400" lon="2.495236600">
        <ele>230.40</ele>
        <time>2013-03-23T18:14:12Z</time>
      </trkpt>
      <trkpt lat="41.646577300" lon="2.495131300">
        <ele>231.30</ele>
        <time>2013-03-23T18:14:19Z</time>
      </trkpt>
      <trkpt lat="41.646487900" lon="2.494963600">
        <ele>232.30</ele>
        <time>2013-03-23T18:14:30Z</time>
      </trkpt>
      <trkpt lat="41.646439100" lon="2.494873400">
        <ele>233.70</ele>
        <time>2013-03-23T18:14:39Z</time>
      </trkpt>
      <trkpt lat="41.646385200" lon="2.494789700">
        <ele>234.70</ele>
        <time>2013-03-23T18:14:47Z</time>
      </trkpt>
      <trkpt lat="41.646333600" lon="2.494687000">
        <ele>236.60</ele>
        <time>2013-03-23T18:14:54Z</time>
      </trkpt>
      <trkpt lat="41.646263700" lon="2.494542200">
        <ele>239.00</ele>
        <time>2013-03-23T18:15:03Z</time>
      </trkpt>
      <trkpt lat="41.646216300" lon="2.494462600">
        <ele>240.90</ele>
        <time>2013-03-23T18:15:10Z</time>
      </trkpt>
      <trkpt lat="41.646161200" lon="2.494351300">
        <ele>242.90</ele>
        <time>2013-03-23T18:15:19Z</time>
      </trkpt>
      <trkpt lat="41.646070700" lon="2.494246500">
        <ele>244.30</ele>
        <time>2013-03-23T18:15:26Z</time>
      </trkpt>
      <trkpt lat="41.646004200" lon="2.494215700">
        <ele>244.80</ele>
        <time>2013-03-23T18:15:31Z</time>
      </trkpt>
      <trkpt lat="41.645919400" lon="2.494198000">
        <ele>246.20</ele>
        <time>2013-03-23T18:15:40Z</time>
      </trkpt>
      <trkpt lat="41.645813000" lon="2.494174400">
        <ele>247.70</ele>
        <time>2013-03-23T18:15:50Z</time>
      </trkpt>
      <trkpt lat="41.645713600" lon="2.494157000">
        <ele>250.10</ele>
        <time>2013-03-23T18:15:57Z</time>
      </trkpt>
      <trkpt lat="41.645656100" lon="2.494083000">
        <ele>252.00</ele>
        <time>2013-03-23T18:16:06Z</time>
      </trkpt>
      <trkpt lat="41.645646100" lon="2.494051400">
        <ele>252.50</ele>
        <time>2013-03-23T18:16:09Z</time>
      </trkpt>
      <trkpt lat="41.645641600" lon="2.493942600">
        <ele>253.90</ele>
        <time>2013-03-23T18:16:16Z</time>
      </trkpt>
      <trkpt lat="41.645677000" lon="2.493853600">
        <ele>254.90</ele>
        <time>2013-03-23T18:16:23Z</time>
      </trkpt>
      <trkpt lat="41.645695800" lon="2.493729700">
        <ele>256.30</ele>
        <time>2013-03-23T18:16:32Z</time>
      </trkpt>
      <trkpt lat="41.645680900" lon="2.493592900">
        <ele>259.20</ele>
        <time>2013-03-23T18:16:42Z</time>
      </trkpt>
      <trkpt lat="41.645661800" lon="2.493533700">
        <ele>260.60</ele>
        <time>2013-03-23T18:16:46Z</time>
      </trkpt>
      <trkpt lat="41.645641100" lon="2.493429900">
        <ele>263.10</ele>
        <time>2013-03-23T18:16:54Z</time>
      </trkpt>
      <trkpt lat="41.645648200" lon="2.493427200">
        <ele>263.10</ele>
        <time>2013-03-23T18:16:56Z</time>
      </trkpt>
      <trkpt lat="41.645745500" lon="2.493463700">
        <ele>263.50</ele>
        <time>2013-03-23T18:17:05Z</time>
      </trkpt>
      <trkpt lat="41.645847300" lon="2.493433100">
        <ele>263.50</ele>
        <time>2013-03-23T18:17:14Z</time>
      </trkpt>
      <trkpt lat="41.645975800" lon="2.493430100">
        <ele>264.00</ele>
        <time>2013-03-23T18:17:24Z</time>
      </trkpt>
      <trkpt lat="41.646116400" lon="2.493518400">
        <ele>265.50</ele>
        <time>2013-03-23T18:17:33Z</time>
      </trkpt>
      <trkpt lat="41.646221100" lon="2.493606000">
        <ele>266.40</ele>
        <time>2013-03-23T18:17:43Z</time>
      </trkpt>
      <trkpt lat="41.646316700" lon="2.493667000">
        <ele>267.40</ele>
        <time>2013-03-23T18:17:50Z</time>
      </trkpt>
      <trkpt lat="41.646358800" lon="2.493693200">
        <ele>267.90</ele>
        <time>2013-03-23T18:17:54Z</time>
      </trkpt>
      <trkpt lat="41.646461700" lon="2.493725400">
        <ele>268.40</ele>
        <time>2013-03-23T18:18:02Z</time>
      </trkpt>
      <trkpt lat="41.646566600" lon="2.493706400">
        <ele>268.80</ele>
        <time>2013-03-23T18:18:09Z</time>
      </trkpt>
      <trkpt lat="41.646774600" lon="2.493743900">
        <ele>268.80</ele>
        <time>2013-03-23T18:18:18Z</time>
      </trkpt>
      <trkpt lat="41.646838200" lon="2.493753100">
        <ele>268.80</ele>
        <time>2013-03-23T18:18:22Z</time>
      </trkpt>
      <trkpt lat="41.646889900" lon="2.493691300">
        <ele>268.80</ele>
        <time>2013-03-23T18:18:27Z</time>
      </trkpt>
      <trkpt lat="41.646870500" lon="2.493613600">
        <ele>269.80</ele>
        <time>2013-03-23T18:18:32Z</time>
      </trkpt>
      <trkpt lat="41.646819000" lon="2.493484500">
        <ele>272.20</ele>
        <time>2013-03-23T18:18:41Z</time>
      </trkpt>
      <trkpt lat="41.646803700" lon="2.493435300">
        <ele>272.70</ele>
        <time>2013-03-23T18:18:44Z</time>
      </trkpt>
      <trkpt lat="41.646775100" lon="2.493356200">
        <ele>273.60</ele>
        <time>2013-03-23T18:18:48Z</time>
      </trkpt>
      <trkpt lat="41.646738800" lon="2.493203300">
        <ele>275.10</ele>
        <time>2013-03-23T18:18:58Z</time>
      </trkpt>
      <trkpt lat="41.646718600" lon="2.493135500">
        <ele>275.60</ele>
        <time>2013-03-23T18:19:05Z</time>
      </trkpt>
      <trkpt lat="41.646706700" lon="2.493149300">
        <ele>275.60</ele>
        <time>2013-03-23T18:19:07Z</time>
      </trkpt>
      <trkpt lat="41.646771500" lon="2.493255200">
        <ele>275.60</ele>
        <time>2013-03-23T18:19:12Z</time>
      </trkpt>
      <trkpt lat="41.646813000" lon="2.493396100">
        <ele>273.60</ele>
        <time>2013-03-23T18:19:17Z</time>
      </trkpt>
      <trkpt lat="41.646804700" lon="2.493442900">
        <ele>272.70</ele>
        <time>2013-03-23T18:19:21Z</time>
      </trkpt>
      <trkpt lat="41.646759200" lon="2.493446000">
        <ele>272.70</ele>
        <time>2013-03-23T18:19:28Z</time>
      </trkpt>
      <trkpt lat="41.646760300" lon="2.493420300">
        <ele>272.70</ele>
        <time>2013-03-23T18:19:35Z</time>
      </trkpt>
      <trkpt lat="41.646756300" lon="2.493412900">
        <ele>273.60</ele>
        <time>2013-03-23T18:19:36Z</time>
      </trkpt>
      <trkpt lat="41.646743900" lon="2.493395200">
        <ele>273.60</ele>
        <time>2013-03-23T18:19:43Z</time>
      </trkpt>
      <trkpt lat="41.646730000" lon="2.493358800">
        <ele>274.60</ele>
        <time>2013-03-23T18:19:49Z</time>
      </trkpt>
      <trkpt lat="41.646689000" lon="2.493245600">
        <ele>276.50</ele>
        <time>2013-03-23T18:19:57Z</time>
      </trkpt>
      <trkpt lat="41.646674700" lon="2.493208300">
        <ele>277.50</ele>
        <time>2013-03-23T18:20:01Z</time>
      </trkpt>
      <trkpt lat="41.646628100" lon="2.493110900">
        <ele>279.40</ele>
        <time>2013-03-23T18:20:08Z</time>
      </trkpt>
      <trkpt lat="41.646620900" lon="2.493103100">
        <ele>279.40</ele>
        <time>2013-03-23T18:20:10Z</time>
      </trkpt>
      <trkpt lat="41.646556600" lon="2.492984300">
        <ele>281.80</ele>
        <time>2013-03-23T18:20:20Z</time>
      </trkpt>
      <trkpt lat="41.646526100" lon="2.492891500">
        <ele>283.20</ele>
        <time>2013-03-23T18:20:25Z</time>
      </trkpt>
      <trkpt lat="41.646507900" lon="2.492770600">
        <ele>285.20</ele>
        <time>2013-03-23T18:20:34Z</time>
      </trkpt>
      <trkpt lat="41.646463000" lon="2.492643100">
        <ele>288.50</ele>
        <time>2013-03-23T18:20:43Z</time>
      </trkpt>
      <trkpt lat="41.646462700" lon="2.492619000">
        <ele>288.50</ele>
        <time>2013-03-23T18:20:50Z</time>
      </trkpt>
      <trkpt lat="41.646470900" lon="2.492611900">
        <ele>288.50</ele>
        <time>2013-03-23T18:21:02Z</time>
      </trkpt>
      <trkpt lat="41.646471200" lon="2.492609000">
        <ele>288.50</ele>
        <time>2013-03-23T18:21:14Z</time>
      </trkpt>
      <trkpt lat="41.646469100" lon="2.492582700">
        <ele>289.00</ele>
        <time>2013-03-23T18:21:26Z</time>
      </trkpt>
      <trkpt lat="41.646452400" lon="2.492525400">
        <ele>290.00</ele>
        <time>2013-03-23T18:21:33Z</time>
      </trkpt>
      <trkpt lat="41.646428700" lon="2.492459100">
        <ele>290.90</ele>
        <time>2013-03-23T18:21:42Z</time>
      </trkpt>
      <trkpt lat="41.646405700" lon="2.492417300">
        <ele>291.90</ele>
        <time>2013-03-23T18:21:51Z</time>
      </trkpt>
      <trkpt lat="41.646385300" lon="2.492376700">
        <ele>292.90</ele>
        <time>2013-03-23T18:21:59Z</time>
      </trkpt>
      <trkpt lat="41.646359800" lon="2.492344000">
        <ele>294.30</ele>
        <time>2013-03-23T18:22:06Z</time>
      </trkpt>
      <trkpt lat="41.646301100" lon="2.492338600">
        <ele>295.30</ele>
        <time>2013-03-23T18:22:15Z</time>
      </trkpt>
      <trkpt lat="41.646244600" lon="2.492339600">
        <ele>296.20</ele>
        <time>2013-03-23T18:22:24Z</time>
      </trkpt>
      <trkpt lat="41.646178800" lon="2.492316700">
        <ele>297.70</ele>
        <time>2013-03-23T18:22:36Z</time>
      </trkpt>
      <trkpt lat="41.646135300" lon="2.492282100">
        <ele>298.60</ele>
        <time>2013-03-23T18:22:45Z</time>
      </trkpt>
      <trkpt lat="41.646109000" lon="2.492226500">
        <ele>300.10</ele>
        <time>2013-03-23T18:22:53Z</time>
      </trkpt>
      <trkpt lat="41.646100000" lon="2.492209400">
        <ele>300.10</ele>
        <time>2013-03-23T18:23:00Z</time>
      </trkpt>
      <trkpt lat="41.646062800" lon="2.492165300">
        <ele>300.50</ele>
        <time>2013-03-23T18:23:07Z</time>
      </trkpt>
      <trkpt lat="41.646032800" lon="2.492069000">
        <ele>302.50</ele>
        <time>2013-03-23T18:23:16Z</time>
      </trkpt>
      <trkpt lat="41.646006300" lon="2.491930900">
        <ele>303.40</ele>
        <time>2013-03-23T18:23:25Z</time>
      </trkpt>
      <trkpt lat="41.645976100" lon="2.491810300">
        <ele>305.80</ele>
        <time>2013-03-23T18:23:33Z</time>
      </trkpt>
      <trkpt lat="41.645975100" lon="2.491797700">
        <ele>305.80</ele>
        <time>2013-03-23T18:23:35Z</time>
      </trkpt>
      <trkpt lat="41.645980800" lon="2.491678600">
        <ele>306.80</ele>
        <time>2013-03-23T18:23:42Z</time>
      </trkpt>
      <trkpt lat="41.646002100" lon="2.491508900">
        <ele>308.70</ele>
        <time>2013-03-23T18:23:54Z</time>
      </trkpt>
      <trkpt lat="41.646035700" lon="2.491388100">
        <ele>310.60</ele>
        <time>2013-03-23T18:24:03Z</time>
      </trkpt>
      <trkpt lat="41.646062200" lon="2.491263200">
        <ele>312.60</ele>
        <time>2013-03-23T18:24:12Z</time>
      </trkpt>
      <trkpt lat="41.646087200" lon="2.491127900">
        <ele>314.50</ele>
        <time>2013-03-23T18:24:22Z</time>
      </trkpt>
      <trkpt lat="41.646103700" lon="2.491007600">
        <ele>315.50</ele>
        <time>2013-03-23T18:24:29Z</time>
      </trkpt>
      <trkpt lat="41.646113500" lon="2.490865100">
        <ele>317.90</ele>
        <time>2013-03-23T18:24:40Z</time>
      </trkpt>
      <trkpt lat="41.646114700" lon="2.490842600">
        <ele>317.90</ele>
        <time>2013-03-23T18:24:41Z</time>
      </trkpt>
      <trkpt lat="41.646135200" lon="2.490812400">
        <ele>318.80</ele>
        <time>2013-03-23T18:24:45Z</time>
      </trkpt>
      <trkpt lat="41.646174300" lon="2.490720000">
        <ele>320.70</ele>
        <time>2013-03-23T18:24:52Z</time>
      </trkpt>
      <trkpt lat="41.646252500" lon="2.490653500">
        <ele>322.70</ele>
        <time>2013-03-23T18:25:02Z</time>
      </trkpt>
      <trkpt lat="41.646269700" lon="2.490645300">
        <ele>323.10</ele>
        <time>2013-03-23T18:25:04Z</time>
      </trkpt>
      <trkpt lat="41.646337700" lon="2.490581900">
        <ele>325.10</ele>
        <time>2013-03-23T18:25:13Z</time>
      </trkpt>
      <trkpt lat="41.646360800" lon="2.490555900">
        <ele>326.00</ele>
        <time>2013-03-23T18:25:16Z</time>
      </trkpt>
      <trkpt lat="41.646394800" lon="2.490510100">
        <ele>327.50</ele>
        <time>2013-03-23T18:25:23Z</time>
      </trkpt>
      <trkpt lat="41.646416600" lon="2.490477200">
        <ele>328.40</ele>
        <time>2013-03-23T18:25:32Z</time>
      </trkpt>
      <trkpt lat="41.646404700" lon="2.490459900">
        <ele>328.90</ele>
        <time>2013-03-23T18:25:37Z</time>
      </trkpt>
      <trkpt lat="41.646389600" lon="2.490450100">
        <ele>328.90</ele>
        <time>2013-03-23T18:25:49Z</time>
      </trkpt>
      <trkpt lat="41.646370200" lon="2.490441100">
        <ele>328.90</ele>
        <time>2013-03-23T18:25:51Z</time>
      </trkpt>
      <trkpt lat="41.646299800" lon="2.490445400">
        <ele>328.90</ele>
        <time>2013-03-23T18:26:00Z</time>
      </trkpt>
      <trkpt lat="41.646240300" lon="2.490472900">
        <ele>328.90</ele>
        <time>2013-03-23T18:26:05Z</time>
      </trkpt>
      <trkpt lat="41.646103600" lon="2.490462500">
        <ele>328.90</ele>
        <time>2013-03-23T18:26:12Z</time>
      </trkpt>
      <trkpt lat="41.645912000" lon="2.490416500">
        <ele>329.90</ele>
        <time>2013-03-23T18:26:22Z</time>
      </trkpt>
      <trkpt lat="41.645708100" lon="2.490351700">
        <ele>329.90</ele>
        <time>2013-03-23T18:26:31Z</time>
      </trkpt>
      <trkpt lat="41.645495600" lon="2.490309800">
        <ele>329.90</ele>
        <time>2013-03-23T18:26:40Z</time>
      </trkpt>
      <trkpt lat="41.645297900" lon="2.490344300">
        <ele>329.90</ele>
        <time>2013-03-23T18:26:48Z</time>
      </trkpt>
      <trkpt lat="41.645090300" lon="2.490338600">
        <ele>330.40</ele>
        <time>2013-03-23T18:26:57Z</time>
      </trkpt>
      <trkpt lat="41.644917400" lon="2.490296300">
        <ele>331.30</ele>
        <time>2013-03-23T18:27:04Z</time>
      </trkpt>
      <trkpt lat="41.644751700" lon="2.490238300">
        <ele>332.30</ele>
        <time>2013-03-23T18:27:13Z</time>
      </trkpt>
      <trkpt lat="41.644562400" lon="2.490194300">
        <ele>334.20</ele>
        <time>2013-03-23T18:27:22Z</time>
      </trkpt>
      <trkpt lat="41.644302700" lon="2.490134200">
        <ele>335.60</ele>
        <time>2013-03-23T18:27:32Z</time>
      </trkpt>
      <trkpt lat="41.644110900" lon="2.489968600">
        <ele>335.20</ele>
        <time>2013-03-23T18:27:39Z</time>
      </trkpt>
      <trkpt lat="41.643936500" lon="2.489763200">
        <ele>335.20</ele>
        <time>2013-03-23T18:27:44Z</time>
      </trkpt>
      <trkpt lat="41.643700200" lon="2.489404300">
        <ele>332.30</ele>
        <time>2013-03-23T18:27:51Z</time>
      </trkpt>
      <trkpt lat="41.643509000" lon="2.489060400">
        <ele>329.90</ele>
        <time>2013-03-23T18:27:55Z</time>
      </trkpt>
      <trkpt lat="41.643480300" lon="2.488771300">
        <ele>328.90</ele>
        <time>2013-03-23T18:27:58Z</time>
      </trkpt>
      <trkpt lat="41.643626800" lon="2.488689000">
        <ele>328.90</ele>
        <time>2013-03-23T18:28:02Z</time>
      </trkpt>
      <trkpt lat="41.643815100" lon="2.488647800">
        <ele>330.80</ele>
        <time>2013-03-23T18:28:10Z</time>
      </trkpt>
      <trkpt lat="41.643953300" lon="2.488536600">
        <ele>332.80</ele>
        <time>2013-03-23T18:28:19Z</time>
      </trkpt>
      <trkpt lat="41.644053200" lon="2.488414500">
        <ele>334.20</ele>
        <time>2013-03-23T18:28:28Z</time>
      </trkpt>
      <trkpt lat="41.644099400" lon="2.488346100">
        <ele>335.20</ele>
        <time>2013-03-23T18:28:31Z</time>
      </trkpt>
      <trkpt lat="41.644067200" lon="2.488127300">
        <ele>336.60</ele>
        <time>2013-03-23T18:28:42Z</time>
      </trkpt>
      <trkpt lat="41.643972000" lon="2.487986300">
        <ele>339.00</ele>
        <time>2013-03-23T18:28:50Z</time>
      </trkpt>
      <trkpt lat="41.643868900" lon="2.487848200">
        <ele>341.40</ele>
        <time>2013-03-23T18:29:01Z</time>
      </trkpt>
      <trkpt lat="41.643834800" lon="2.487787400">
        <ele>342.40</ele>
        <time>2013-03-23T18:29:04Z</time>
      </trkpt>
      <trkpt lat="41.643737500" lon="2.487630600">
        <ele>344.80</ele>
        <time>2013-03-23T18:29:15Z</time>
      </trkpt>
      <trkpt lat="41.643667100" lon="2.487528800">
        <ele>346.20</ele>
        <time>2013-03-23T18:29:22Z</time>
      </trkpt>
      <trkpt lat="41.643618300" lon="2.487492400">
        <ele>347.20</ele>
        <time>2013-03-23T18:29:25Z</time>
      </trkpt>
      <trkpt lat="41.643532800" lon="2.487384300">
        <ele>348.60</ele>
        <time>2013-03-23T18:29:34Z</time>
      </trkpt>
      <trkpt lat="41.643466500" lon="2.487251600">
        <ele>350.10</ele>
        <time>2013-03-23T18:29:43Z</time>
      </trkpt>
      <trkpt lat="41.643391000" lon="2.487065700">
        <ele>352.00</ele>
        <time>2013-03-23T18:29:55Z</time>
      </trkpt>
      <trkpt lat="41.643381700" lon="2.486923300">
        <ele>354.40</ele>
        <time>2013-03-23T18:30:04Z</time>
      </trkpt>
      <trkpt lat="41.643475100" lon="2.486857800">
        <ele>355.80</ele>
        <time>2013-03-23T18:30:12Z</time>
      </trkpt>
      <trkpt lat="41.643550800" lon="2.486839200">
        <ele>356.30</ele>
        <time>2013-03-23T18:30:18Z</time>
      </trkpt>
      <trkpt lat="41.643648800" lon="2.486711800">
        <ele>358.20</ele>
        <time>2013-03-23T18:30:28Z</time>
      </trkpt>
      <trkpt lat="41.643656300" lon="2.486676700">
        <ele>358.70</ele>
        <time>2013-03-23T18:30:30Z</time>
      </trkpt>
      <trkpt lat="41.643673100" lon="2.486528300">
        <ele>360.60</ele>
        <time>2013-03-23T18:30:40Z</time>
      </trkpt>
      <trkpt lat="41.643660800" lon="2.486376500">
        <ele>362.50</ele>
        <time>2013-03-23T18:30:49Z</time>
      </trkpt>
      <trkpt lat="41.643632800" lon="2.486228400">
        <ele>364.00</ele>
        <time>2013-03-23T18:30:58Z</time>
      </trkpt>
      <trkpt lat="41.643615700" lon="2.486033600">
        <ele>365.40</ele>
        <time>2013-03-23T18:31:08Z</time>
      </trkpt>
      <trkpt lat="41.643588100" lon="2.485869900">
        <ele>366.90</ele>
        <time>2013-03-23T18:31:18Z</time>
      </trkpt>
      <trkpt lat="41.643540600" lon="2.485692400">
        <ele>368.80</ele>
        <time>2013-03-23T18:31:29Z</time>
      </trkpt>
      <trkpt lat="41.643451900" lon="2.485610000">
        <ele>370.20</ele>
        <time>2013-03-23T18:31:38Z</time>
      </trkpt>
      <trkpt lat="41.643375000" lon="2.485567100">
        <ele>371.70</ele>
        <time>2013-03-23T18:31:45Z</time>
      </trkpt>
      <trkpt lat="41.643314800" lon="2.485555300">
        <ele>372.60</ele>
        <time>2013-03-23T18:31:50Z</time>
      </trkpt>
      <trkpt lat="41.643239600" lon="2.485468600">
        <ele>373.60</ele>
        <time>2013-03-23T18:31:59Z</time>
      </trkpt>
      <trkpt lat="41.643174500" lon="2.485368700">
        <ele>374.60</ele>
        <time>2013-03-23T18:32:07Z</time>
      </trkpt>
      <trkpt lat="41.643126200" lon="2.485306700">
        <ele>376.00</ele>
        <time>2013-03-23T18:32:12Z</time>
      </trkpt>
      <trkpt lat="41.643045400" lon="2.485154300">
        <ele>377.50</ele>
        <time>2013-03-23T18:32:23Z</time>
      </trkpt>
      <trkpt lat="41.642968500" lon="2.485051800">
        <ele>378.90</ele>
        <time>2013-03-23T18:32:33Z</time>
      </trkpt>
      <trkpt lat="41.642877000" lon="2.484949500">
        <ele>380.80</ele>
        <time>2013-03-23T18:32:42Z</time>
      </trkpt>
      <trkpt lat="41.642741400" lon="2.484885100">
        <ele>382.30</ele>
        <time>2013-03-23T18:32:54Z</time>
      </trkpt>
      <trkpt lat="41.642630200" lon="2.484886600">
        <ele>383.20</ele>
        <time>2013-03-23T18:33:03Z</time>
      </trkpt>
      <trkpt lat="41.642616500" lon="2.484890500">
        <ele>383.20</ele>
        <time>2013-03-23T18:33:03Z</time>
      </trkpt>
      <trkpt lat="41.642538400" lon="2.484893200">
        <ele>384.20</ele>
        <time>2013-03-23T18:33:10Z</time>
      </trkpt>
      <trkpt lat="41.642409000" lon="2.484840600">
        <ele>385.10</ele>
        <time>2013-03-23T18:33:19Z</time>
      </trkpt>
      <trkpt lat="41.642337800" lon="2.484764400">
        <ele>385.60</ele>
        <time>2013-03-23T18:33:26Z</time>
      </trkpt>
      <trkpt lat="41.642285800" lon="2.484636600">
        <ele>386.10</ele>
        <time>2013-03-23T18:33:31Z</time>
      </trkpt>
      <trkpt lat="41.642276300" lon="2.484501900">
        <ele>386.60</ele>
        <time>2013-03-23T18:33:38Z</time>
      </trkpt>
      <trkpt lat="41.642329000" lon="2.484364300">
        <ele>387.10</ele>
        <time>2013-03-23T18:33:45Z</time>
      </trkpt>
      <trkpt lat="41.642359600" lon="2.484264800">
        <ele>387.50</ele>
        <time>2013-03-23T18:33:50Z</time>
      </trkpt>
      <trkpt lat="41.642427200" lon="2.484070300">
        <ele>388.50</ele>
        <time>2013-03-23T18:33:59Z</time>
      </trkpt>
      <trkpt lat="41.642423700" lon="2.483886100">
        <ele>389.00</ele>
        <time>2013-03-23T18:34:07Z</time>
      </trkpt>
      <trkpt lat="41.642391100" lon="2.483726300">
        <ele>390.00</ele>
        <time>2013-03-23T18:34:16Z</time>
      </trkpt>
      <trkpt lat="41.642408900" lon="2.483538800">
        <ele>390.00</ele>
        <time>2013-03-23T18:34:23Z</time>
      </trkpt>
      <trkpt lat="41.642470000" lon="2.483400500">
        <ele>390.90</ele>
        <time>2013-03-23T18:34:30Z</time>
      </trkpt>
      <trkpt lat="41.642550300" lon="2.483191700">
        <ele>391.90</ele>
        <time>2013-03-23T18:34:41Z</time>
      </trkpt>
      <trkpt lat="41.642670700" lon="2.483066400">
        <ele>393.80</ele>
        <time>2013-03-23T18:34:49Z</time>
      </trkpt>
      <trkpt lat="41.642825000" lon="2.483061200">
        <ele>393.80</ele>
        <time>2013-03-23T18:34:58Z</time>
      </trkpt>
      <trkpt lat="41.642629800" lon="2.483083400">
        <ele>397.60</ele>
        <time>2013-03-23T18:35:40Z</time>
      </trkpt>
      <trkpt lat="41.642903400" lon="2.483080600">
        <ele>397.60</ele>
        <time>2013-03-23T18:35:42Z</time>
      </trkpt>
      <trkpt lat="41.642910700" lon="2.483092300">
        <ele>396.70</ele>
        <time>2013-03-23T18:35:54Z</time>
      </trkpt>
      <trkpt lat="41.642997700" lon="2.482999100">
        <ele>393.30</ele>
        <time>2013-03-23T18:36:08Z</time>
      </trkpt>
      <trkpt lat="41.643015100" lon="2.482965200">
        <ele>393.30</ele>
        <time>2013-03-23T18:36:23Z</time>
      </trkpt>
      <trkpt lat="41.643017100" lon="2.482938900">
        <ele>393.30</ele>
        <time>2013-03-23T18:36:29Z</time>
      </trkpt>
      <trkpt lat="41.643017000" lon="2.482835900">
        <ele>393.30</ele>
        <time>2013-03-23T18:36:32Z</time>
      </trkpt>
      <trkpt lat="41.643029300" lon="2.482648700">
        <ele>392.40</ele>
        <time>2013-03-23T18:36:37Z</time>
      </trkpt>
      <trkpt lat="41.643079600" lon="2.482453600">
        <ele>391.40</ele>
        <time>2013-03-23T18:36:39Z</time>
      </trkpt>
      <trkpt lat="41.643131900" lon="2.482224300">
        <ele>390.00</ele>
        <time>2013-03-23T18:36:42Z</time>
      </trkpt>
      <trkpt lat="41.643235700" lon="2.482010900">
        <ele>388.50</ele>
        <time>2013-03-23T18:36:46Z</time>
      </trkpt>
      <trkpt lat="41.643294300" lon="2.481971900">
        <ele>388.50</ele>
        <time>2013-03-23T18:36:46Z</time>
      </trkpt>
      <trkpt lat="41.643401700" lon="2.481917000">
        <ele>388.50</ele>
        <time>2013-03-23T18:36:48Z</time>
      </trkpt>
      <trkpt lat="41.643520900" lon="2.481755900">
        <ele>388.50</ele>
        <time>2013-03-23T18:36:53Z</time>
      </trkpt>
      <trkpt lat="41.643539200" lon="2.481613100">
        <ele>390.00</ele>
        <time>2013-03-23T18:36:58Z</time>
      </trkpt>
      <trkpt lat="41.643520300" lon="2.481442100">
        <ele>391.40</ele>
        <time>2013-03-23T18:37:07Z</time>
      </trkpt>
      <trkpt lat="41.643479100" lon="2.481253900">
        <ele>393.30</ele>
        <time>2013-03-23T18:37:17Z</time>
      </trkpt>
      <trkpt lat="41.643432800" lon="2.481051100">
        <ele>395.20</ele>
        <time>2013-03-23T18:37:26Z</time>
      </trkpt>
      <trkpt lat="41.643382500" lon="2.480915200">
        <ele>395.70</ele>
        <time>2013-03-23T18:37:33Z</time>
      </trkpt>
      <trkpt lat="41.643281800" lon="2.480791600">
        <ele>397.60</ele>
        <time>2013-03-23T18:37:42Z</time>
      </trkpt>
      <trkpt lat="41.643214100" lon="2.480667900">
        <ele>399.10</ele>
        <time>2013-03-23T18:37:49Z</time>
      </trkpt>
      <trkpt lat="41.643218400" lon="2.480480800">
        <ele>401.00</ele>
        <time>2013-03-23T18:37:59Z</time>
      </trkpt>
      <trkpt lat="41.643245100" lon="2.480285800">
        <ele>402.50</ele>
        <time>2013-03-23T18:38:08Z</time>
      </trkpt>
      <trkpt lat="41.643207600" lon="2.480085100">
        <ele>404.40</ele>
        <time>2013-03-23T18:38:18Z</time>
      </trkpt>
      <trkpt lat="41.643165500" lon="2.479922000">
        <ele>405.80</ele>
        <time>2013-03-23T18:38:27Z</time>
      </trkpt>
      <trkpt lat="41.643130800" lon="2.479736000">
        <ele>407.70</ele>
        <time>2013-03-23T18:38:37Z</time>
      </trkpt>
      <trkpt lat="41.643076400" lon="2.479611300">
        <ele>409.20</ele>
        <time>2013-03-23T18:38:46Z</time>
      </trkpt>
      <trkpt lat="41.642971800" lon="2.479510800">
        <ele>410.60</ele>
        <time>2013-03-23T18:38:55Z</time>
      </trkpt>
      <trkpt lat="41.642865100" lon="2.479469400">
        <ele>412.50</ele>
        <time>2013-03-23T18:39:05Z</time>
      </trkpt>
      <trkpt lat="41.642830900" lon="2.479490000">
        <ele>413.50</ele>
        <time>2013-03-23T18:39:07Z</time>
      </trkpt>
      <trkpt lat="41.642848100" lon="2.479635800">
        <ele>415.40</ele>
        <time>2013-03-23T18:39:18Z</time>
      </trkpt>
      <trkpt lat="41.642928600" lon="2.479753700">
        <ele>416.40</ele>
        <time>2013-03-23T18:39:26Z</time>
      </trkpt>
      <trkpt lat="41.642972600" lon="2.479952300">
        <ele>417.40</ele>
        <time>2013-03-23T18:39:37Z</time>
      </trkpt>
      <trkpt lat="41.642969800" lon="2.480154200">
        <ele>417.80</ele>
        <time>2013-03-23T18:39:45Z</time>
      </trkpt>
      <trkpt lat="41.642928100" lon="2.480357000">
        <ele>418.30</ele>
        <time>2013-03-23T18:39:52Z</time>
      </trkpt>
      <trkpt lat="41.642859900" lon="2.480592100">
        <ele>419.30</ele>
        <time>2013-03-23T18:40:01Z</time>
      </trkpt>
      <trkpt lat="41.642879600" lon="2.480871300">
        <ele>419.80</ele>
        <time>2013-03-23T18:40:12Z</time>
      </trkpt>
      <trkpt lat="41.642825700" lon="2.481074800">
        <ele>420.70</ele>
        <time>2013-03-23T18:40:18Z</time>
      </trkpt>
      <trkpt lat="41.642791500" lon="2.481120200">
        <ele>420.70</ele>
        <time>2013-03-23T18:40:20Z</time>
      </trkpt>
      <trkpt lat="41.642554600" lon="2.481266200">
        <ele>420.70</ele>
        <time>2013-03-23T18:40:31Z</time>
      </trkpt>
      <trkpt lat="41.642309900" lon="2.481360100">
        <ele>420.70</ele>
        <time>2013-03-23T18:40:41Z</time>
      </trkpt>
      <trkpt lat="41.642137800" lon="2.481320800">
        <ele>420.70</ele>
        <time>2013-03-23T18:40:48Z</time>
      </trkpt>
      <trkpt lat="41.642106800" lon="2.481489200">
        <ele>420.70</ele>
        <time>2013-03-23T18:40:55Z</time>
      </trkpt>
      <trkpt lat="41.642275700" lon="2.481764700">
        <ele>421.70</ele>
        <time>2013-03-23T18:41:04Z</time>
      </trkpt>
      <trkpt lat="41.642330700" lon="2.481841600">
        <ele>422.20</ele>
        <time>2013-03-23T18:41:07Z</time>
      </trkpt>
      <trkpt lat="41.642296100" lon="2.482044400">
        <ele>422.60</ele>
        <time>2013-03-23T18:41:14Z</time>
      </trkpt>
      <trkpt lat="41.642207000" lon="2.482128400">
        <ele>422.60</ele>
        <time>2013-03-23T18:41:16Z</time>
      </trkpt>
      <trkpt lat="41.642021200" lon="2.482404700">
        <ele>421.20</ele>
        <time>2013-03-23T18:41:25Z</time>
      </trkpt>
      <trkpt lat="41.641974200" lon="2.482739200">
        <ele>420.70</ele>
        <time>2013-03-23T18:41:30Z</time>
      </trkpt>
      <trkpt lat="41.641875500" lon="2.483021900">
        <ele>419.80</ele>
        <time>2013-03-23T18:41:35Z</time>
      </trkpt>
      <trkpt lat="41.641646800" lon="2.483309600">
        <ele>420.20</ele>
        <time>2013-03-23T18:41:44Z</time>
      </trkpt>
      <trkpt lat="41.641404500" lon="2.483518800">
        <ele>421.20</ele>
        <time>2013-03-23T18:41:54Z</time>
      </trkpt>
      <trkpt lat="41.641421800" lon="2.483703100">
        <ele>422.60</ele>
        <time>2013-03-23T18:42:01Z</time>
      </trkpt>
      <trkpt lat="41.641531700" lon="2.483898900">
        <ele>425.00</ele>
        <time>2013-03-23T18:42:10Z</time>
      </trkpt>
      <trkpt lat="41.641506100" lon="2.484119000">
        <ele>426.50</ele>
        <time>2013-03-23T18:42:19Z</time>
      </trkpt>
      <trkpt lat="41.641416100" lon="2.484252500">
        <ele>427.40</ele>
        <time>2013-03-23T18:42:26Z</time>
      </trkpt>
      <trkpt lat="41.641321700" lon="2.484341700">
        <ele>428.90</ele>
        <time>2013-03-23T18:42:33Z</time>
      </trkpt>
      <trkpt lat="41.641187400" lon="2.484426200">
        <ele>431.30</ele>
        <time>2013-03-23T18:42:43Z</time>
      </trkpt>
      <trkpt lat="41.641130500" lon="2.484580100">
        <ele>433.20</ele>
        <time>2013-03-23T18:42:52Z</time>
      </trkpt>
      <trkpt lat="41.641115100" lon="2.484701500">
        <ele>435.10</ele>
        <time>2013-03-23T18:42:57Z</time>
      </trkpt>
      <trkpt lat="41.641046500" lon="2.484756600">
        <ele>436.10</ele>
        <time>2013-03-23T18:43:04Z</time>
      </trkpt>
      <trkpt lat="41.640991600" lon="2.484709100">
        <ele>436.60</ele>
        <time>2013-03-23T18:43:09Z</time>
      </trkpt>
      <trkpt lat="41.640980900" lon="2.484554200">
        <ele>438.50</ele>
        <time>2013-03-23T18:43:18Z</time>
      </trkpt>
      <trkpt lat="41.640965000" lon="2.484452000">
        <ele>438.50</ele>
        <time>2013-03-23T18:43:23Z</time>
      </trkpt>
      <trkpt lat="41.640955300" lon="2.484218500">
        <ele>439.90</ele>
        <time>2013-03-23T18:43:35Z</time>
      </trkpt>
      <trkpt lat="41.640920500" lon="2.484039100">
        <ele>441.40</ele>
        <time>2013-03-23T18:43:44Z</time>
      </trkpt>
      <trkpt lat="41.640877400" lon="2.483861000">
        <ele>443.30</ele>
        <time>2013-03-23T18:43:53Z</time>
      </trkpt>
      <trkpt lat="41.640855100" lon="2.483701000">
        <ele>445.20</ele>
        <time>2013-03-23T18:44:01Z</time>
      </trkpt>
      <trkpt lat="41.640814300" lon="2.483524400">
        <ele>446.70</ele>
        <time>2013-03-23T18:44:12Z</time>
      </trkpt>
      <trkpt lat="41.640751200" lon="2.483364100">
        <ele>448.60</ele>
        <time>2013-03-23T18:44:22Z</time>
      </trkpt>
      <trkpt lat="41.640692600" lon="2.483233300">
        <ele>451.00</ele>
        <time>2013-03-23T18:44:31Z</time>
      </trkpt>
      <trkpt lat="41.640583800" lon="2.483115900">
        <ele>452.90</ele>
        <time>2013-03-23T18:44:40Z</time>
      </trkpt>
      <trkpt lat="41.640479400" lon="2.483010700">
        <ele>455.30</ele>
        <time>2013-03-23T18:44:50Z</time>
      </trkpt>
      <trkpt lat="41.640384100" lon="2.482867200">
        <ele>456.80</ele>
        <time>2013-03-23T18:45:01Z</time>
      </trkpt>
      <trkpt lat="41.640342900" lon="2.482785200">
        <ele>457.20</ele>
        <time>2013-03-23T18:45:08Z</time>
      </trkpt>
      <trkpt lat="41.640311800" lon="2.482666500">
        <ele>458.20</ele>
        <time>2013-03-23T18:45:15Z</time>
      </trkpt>
      <trkpt lat="41.640295500" lon="2.482623200">
        <ele>458.70</ele>
        <time>2013-03-23T18:45:18Z</time>
      </trkpt>
      <trkpt lat="41.640215800" lon="2.482544700">
        <ele>460.60</ele>
        <time>2013-03-23T18:45:25Z</time>
      </trkpt>
      <trkpt lat="41.640132200" lon="2.482601800">
        <ele>461.60</ele>
        <time>2013-03-23T18:45:34Z</time>
      </trkpt>
      <trkpt lat="41.640081300" lon="2.482719800">
        <ele>464.00</ele>
        <time>2013-03-23T18:45:41Z</time>
      </trkpt>
      <trkpt lat="41.640043600" lon="2.482778900">
        <ele>464.90</ele>
        <time>2013-03-23T18:45:46Z</time>
      </trkpt>
      <trkpt lat="41.639936800" lon="2.482820600">
        <ele>465.40</ele>
        <time>2013-03-23T18:45:55Z</time>
      </trkpt>
      <trkpt lat="41.639790400" lon="2.482786000">
        <ele>465.90</ele>
        <time>2013-03-23T18:46:05Z</time>
      </trkpt>
      <trkpt lat="41.639632300" lon="2.482706600">
        <ele>466.90</ele>
        <time>2013-03-23T18:46:17Z</time>
      </trkpt>
      <trkpt lat="41.639458400" lon="2.482649000">
        <ele>467.80</ele>
        <time>2013-03-23T18:46:26Z</time>
      </trkpt>
      <trkpt lat="41.639425100" lon="2.482642400">
        <ele>467.80</ele>
        <time>2013-03-23T18:46:28Z</time>
      </trkpt>
      <trkpt lat="41.639274600" lon="2.482635400">
        <ele>468.30</ele>
        <time>2013-03-23T18:46:38Z</time>
      </trkpt>
      <trkpt lat="41.639142000" lon="2.482689800">
        <ele>469.30</ele>
        <time>2013-03-23T18:46:45Z</time>
      </trkpt>
      <trkpt lat="41.639071700" lon="2.482711400">
        <ele>469.30</ele>
        <time>2013-03-23T18:46:49Z</time>
      </trkpt>
      <trkpt lat="41.638947400" lon="2.482688200">
        <ele>470.70</ele>
        <time>2013-03-23T18:46:57Z</time>
      </trkpt>
      <trkpt lat="41.638888200" lon="2.482545100">
        <ele>472.10</ele>
        <time>2013-03-23T18:47:06Z</time>
      </trkpt>
      <trkpt lat="41.638851900" lon="2.482408000">
        <ele>473.10</ele>
        <time>2013-03-23T18:47:13Z</time>
      </trkpt>
      <trkpt lat="41.638773900" lon="2.482233600">
        <ele>475.50</ele>
        <time>2013-03-23T18:47:22Z</time>
      </trkpt>
      <trkpt lat="41.638651200" lon="2.482219000">
        <ele>477.00</ele>
        <time>2013-03-23T18:47:30Z</time>
      </trkpt>
      <trkpt lat="41.638515200" lon="2.482299500">
        <ele>478.90</ele>
        <time>2013-03-23T18:47:41Z</time>
      </trkpt>
      <trkpt lat="41.638410700" lon="2.482440600">
        <ele>480.80</ele>
        <time>2013-03-23T18:47:50Z</time>
      </trkpt>
      <trkpt lat="41.638322600" lon="2.482554600">
        <ele>481.80</ele>
        <time>2013-03-23T18:47:58Z</time>
      </trkpt>
      <trkpt lat="41.638210200" lon="2.482675100">
        <ele>483.20</ele>
        <time>2013-03-23T18:48:07Z</time>
      </trkpt>
      <trkpt lat="41.638145400" lon="2.482733100">
        <ele>484.60</ele>
        <time>2013-03-23T18:48:12Z</time>
      </trkpt>
      <trkpt lat="41.638036000" lon="2.482887100">
        <ele>486.60</ele>
        <time>2013-03-23T18:48:23Z</time>
      </trkpt>
      <trkpt lat="41.638007700" lon="2.483026000">
        <ele>488.00</ele>
        <time>2013-03-23T18:48:31Z</time>
      </trkpt>
      <trkpt lat="41.638004300" lon="2.483214900">
        <ele>490.90</ele>
        <time>2013-03-23T18:48:42Z</time>
      </trkpt>
      <trkpt lat="41.638002800" lon="2.483377200">
        <ele>492.80</ele>
        <time>2013-03-23T18:48:52Z</time>
      </trkpt>
      <trkpt lat="41.638009100" lon="2.483528000">
        <ele>494.30</ele>
        <time>2013-03-23T18:49:01Z</time>
      </trkpt>
      <trkpt lat="41.638013400" lon="2.483562200">
        <ele>494.30</ele>
        <time>2013-03-23T18:49:03Z</time>
      </trkpt>
      <trkpt lat="41.638009500" lon="2.483630600">
        <ele>494.70</ele>
        <time>2013-03-23T18:49:08Z</time>
      </trkpt>
      <trkpt lat="41.638023900" lon="2.483726100">
        <ele>495.20</ele>
        <time>2013-03-23T18:49:13Z</time>
      </trkpt>
      <trkpt lat="41.637993200" lon="2.483922900">
        <ele>497.10</ele>
        <time>2013-03-23T18:49:24Z</time>
      </trkpt>
      <trkpt lat="41.637932900" lon="2.484046100">
        <ele>497.10</ele>
        <time>2013-03-23T18:49:31Z</time>
      </trkpt>
      <trkpt lat="41.637891900" lon="2.484233500">
        <ele>498.10</ele>
        <time>2013-03-23T18:49:39Z</time>
      </trkpt>
      <trkpt lat="41.637863400" lon="2.484470900">
        <ele>500.00</ele>
        <time>2013-03-23T18:49:50Z</time>
      </trkpt>
      <trkpt lat="41.637815400" lon="2.484683700">
        <ele>502.00</ele>
        <time>2013-03-23T18:50:00Z</time>
      </trkpt>
      <trkpt lat="41.637749500" lon="2.484817000">
        <ele>503.40</ele>
        <time>2013-03-23T18:50:09Z</time>
      </trkpt>
      <trkpt lat="41.637735100" lon="2.484980000">
        <ele>504.40</ele>
        <time>2013-03-23T18:50:16Z</time>
      </trkpt>
      <trkpt lat="41.637752200" lon="2.485206900">
        <ele>504.80</ele>
        <time>2013-03-23T18:50:26Z</time>
      </trkpt>
      <trkpt lat="41.637782000" lon="2.485438400">
        <ele>504.80</ele>
        <time>2013-03-23T18:50:35Z</time>
      </trkpt>
      <trkpt lat="41.637737800" lon="2.485796100">
        <ele>504.80</ele>
        <time>2013-03-23T18:50:42Z</time>
      </trkpt>
      <trkpt lat="41.637712400" lon="2.486161400">
        <ele>503.40</ele>
        <time>2013-03-23T18:50:49Z</time>
      </trkpt>
      <trkpt lat="41.637716700" lon="2.486559200">
        <ele>502.90</ele>
        <time>2013-03-23T18:50:58Z</time>
      </trkpt>
      <trkpt lat="41.637740400" lon="2.486964900">
        <ele>502.90</ele>
        <time>2013-03-23T18:51:05Z</time>
      </trkpt>
      <trkpt lat="41.637626900" lon="2.487127600">
        <ele>502.90</ele>
        <time>2013-03-23T18:51:10Z</time>
      </trkpt>
      <trkpt lat="41.637520900" lon="2.487141300">
        <ele>503.90</ele>
        <time>2013-03-23T18:51:15Z</time>
      </trkpt>
      <trkpt lat="41.637450200" lon="2.487142900">
        <ele>504.40</ele>
        <time>2013-03-23T18:51:17Z</time>
      </trkpt>
      <trkpt lat="41.637233700" lon="2.487120000">
        <ele>505.30</ele>
        <time>2013-03-23T18:51:26Z</time>
      </trkpt>
      <trkpt lat="41.636966600" lon="2.487197800">
        <ele>505.80</ele>
        <time>2013-03-23T18:51:34Z</time>
      </trkpt>
      <trkpt lat="41.636796800" lon="2.487211800">
        <ele>505.80</ele>
        <time>2013-03-23T18:51:38Z</time>
      </trkpt>
      <trkpt lat="41.636503100" lon="2.487170100">
        <ele>505.80</ele>
        <time>2013-03-23T18:51:48Z</time>
      </trkpt>
      <trkpt lat="41.636285400" lon="2.487095000">
        <ele>505.80</ele>
        <time>2013-03-23T18:51:55Z</time>
      </trkpt>
      <trkpt lat="41.636014900" lon="2.487071400">
        <ele>506.80</ele>
        <time>2013-03-23T18:52:04Z</time>
      </trkpt>
      <trkpt lat="41.635791800" lon="2.486957500">
        <ele>506.30</ele>
        <time>2013-03-23T18:52:13Z</time>
      </trkpt>
      <trkpt lat="41.635647700" lon="2.486746400">
        <ele>506.80</ele>
        <time>2013-03-23T18:52:20Z</time>
      </trkpt>
      <trkpt lat="41.635533600" lon="2.486357600">
        <ele>507.20</ele>
        <time>2013-03-23T18:52:30Z</time>
      </trkpt>
      <trkpt lat="41.635396400" lon="2.486123600">
        <ele>508.20</ele>
        <time>2013-03-23T18:52:37Z</time>
      </trkpt>
      <trkpt lat="41.635323300" lon="2.486053300">
        <ele>509.20</ele>
        <time>2013-03-23T18:52:44Z</time>
      </trkpt>
      <trkpt lat="41.635180400" lon="2.485987800">
        <ele>511.60</ele>
        <time>2013-03-23T18:52:53Z</time>
      </trkpt>
      <trkpt lat="41.635061800" lon="2.485883700">
        <ele>514.00</ele>
        <time>2013-03-23T18:53:03Z</time>
      </trkpt>
      <trkpt lat="41.634974100" lon="2.485749800">
        <ele>515.40</ele>
        <time>2013-03-23T18:53:12Z</time>
      </trkpt>
      <trkpt lat="41.634896000" lon="2.485595500">
        <ele>516.80</ele>
        <time>2013-03-23T18:53:21Z</time>
      </trkpt>
      <trkpt lat="41.634827300" lon="2.485456700">
        <ele>517.80</ele>
        <time>2013-03-23T18:53:29Z</time>
      </trkpt>
      <trkpt lat="41.634761100" lon="2.485316000">
        <ele>519.20</ele>
        <time>2013-03-23T18:53:36Z</time>
      </trkpt>
      <trkpt lat="41.634693400" lon="2.485129300">
        <ele>520.70</ele>
        <time>2013-03-23T18:53:47Z</time>
      </trkpt>
      <trkpt lat="41.634637200" lon="2.485012600">
        <ele>522.10</ele>
        <time>2013-03-23T18:53:54Z</time>
      </trkpt>
      <trkpt lat="41.634552800" lon="2.485009400">
        <ele>523.60</ele>
        <time>2013-03-23T18:54:01Z</time>
      </trkpt>
      <trkpt lat="41.634526700" lon="2.485113500">
        <ele>524.50</ele>
        <time>2013-03-23T18:54:08Z</time>
      </trkpt>
      <trkpt lat="41.634526500" lon="2.485132300">
        <ele>525.00</ele>
        <time>2013-03-23T18:54:09Z</time>
      </trkpt>
      <trkpt lat="41.634540000" lon="2.485324900">
        <ele>526.90</ele>
        <time>2013-03-23T18:54:18Z</time>
      </trkpt>
      <trkpt lat="41.634549400" lon="2.485468600">
        <ele>527.90</ele>
        <time>2013-03-23T18:54:27Z</time>
      </trkpt>
      <trkpt lat="41.634577600" lon="2.485611300">
        <ele>529.80</ele>
        <time>2013-03-23T18:54:34Z</time>
      </trkpt>
      <trkpt lat="41.634577000" lon="2.485632500">
        <ele>529.80</ele>
        <time>2013-03-23T18:54:35Z</time>
      </trkpt>
      <trkpt lat="41.634570200" lon="2.485707900">
        <ele>530.30</ele>
        <time>2013-03-23T18:54:39Z</time>
      </trkpt>
      <trkpt lat="41.634460100" lon="2.485732400">
        <ele>532.70</ele>
        <time>2013-03-23T18:54:49Z</time>
      </trkpt>
      <trkpt lat="41.634380600" lon="2.485573600">
        <ele>534.60</ele>
        <time>2013-03-23T18:55:00Z</time>
      </trkpt>
      <trkpt lat="41.634274500" lon="2.485451700">
        <ele>536.50</ele>
        <time>2013-03-23T18:55:10Z</time>
      </trkpt>
      <trkpt lat="41.634127000" lon="2.485367500">
        <ele>538.00</ele>
        <time>2013-03-23T18:55:21Z</time>
      </trkpt>
      <trkpt lat="41.634022600" lon="2.485313300">
        <ele>539.00</ele>
        <time>2013-03-23T18:55:29Z</time>
      </trkpt>
      <trkpt lat="41.633883100" lon="2.485216900">
        <ele>540.90</ele>
        <time>2013-03-23T18:55:40Z</time>
      </trkpt>
      <trkpt lat="41.633750500" lon="2.485213200">
        <ele>542.30</ele>
        <time>2013-03-23T18:55:49Z</time>
      </trkpt>
      <trkpt lat="41.633598000" lon="2.485306100">
        <ele>544.70</ele>
        <time>2013-03-23T18:56:01Z</time>
      </trkpt>
      <trkpt lat="41.633460200" lon="2.485428400">
        <ele>546.20</ele>
        <time>2013-03-23T18:56:11Z</time>
      </trkpt>
      <trkpt lat="41.633322800" lon="2.485550000">
        <ele>547.10</ele>
        <time>2013-03-23T18:56:22Z</time>
      </trkpt>
      <trkpt lat="41.633202000" lon="2.485656500">
        <ele>548.10</ele>
        <time>2013-03-23T18:56:30Z</time>
      </trkpt>
      <trkpt lat="41.633095100" lon="2.485724700">
        <ele>549.00</ele>
        <time>2013-03-23T18:56:39Z</time>
      </trkpt>
      <trkpt lat="41.633007400" lon="2.485761000">
        <ele>549.50</ele>
        <time>2013-03-23T18:56:44Z</time>
      </trkpt>
      <trkpt lat="41.632937800" lon="2.485790100">
        <ele>550.00</ele>
        <time>2013-03-23T18:56:48Z</time>
      </trkpt>
      <trkpt lat="41.632767800" lon="2.485860300">
        <ele>551.90</ele>
        <time>2013-03-23T18:57:00Z</time>
      </trkpt>
      <trkpt lat="41.632642200" lon="2.485937400">
        <ele>553.90</ele>
        <time>2013-03-23T18:57:09Z</time>
      </trkpt>
      <trkpt lat="41.632496700" lon="2.486034200">
        <ele>555.30</ele>
        <time>2013-03-23T18:57:19Z</time>
      </trkpt>
      <trkpt lat="41.632368100" lon="2.486088400">
        <ele>557.20</ele>
        <time>2013-03-23T18:57:28Z</time>
      </trkpt>
      <trkpt lat="41.632272700" lon="2.486054500">
        <ele>558.70</ele>
        <time>2013-03-23T18:57:35Z</time>
      </trkpt>
      <trkpt lat="41.632176500" lon="2.485938400">
        <ele>560.10</ele>
        <time>2013-03-23T18:57:42Z</time>
      </trkpt>
      <trkpt lat="41.632104600" lon="2.485788900">
        <ele>562.00</ele>
        <time>2013-03-23T18:57:52Z</time>
      </trkpt>
      <trkpt lat="41.632071300" lon="2.485590500">
        <ele>564.00</ele>
        <time>2013-03-23T18:58:01Z</time>
      </trkpt>
      <trkpt lat="41.632034400" lon="2.485400800">
        <ele>565.40</ele>
        <time>2013-03-23T18:58:12Z</time>
      </trkpt>
      <trkpt lat="41.632007100" lon="2.485239400">
        <ele>566.80</ele>
        <time>2013-03-23T18:58:20Z</time>
      </trkpt>
      <trkpt lat="41.631986800" lon="2.485086500">
        <ele>567.30</ele>
        <time>2013-03-23T18:58:27Z</time>
      </trkpt>
      <trkpt lat="41.631971700" lon="2.484839200">
        <ele>568.80</ele>
        <time>2013-03-23T18:58:39Z</time>
      </trkpt>
      <trkpt lat="41.631969600" lon="2.484820900">
        <ele>568.80</ele>
        <time>2013-03-23T18:58:41Z</time>
      </trkpt>
      <trkpt lat="41.631886000" lon="2.484743000">
        <ele>570.70</ele>
        <time>2013-03-23T18:58:48Z</time>
      </trkpt>
      <trkpt lat="41.631776400" lon="2.484854100">
        <ele>571.60</ele>
        <time>2013-03-23T18:58:57Z</time>
      </trkpt>
      <trkpt lat="41.631703900" lon="2.484996200">
        <ele>572.60</ele>
        <time>2013-03-23T18:59:06Z</time>
      </trkpt>
      <trkpt lat="41.631606500" lon="2.485156400">
        <ele>573.10</ele>
        <time>2013-03-23T18:59:14Z</time>
      </trkpt>
      <trkpt lat="41.631528600" lon="2.485310000">
        <ele>573.60</ele>
        <time>2013-03-23T18:59:23Z</time>
      </trkpt>
      <trkpt lat="41.631415100" lon="2.485437400">
        <ele>573.60</ele>
        <time>2013-03-23T18:59:30Z</time>
      </trkpt>
      <trkpt lat="41.631244600" lon="2.485447100">
        <ele>574.00</ele>
        <time>2013-03-23T18:59:37Z</time>
      </trkpt>
      <trkpt lat="41.631068300" lon="2.485279300">
        <ele>574.00</ele>
        <time>2013-03-23T18:59:46Z</time>
      </trkpt>
      <trkpt lat="41.630883300" lon="2.485119400">
        <ele>574.00</ele>
        <time>2013-03-23T18:59:54Z</time>
      </trkpt>
      <trkpt lat="41.630691800" lon="2.484915000">
        <ele>574.50</ele>
        <time>2013-03-23T19:00:03Z</time>
      </trkpt>
      <trkpt lat="41.630545000" lon="2.484719400">
        <ele>575.00</ele>
        <time>2013-03-23T19:00:10Z</time>
      </trkpt>
      <trkpt lat="41.630379200" lon="2.484434100">
        <ele>576.00</ele>
        <time>2013-03-23T19:00:22Z</time>
      </trkpt>
      <trkpt lat="41.630218500" lon="2.484240600">
        <ele>578.40</ele>
        <time>2013-03-23T19:00:31Z</time>
      </trkpt>
      <trkpt lat="41.630027800" lon="2.484117200">
        <ele>580.30</ele>
        <time>2013-03-23T19:00:41Z</time>
      </trkpt>
      <trkpt lat="41.629855700" lon="2.484022200">
        <ele>581.20</ele>
        <time>2013-03-23T19:00:50Z</time>
      </trkpt>
      <trkpt lat="41.629660500" lon="2.484020000">
        <ele>582.20</ele>
        <time>2013-03-23T19:00:57Z</time>
      </trkpt>
      <trkpt lat="41.629411100" lon="2.484003800">
        <ele>582.20</ele>
        <time>2013-03-23T19:01:06Z</time>
      </trkpt>
      <trkpt lat="41.629216600" lon="2.483910600">
        <ele>582.20</ele>
        <time>2013-03-23T19:01:14Z</time>
      </trkpt>
      <trkpt lat="41.629037900" lon="2.483820500">
        <ele>582.20</ele>
        <time>2013-03-23T19:01:21Z</time>
      </trkpt>
      <trkpt lat="41.628883200" lon="2.483714000">
        <ele>583.20</ele>
        <time>2013-03-23T19:01:28Z</time>
      </trkpt>
      <trkpt lat="41.628741000" lon="2.483536700">
        <ele>583.70</ele>
        <time>2013-03-23T19:01:37Z</time>
      </trkpt>
      <trkpt lat="41.628679300" lon="2.483316100">
        <ele>585.60</ele>
        <time>2013-03-23T19:01:44Z</time>
      </trkpt>
      <trkpt lat="41.628609600" lon="2.483070100">
        <ele>587.00</ele>
        <time>2013-03-23T19:01:53Z</time>
      </trkpt>
      <trkpt lat="41.628576200" lon="2.483047300">
        <ele>587.50</ele>
        <time>2013-03-23T19:01:56Z</time>
      </trkpt>
      <trkpt lat="41.628510300" lon="2.483090800">
        <ele>589.00</ele>
        <time>2013-03-23T19:02:00Z</time>
      </trkpt>
      <trkpt lat="41.628373900" lon="2.483340500">
        <ele>589.90</ele>
        <time>2013-03-23T19:02:10Z</time>
      </trkpt>
      <trkpt lat="41.628243000" lon="2.483571000">
        <ele>591.30</ele>
        <time>2013-03-23T19:02:22Z</time>
      </trkpt>
      <trkpt lat="41.628099300" lon="2.483621200">
        <ele>591.80</ele>
        <time>2013-03-23T19:02:29Z</time>
      </trkpt>
      <trkpt lat="41.627972900" lon="2.483516400">
        <ele>593.30</ele>
        <time>2013-03-23T19:02:38Z</time>
      </trkpt>
      <trkpt lat="41.627871200" lon="2.483365900">
        <ele>594.20</ele>
        <time>2013-03-23T19:02:45Z</time>
      </trkpt>
      <trkpt lat="41.627788300" lon="2.483167200">
        <ele>595.70</ele>
        <time>2013-03-23T19:02:54Z</time>
      </trkpt>
      <trkpt lat="41.627740700" lon="2.483037700">
        <ele>595.70</ele>
        <time>2013-03-23T19:03:01Z</time>
      </trkpt>
      <trkpt lat="41.627729700" lon="2.483030400">
        <ele>596.20</ele>
        <time>2013-03-23T19:03:08Z</time>
      </trkpt>
      <trkpt lat="41.627709600" lon="2.483022900">
        <ele>596.20</ele>
        <time>2013-03-23T19:03:25Z</time>
      </trkpt>
      <trkpt lat="41.627707700" lon="2.482983600">
        <ele>596.20</ele>
        <time>2013-03-23T19:03:29Z</time>
      </trkpt>
      <trkpt lat="41.627636400" lon="2.482916900">
        <ele>596.20</ele>
        <time>2013-03-23T19:03:34Z</time>
      </trkpt>
      <trkpt lat="41.627514700" lon="2.482849900">
        <ele>593.80</ele>
        <time>2013-03-23T19:03:39Z</time>
      </trkpt>
      <trkpt lat="41.627426100" lon="2.482864500">
        <ele>592.80</ele>
        <time>2013-03-23T19:03:41Z</time>
      </trkpt>
      <trkpt lat="41.627338600" lon="2.482919700">
        <ele>590.90</ele>
        <time>2013-03-23T19:03:44Z</time>
      </trkpt>
      <trkpt lat="41.627131200" lon="2.483101800">
        <ele>587.50</ele>
        <time>2013-03-23T19:03:48Z</time>
      </trkpt>
      <trkpt lat="41.626910800" lon="2.483162800">
        <ele>583.20</ele>
        <time>2013-03-23T19:03:51Z</time>
      </trkpt>
      <trkpt lat="41.626712400" lon="2.483059600">
        <ele>580.80</ele>
        <time>2013-03-23T19:03:55Z</time>
      </trkpt>
      <trkpt lat="41.626679600" lon="2.483083100">
        <ele>580.80</ele>
        <time>2013-03-23T19:03:56Z</time>
      </trkpt>
      <trkpt lat="41.626625700" lon="2.483268300">
        <ele>580.30</ele>
        <time>2013-03-23T19:04:00Z</time>
      </trkpt>
      <trkpt lat="41.626616700" lon="2.483317700">
        <ele>580.30</ele>
        <time>2013-03-23T19:04:02Z</time>
      </trkpt>
      <trkpt lat="41.626542600" lon="2.483606900">
        <ele>582.20</ele>
        <time>2013-03-23T19:04:09Z</time>
      </trkpt>
      <trkpt lat="41.626388100" lon="2.483757200">
        <ele>582.70</ele>
        <time>2013-03-23T19:04:14Z</time>
      </trkpt>
      <trkpt lat="41.626162600" lon="2.483968400">
        <ele>579.30</ele>
        <time>2013-03-23T19:04:19Z</time>
      </trkpt>
      <trkpt lat="41.625988400" lon="2.484163900">
        <ele>575.50</ele>
        <time>2013-03-23T19:04:23Z</time>
      </trkpt>
      <trkpt lat="41.625934500" lon="2.484216900">
        <ele>575.00</ele>
        <time>2013-03-23T19:04:24Z</time>
      </trkpt>
      <trkpt lat="41.625814400" lon="2.484296300">
        <ele>573.60</ele>
        <time>2013-03-23T19:04:26Z</time>
      </trkpt>
      <trkpt lat="41.625747700" lon="2.484331500">
        <ele>572.60</ele>
        <time>2013-03-23T19:04:26Z</time>
      </trkpt>
      <trkpt lat="41.625620000" lon="2.484419600">
        <ele>572.10</ele>
        <time>2013-03-23T19:04:28Z</time>
      </trkpt>
      <trkpt lat="41.625431400" lon="2.484514500">
        <ele>568.30</ele>
        <time>2013-03-23T19:04:31Z</time>
      </trkpt>
      <trkpt lat="41.625241100" lon="2.484491200">
        <ele>565.40</ele>
        <time>2013-03-23T19:04:35Z</time>
      </trkpt>
      <trkpt lat="41.625279700" lon="2.484367700">
        <ele>564.90</ele>
        <time>2013-03-23T19:04:38Z</time>
      </trkpt>
      <trkpt lat="41.625404700" lon="2.484258900">
        <ele>563.50</ele>
        <time>2013-03-23T19:04:42Z</time>
      </trkpt>
      <trkpt lat="41.625454900" lon="2.483998300">
        <ele>562.00</ele>
        <time>2013-03-23T19:04:45Z</time>
      </trkpt>
      <trkpt lat="41.625380700" lon="2.483918000">
        <ele>562.00</ele>
        <time>2013-03-23T19:04:47Z</time>
      </trkpt>
      <trkpt lat="41.625279300" lon="2.483868500">
        <ele>561.10</ele>
        <time>2013-03-23T19:04:49Z</time>
      </trkpt>
      <trkpt lat="41.625137500" lon="2.483948900">
        <ele>557.20</ele>
        <time>2013-03-23T19:04:54Z</time>
      </trkpt>
      <trkpt lat="41.625130900" lon="2.484073400">
        <ele>556.70</ele>
        <time>2013-03-23T19:04:56Z</time>
      </trkpt>
      <trkpt lat="41.625052200" lon="2.484264800">
        <ele>556.30</ele>
        <time>2013-03-23T19:04:59Z</time>
      </trkpt>
      <trkpt lat="41.625033700" lon="2.484595600">
        <ele>554.30</ele>
        <time>2013-03-23T19:05:04Z</time>
      </trkpt>
      <trkpt lat="41.625030700" lon="2.484867000">
        <ele>553.40</ele>
        <time>2013-03-23T19:05:08Z</time>
      </trkpt>
      <trkpt lat="41.624978200" lon="2.485104800">
        <ele>553.40</ele>
        <time>2013-03-23T19:05:11Z</time>
      </trkpt>
      <trkpt lat="41.624928800" lon="2.485407300">
        <ele>551.50</ele>
        <time>2013-03-23T19:05:15Z</time>
      </trkpt>
      <trkpt lat="41.624895600" lon="2.485583300">
        <ele>550.00</ele>
        <time>2013-03-23T19:05:18Z</time>
      </trkpt>
      <trkpt lat="41.624885200" lon="2.485938700">
        <ele>545.70</ele>
        <time>2013-03-23T19:05:22Z</time>
      </trkpt>
      <trkpt lat="41.624876100" lon="2.486090700">
        <ele>542.30</ele>
        <time>2013-03-23T19:05:24Z</time>
      </trkpt>
      <trkpt lat="41.624859500" lon="2.486277500">
        <ele>539.90</ele>
        <time>2013-03-23T19:05:27Z</time>
      </trkpt>
      <trkpt lat="41.624849400" lon="2.486739300">
        <ele>536.10</ele>
        <time>2013-03-23T19:05:32Z</time>
      </trkpt>
      <trkpt lat="41.624984700" lon="2.487141100">
        <ele>531.30</ele>
        <time>2013-03-23T19:05:36Z</time>
      </trkpt>
      <trkpt lat="41.625040200" lon="2.487194300">
        <ele>530.80</ele>
        <time>2013-03-23T19:05:37Z</time>
      </trkpt>
      <trkpt lat="41.625358000" lon="2.487424500">
        <ele>530.80</ele>
        <time>2013-03-23T19:05:43Z</time>
      </trkpt>
      <trkpt lat="41.625557300" lon="2.487647800">
        <ele>529.80</ele>
        <time>2013-03-23T19:05:48Z</time>
      </trkpt>
      <trkpt lat="41.625697500" lon="2.487906400">
        <ele>528.40</ele>
        <time>2013-03-23T19:05:53Z</time>
      </trkpt>
      <trkpt lat="41.625740200" lon="2.488061800">
        <ele>526.90</ele>
        <time>2013-03-23T19:05:55Z</time>
      </trkpt>
      <trkpt lat="41.625688100" lon="2.488379700">
        <ele>522.60</ele>
        <time>2013-03-23T19:06:00Z</time>
      </trkpt>
      <trkpt lat="41.625436100" lon="2.488729800">
        <ele>519.20</ele>
        <time>2013-03-23T19:06:05Z</time>
      </trkpt>
      <trkpt lat="41.625301200" lon="2.489160300">
        <ele>516.80</ele>
        <time>2013-03-23T19:06:09Z</time>
      </trkpt>
      <trkpt lat="41.625236400" lon="2.489363400">
        <ele>515.40</ele>
        <time>2013-03-23T19:06:12Z</time>
      </trkpt>
      <trkpt lat="41.625018500" lon="2.489845200">
        <ele>511.10</ele>
        <time>2013-03-23T19:06:16Z</time>
      </trkpt>
      <trkpt lat="41.624701900" lon="2.490259400">
        <ele>510.10</ele>
        <time>2013-03-23T19:06:23Z</time>
      </trkpt>
      <trkpt lat="41.624537400" lon="2.490574300">
        <ele>510.10</ele>
        <time>2013-03-23T19:06:28Z</time>
      </trkpt>
      <trkpt lat="41.624349300" lon="2.491126200">
        <ele>509.20</ele>
        <time>2013-03-23T19:06:35Z</time>
      </trkpt>
      <trkpt lat="41.624327900" lon="2.491613000">
        <ele>507.20</ele>
        <time>2013-03-23T19:06:40Z</time>
      </trkpt>
      <trkpt lat="41.624245000" lon="2.492207400">
        <ele>506.80</ele>
        <time>2013-03-23T19:06:47Z</time>
      </trkpt>
      <trkpt lat="41.624224700" lon="2.492291600">
        <ele>505.80</ele>
        <time>2013-03-23T19:06:49Z</time>
      </trkpt>
      <trkpt lat="41.624105500" lon="2.492592000">
        <ele>505.30</ele>
        <time>2013-03-23T19:06:52Z</time>
      </trkpt>
      <trkpt lat="41.624053000" lon="2.492859000">
        <ele>505.30</ele>
        <time>2013-03-23T19:06:56Z</time>
      </trkpt>
      <trkpt lat="41.624094400" lon="2.493317500">
        <ele>505.30</ele>
        <time>2013-03-23T19:07:05Z</time>
      </trkpt>
      <trkpt lat="41.624187700" lon="2.493903500">
        <ele>505.30</ele>
        <time>2013-03-23T19:07:13Z</time>
      </trkpt>
      <trkpt lat="41.624265300" lon="2.494195400">
        <ele>505.30</ele>
        <time>2013-03-23T19:07:20Z</time>
      </trkpt>
      <trkpt lat="41.624301400" lon="2.494296100">
        <ele>505.30</ele>
        <time>2013-03-23T19:07:22Z</time>
      </trkpt>
      <trkpt lat="41.624303900" lon="2.494520200">
        <ele>505.30</ele>
        <time>2013-03-23T19:07:25Z</time>
      </trkpt>
      <trkpt lat="41.624251000" lon="2.494911500">
        <ele>506.80</ele>
        <time>2013-03-23T19:07:34Z</time>
      </trkpt>
      <trkpt lat="41.624292200" lon="2.495301100">
        <ele>507.20</ele>
        <time>2013-03-23T19:07:41Z</time>
      </trkpt>
      <trkpt lat="41.624300000" lon="2.495618300">
        <ele>508.70</ele>
        <time>2013-03-23T19:07:48Z</time>
      </trkpt>
      <trkpt lat="41.624249700" lon="2.495987900">
        <ele>509.20</ele>
        <time>2013-03-23T19:07:57Z</time>
      </trkpt>
      <trkpt lat="41.624096600" lon="2.496261600">
        <ele>510.10</ele>
        <time>2013-03-23T19:08:04Z</time>
      </trkpt>
      <trkpt lat="41.623927000" lon="2.496401000">
        <ele>512.00</ele>
        <time>2013-03-23T19:08:11Z</time>
      </trkpt>
      <trkpt lat="41.623732500" lon="2.496428100">
        <ele>513.50</ele>
        <time>2013-03-23T19:08:18Z</time>
      </trkpt>
      <trkpt lat="41.623522900" lon="2.496332600">
        <ele>513.50</ele>
        <time>2013-03-23T19:08:23Z</time>
      </trkpt>
      <trkpt lat="41.623430500" lon="2.496209900">
        <ele>513.50</ele>
        <time>2013-03-23T19:08:26Z</time>
      </trkpt>
      <trkpt lat="41.623296200" lon="2.495931300">
        <ele>512.00</ele>
        <time>2013-03-23T19:08:32Z</time>
      </trkpt>
      <trkpt lat="41.623116800" lon="2.495682400">
        <ele>510.60</ele>
        <time>2013-03-23T19:08:37Z</time>
      </trkpt>
      <trkpt lat="41.623140800" lon="2.495475900">
        <ele>510.10</ele>
        <time>2013-03-23T19:08:40Z</time>
      </trkpt>
      <trkpt lat="41.623182400" lon="2.495354000">
        <ele>510.10</ele>
        <time>2013-03-23T19:08:42Z</time>
      </trkpt>
      <trkpt lat="41.623210500" lon="2.495147100">
        <ele>509.60</ele>
        <time>2013-03-23T19:08:44Z</time>
      </trkpt>
      <trkpt lat="41.623130400" lon="2.494606200">
        <ele>509.20</ele>
        <time>2013-03-23T19:08:53Z</time>
      </trkpt>
      <trkpt lat="41.623093000" lon="2.494490500">
        <ele>509.20</ele>
        <time>2013-03-23T19:08:54Z</time>
      </trkpt>
      <trkpt lat="41.622898500" lon="2.494159100">
        <ele>508.20</ele>
        <time>2013-03-23T19:09:01Z</time>
      </trkpt>
      <trkpt lat="41.622658300" lon="2.493956000">
        <ele>508.20</ele>
        <time>2013-03-23T19:09:08Z</time>
      </trkpt>
      <trkpt lat="41.622435100" lon="2.493967700">
        <ele>508.20</ele>
        <time>2013-03-23T19:09:13Z</time>
      </trkpt>
      <trkpt lat="41.622245300" lon="2.493917800">
        <ele>508.20</ele>
        <time>2013-03-23T19:09:19Z</time>
      </trkpt>
      <trkpt lat="41.622154800" lon="2.493748000">
        <ele>509.60</ele>
        <time>2013-03-23T19:09:24Z</time>
      </trkpt>
      <trkpt lat="41.622006400" lon="2.493567200">
        <ele>510.10</ele>
        <time>2013-03-23T19:09:31Z</time>
      </trkpt>
      <trkpt lat="41.621848900" lon="2.493642200">
        <ele>510.10</ele>
        <time>2013-03-23T19:09:36Z</time>
      </trkpt>
      <trkpt lat="41.621580900" lon="2.493889000">
        <ele>511.10</ele>
        <time>2013-03-23T19:09:45Z</time>
      </trkpt>
      <trkpt lat="41.621453700" lon="2.494034100">
        <ele>511.60</ele>
        <time>2013-03-23T19:09:50Z</time>
      </trkpt>
      <trkpt lat="41.621441000" lon="2.494081600">
        <ele>511.60</ele>
        <time>2013-03-23T19:09:50Z</time>
      </trkpt>
      <trkpt lat="41.621466000" lon="2.494572400">
        <ele>511.60</ele>
        <time>2013-03-23T19:09:59Z</time>
      </trkpt>
      <trkpt lat="41.621360600" lon="2.494822700">
        <ele>511.60</ele>
        <time>2013-03-23T19:10:04Z</time>
      </trkpt>
      <trkpt lat="41.621222100" lon="2.495134700">
        <ele>510.60</ele>
        <time>2013-03-23T19:10:11Z</time>
      </trkpt>
      <trkpt lat="41.621062000" lon="2.495248500">
        <ele>509.60</ele>
        <time>2013-03-23T19:10:14Z</time>
      </trkpt>
      <trkpt lat="41.620957500" lon="2.495198800">
        <ele>508.70</ele>
        <time>2013-03-23T19:10:16Z</time>
      </trkpt>
      <trkpt lat="41.620573200" lon="2.494844200">
        <ele>505.30</ele>
        <time>2013-03-23T19:10:25Z</time>
      </trkpt>
      <trkpt lat="41.620364300" lon="2.494824000">
        <ele>502.40</ele>
        <time>2013-03-23T19:10:28Z</time>
      </trkpt>
      <trkpt lat="41.620316600" lon="2.494892600">
        <ele>502.40</ele>
        <time>2013-03-23T19:10:30Z</time>
      </trkpt>
      <trkpt lat="41.620156500" lon="2.495094700">
        <ele>500.50</ele>
        <time>2013-03-23T19:10:32Z</time>
      </trkpt>
      <trkpt lat="41.619867500" lon="2.495444300">
        <ele>497.10</ele>
        <time>2013-03-23T19:10:39Z</time>
      </trkpt>
      <trkpt lat="41.619865300" lon="2.495490900">
        <ele>497.10</ele>
        <time>2013-03-23T19:10:41Z</time>
      </trkpt>
      <trkpt lat="41.619915200" lon="2.495738100">
        <ele>497.10</ele>
        <time>2013-03-23T19:10:46Z</time>
      </trkpt>
      <trkpt lat="41.620099100" lon="2.496245000">
        <ele>494.30</ele>
        <time>2013-03-23T19:10:53Z</time>
      </trkpt>
      <trkpt lat="41.620147700" lon="2.496404100">
        <ele>493.80</ele>
        <time>2013-03-23T19:10:56Z</time>
      </trkpt>
      <trkpt lat="41.620173200" lon="2.496563700">
        <ele>493.30</ele>
        <time>2013-03-23T19:10:58Z</time>
      </trkpt>
      <trkpt lat="41.620197400" lon="2.496692600">
        <ele>491.40</ele>
        <time>2013-03-23T19:11:00Z</time>
      </trkpt>
      <trkpt lat="41.620327900" lon="2.497023900">
        <ele>488.50</ele>
        <time>2013-03-23T19:11:05Z</time>
      </trkpt>
      <trkpt lat="41.620383300" lon="2.497262200">
        <ele>486.10</ele>
        <time>2013-03-23T19:11:08Z</time>
      </trkpt>
      <trkpt lat="41.620392300" lon="2.497444400">
        <ele>483.70</ele>
        <time>2013-03-23T19:11:12Z</time>
      </trkpt>
      <trkpt lat="41.620401600" lon="2.497512700">
        <ele>482.70</ele>
        <time>2013-03-23T19:11:12Z</time>
      </trkpt>
      <trkpt lat="41.620482000" lon="2.497816100">
        <ele>478.90</ele>
        <time>2013-03-23T19:11:17Z</time>
      </trkpt>
      <trkpt lat="41.620487600" lon="2.498082200">
        <ele>475.00</ele>
        <time>2013-03-23T19:11:22Z</time>
      </trkpt>
      <trkpt lat="41.620477700" lon="2.498335300">
        <ele>470.70</ele>
        <time>2013-03-23T19:11:26Z</time>
      </trkpt>
      <trkpt lat="41.620500500" lon="2.498480900">
        <ele>469.70</ele>
        <time>2013-03-23T19:11:28Z</time>
      </trkpt>
      <trkpt lat="41.620617500" lon="2.498650300">
        <ele>467.30</ele>
        <time>2013-03-23T19:11:31Z</time>
      </trkpt>
      <trkpt lat="41.620743000" lon="2.498770600">
        <ele>464.90</ele>
        <time>2013-03-23T19:11:33Z</time>
      </trkpt>
      <trkpt lat="41.620768500" lon="2.498990300">
        <ele>462.00</ele>
        <time>2013-03-23T19:11:38Z</time>
      </trkpt>
      <trkpt lat="41.620719000" lon="2.499006400">
        <ele>461.60</ele>
        <time>2013-03-23T19:11:38Z</time>
      </trkpt>
      <trkpt lat="41.620556800" lon="2.498997300">
        <ele>460.10</ele>
        <time>2013-03-23T19:11:42Z</time>
      </trkpt>
      <trkpt lat="41.620377300" lon="2.498983300">
        <ele>457.20</ele>
        <time>2013-03-23T19:11:45Z</time>
      </trkpt>
      <trkpt lat="41.620192600" lon="2.498980100">
        <ele>454.80</ele>
        <time>2013-03-23T19:11:50Z</time>
      </trkpt>
      <trkpt lat="41.619980200" lon="2.498862100">
        <ele>451.00</ele>
        <time>2013-03-23T19:11:54Z</time>
      </trkpt>
      <trkpt lat="41.619855100" lon="2.498781300">
        <ele>448.60</ele>
        <time>2013-03-23T19:11:59Z</time>
      </trkpt>
      <trkpt lat="41.619838000" lon="2.498891800">
        <ele>447.10</ele>
        <time>2013-03-23T19:12:02Z</time>
      </trkpt>
      <trkpt lat="41.619980700" lon="2.499039500">
        <ele>445.70</ele>
        <time>2013-03-23T19:12:06Z</time>
      </trkpt>
      <trkpt lat="41.619997800" lon="2.499154000">
        <ele>444.30</ele>
        <time>2013-03-23T19:12:09Z</time>
      </trkpt>
      <trkpt lat="41.619953500" lon="2.499389300">
        <ele>441.40</ele>
        <time>2013-03-23T19:12:13Z</time>
      </trkpt>
      <trkpt lat="41.620005400" lon="2.499540100">
        <ele>439.90</ele>
        <time>2013-03-23T19:12:16Z</time>
      </trkpt>
      <trkpt lat="41.620052300" lon="2.499563400">
        <ele>439.00</ele>
        <time>2013-03-23T19:12:16Z</time>
      </trkpt>
      <trkpt lat="41.620310700" lon="2.499761900">
        <ele>434.60</ele>
        <time>2013-03-23T19:12:22Z</time>
      </trkpt>
      <trkpt lat="41.620366500" lon="2.499915900">
        <ele>433.20</ele>
        <time>2013-03-23T19:12:23Z</time>
      </trkpt>
      <trkpt lat="41.620411400" lon="2.500150200">
        <ele>430.80</ele>
        <time>2013-03-23T19:12:27Z</time>
      </trkpt>
      <trkpt lat="41.620458600" lon="2.500303800">
        <ele>429.90</ele>
        <time>2013-03-23T19:12:29Z</time>
      </trkpt>
      <trkpt lat="41.620567200" lon="2.500401100">
        <ele>428.90</ele>
        <time>2013-03-23T19:12:32Z</time>
      </trkpt>
      <trkpt lat="41.620686500" lon="2.500340500">
        <ele>427.90</ele>
        <time>2013-03-23T19:12:36Z</time>
      </trkpt>
      <trkpt lat="41.620734200" lon="2.500289200">
        <ele>427.90</ele>
        <time>2013-03-23T19:12:37Z</time>
      </trkpt>
      <trkpt lat="41.620866500" lon="2.500120300">
        <ele>427.40</ele>
        <time>2013-03-23T19:12:41Z</time>
      </trkpt>
      <trkpt lat="41.621097400" lon="2.499983700">
        <ele>426.00</ele>
        <time>2013-03-23T19:12:46Z</time>
      </trkpt>
      <trkpt lat="41.621213100" lon="2.500080400">
        <ele>425.00</ele>
        <time>2013-03-23T19:12:49Z</time>
      </trkpt>
      <trkpt lat="41.621211100" lon="2.500286300">
        <ele>422.60</ele>
        <time>2013-03-23T19:12:53Z</time>
      </trkpt>
      <trkpt lat="41.621283000" lon="2.500522200">
        <ele>420.20</ele>
        <time>2013-03-23T19:12:56Z</time>
      </trkpt>
      <trkpt lat="41.621323000" lon="2.500664300">
        <ele>418.30</ele>
        <time>2013-03-23T19:12:58Z</time>
      </trkpt>
      <trkpt lat="41.621405500" lon="2.501025300">
        <ele>414.00</ele>
        <time>2013-03-23T19:13:05Z</time>
      </trkpt>
      <trkpt lat="41.621446900" lon="2.501100600">
        <ele>412.50</ele>
        <time>2013-03-23T19:13:07Z</time>
      </trkpt>
      <trkpt lat="41.621478000" lon="2.501188500">
        <ele>412.10</ele>
        <time>2013-03-23T19:13:09Z</time>
      </trkpt>
      <trkpt lat="41.621400300" lon="2.501250800">
        <ele>410.10</ele>
        <time>2013-03-23T19:13:12Z</time>
      </trkpt>
      <trkpt lat="41.621330600" lon="2.501141100">
        <ele>408.70</ele>
        <time>2013-03-23T19:13:16Z</time>
      </trkpt>
      <trkpt lat="41.621279100" lon="2.501092800">
        <ele>407.30</ele>
        <time>2013-03-23T19:13:17Z</time>
      </trkpt>
      <trkpt lat="41.621117000" lon="2.500919000">
        <ele>405.30</ele>
        <time>2013-03-23T19:13:24Z</time>
      </trkpt>
      <trkpt lat="41.620970900" lon="2.500902700">
        <ele>403.40</ele>
        <time>2013-03-23T19:13:30Z</time>
      </trkpt>
      <trkpt lat="41.620795800" lon="2.501037200">
        <ele>401.00</ele>
        <time>2013-03-23T19:13:33Z</time>
      </trkpt>
      <trkpt lat="41.620695200" lon="2.501180800">
        <ele>399.10</ele>
        <time>2013-03-23T19:13:36Z</time>
      </trkpt>
      <trkpt lat="41.620579100" lon="2.501340300">
        <ele>397.60</ele>
        <time>2013-03-23T19:13:40Z</time>
      </trkpt>
      <trkpt lat="41.620418600" lon="2.501456900">
        <ele>397.20</ele>
        <time>2013-03-23T19:13:42Z</time>
      </trkpt>
      <trkpt lat="41.620174800" lon="2.501462200">
        <ele>395.70</ele>
        <time>2013-03-23T19:13:47Z</time>
      </trkpt>
      <trkpt lat="41.620120800" lon="2.501412100">
        <ele>394.80</ele>
        <time>2013-03-23T19:13:47Z</time>
      </trkpt>
      <trkpt lat="41.619919100" lon="2.501099400">
        <ele>391.90</ele>
        <time>2013-03-23T19:13:52Z</time>
      </trkpt>
      <trkpt lat="41.619758300" lon="2.500936500">
        <ele>388.50</ele>
        <time>2013-03-23T19:13:57Z</time>
      </trkpt>
      <trkpt lat="41.619636800" lon="2.500721900">
        <ele>385.10</ele>
        <time>2013-03-23T19:14:01Z</time>
      </trkpt>
      <trkpt lat="41.619499700" lon="2.500652900">
        <ele>381.80</ele>
        <time>2013-03-23T19:14:06Z</time>
      </trkpt>
      <trkpt lat="41.619391500" lon="2.500688000">
        <ele>379.90</ele>
        <time>2013-03-23T19:14:11Z</time>
      </trkpt>
      <trkpt lat="41.619367100" lon="2.500716400">
        <ele>379.40</ele>
        <time>2013-03-23T19:14:15Z</time>
      </trkpt>
      <trkpt lat="41.619360700" lon="2.500726800">
        <ele>379.40</ele>
        <time>2013-03-23T19:14:25Z</time>
      </trkpt>
      <trkpt lat="41.619433100" lon="2.500920700">
        <ele>375.50</ele>
        <time>2013-03-23T19:14:32Z</time>
      </trkpt>
      <trkpt lat="41.619511700" lon="2.501067800">
        <ele>372.60</ele>
        <time>2013-03-23T19:14:36Z</time>
      </trkpt>
      <trkpt lat="41.619579800" lon="2.501191800">
        <ele>370.20</ele>
        <time>2013-03-23T19:14:41Z</time>
      </trkpt>
      <trkpt lat="41.619612700" lon="2.501368600">
        <ele>367.40</ele>
        <time>2013-03-23T19:14:44Z</time>
      </trkpt>
      <trkpt lat="41.619590100" lon="2.501497000">
        <ele>365.00</ele>
        <time>2013-03-23T19:14:48Z</time>
      </trkpt>
      <trkpt lat="41.619540300" lon="2.501856600">
        <ele>359.70</ele>
        <time>2013-03-23T19:14:53Z</time>
      </trkpt>
      <trkpt lat="41.619569400" lon="2.502048300">
        <ele>356.30</ele>
        <time>2013-03-23T19:14:57Z</time>
      </trkpt>
      <trkpt lat="41.619579900" lon="2.502307900">
        <ele>351.50</ele>
        <time>2013-03-23T19:15:00Z</time>
      </trkpt>
      <trkpt lat="41.619591400" lon="2.502582900">
        <ele>348.10</ele>
        <time>2013-03-23T19:15:05Z</time>
      </trkpt>
      <trkpt lat="41.619584000" lon="2.502639600">
        <ele>346.70</ele>
        <time>2013-03-23T19:15:05Z</time>
      </trkpt>
      <trkpt lat="41.619576600" lon="2.502771800">
        <ele>344.30</ele>
        <time>2013-03-23T19:15:07Z</time>
      </trkpt>
      <trkpt lat="41.619553500" lon="2.502907600">
        <ele>342.40</ele>
        <time>2013-03-23T19:15:09Z</time>
      </trkpt>
      <trkpt lat="41.619529400" lon="2.503193600">
        <ele>338.50</ele>
        <time>2013-03-23T19:15:14Z</time>
      </trkpt>
      <trkpt lat="41.619502200" lon="2.503240900">
        <ele>338.00</ele>
        <time>2013-03-23T19:15:16Z</time>
      </trkpt>
      <trkpt lat="41.619470800" lon="2.503151200">
        <ele>337.60</ele>
        <time>2013-03-23T19:15:19Z</time>
      </trkpt>
      <trkpt lat="41.619434400" lon="2.502757900">
        <ele>335.20</ele>
        <time>2013-03-23T19:15:26Z</time>
      </trkpt>
      <trkpt lat="41.619429800" lon="2.502723400">
        <ele>333.70</ele>
        <time>2013-03-23T19:15:28Z</time>
      </trkpt>
      <trkpt lat="41.619368000" lon="2.502792400">
        <ele>331.80</ele>
        <time>2013-03-23T19:15:31Z</time>
      </trkpt>
      <trkpt lat="41.619319500" lon="2.503102500">
        <ele>328.90</ele>
        <time>2013-03-23T19:15:37Z</time>
      </trkpt>
      <trkpt lat="41.619134300" lon="2.503632800">
        <ele>323.60</ele>
        <time>2013-03-23T19:15:44Z</time>
      </trkpt>
      <trkpt lat="41.619111100" lon="2.503703700">
        <ele>322.70</ele>
        <time>2013-03-23T19:15:45Z</time>
      </trkpt>
      <trkpt lat="41.619042900" lon="2.503967700">
        <ele>318.80</ele>
        <time>2013-03-23T19:15:49Z</time>
      </trkpt>
      <trkpt lat="41.619012000" lon="2.504065400">
        <ele>317.40</ele>
        <time>2013-03-23T19:15:51Z</time>
      </trkpt>
      <trkpt lat="41.618938100" lon="2.504012500">
        <ele>315.90</ele>
        <time>2013-03-23T19:15:56Z</time>
      </trkpt>
      <trkpt lat="41.618922400" lon="2.503886400">
        <ele>313.50</ele>
        <time>2013-03-23T19:15:58Z</time>
      </trkpt>
      <trkpt lat="41.618913400" lon="2.503745000">
        <ele>313.00</ele>
        <time>2013-03-23T19:15:59Z</time>
      </trkpt>
      <trkpt lat="41.618932400" lon="2.503449900">
        <ele>308.70</ele>
        <time>2013-03-23T19:16:03Z</time>
      </trkpt>
      <trkpt lat="41.618967700" lon="2.503258200">
        <ele>307.30</ele>
        <time>2013-03-23T19:16:06Z</time>
      </trkpt>
      <trkpt lat="41.618905300" lon="2.503100000">
        <ele>303.40</ele>
        <time>2013-03-23T19:16:12Z</time>
      </trkpt>
      <trkpt lat="41.618803900" lon="2.503141900">
        <ele>301.00</ele>
        <time>2013-03-23T19:16:15Z</time>
      </trkpt>
      <trkpt lat="41.618704300" lon="2.503186000">
        <ele>299.10</ele>
        <time>2013-03-23T19:16:17Z</time>
      </trkpt>
      <trkpt lat="41.618531200" lon="2.503306100">
        <ele>297.20</ele>
        <time>2013-03-23T19:16:20Z</time>
      </trkpt>
      <trkpt lat="41.618396500" lon="2.503511500">
        <ele>295.30</ele>
        <time>2013-03-23T19:16:24Z</time>
      </trkpt>
      <trkpt lat="41.618275200" lon="2.503782500">
        <ele>292.40</ele>
        <time>2013-03-23T19:16:29Z</time>
      </trkpt>
      <trkpt lat="41.618209900" lon="2.504040300">
        <ele>289.00</ele>
        <time>2013-03-23T19:16:31Z</time>
      </trkpt>
      <trkpt lat="41.618066900" lon="2.504382600">
        <ele>283.20</ele>
        <time>2013-03-23T19:16:36Z</time>
      </trkpt>
      <trkpt lat="41.617862600" lon="2.504797400">
        <ele>278.90</ele>
        <time>2013-03-23T19:16:41Z</time>
      </trkpt>
      <trkpt lat="41.617819900" lon="2.504879000">
        <ele>278.40</ele>
        <time>2013-03-23T19:16:41Z</time>
      </trkpt>
      <trkpt lat="41.617712600" lon="2.505189200">
        <ele>275.10</ele>
        <time>2013-03-23T19:16:46Z</time>
      </trkpt>
      <trkpt lat="41.617658700" lon="2.505478000">
        <ele>270.30</ele>
        <time>2013-03-23T19:16:50Z</time>
      </trkpt>
      <trkpt lat="41.617590200" lon="2.505710900">
        <ele>265.50</ele>
        <time>2013-03-23T19:16:53Z</time>
      </trkpt>
      <trkpt lat="41.617553100" lon="2.505855100">
        <ele>263.50</ele>
        <time>2013-03-23T19:16:55Z</time>
      </trkpt>
      <trkpt lat="41.617543700" lon="2.506144200">
        <ele>260.60</ele>
        <time>2013-03-23T19:16:59Z</time>
      </trkpt>
      <trkpt lat="41.617559000" lon="2.506580700">
        <ele>255.90</ele>
        <time>2013-03-23T19:17:04Z</time>
      </trkpt>
      <trkpt lat="41.617519900" lon="2.506914600">
        <ele>251.00</ele>
        <time>2013-03-23T19:17:07Z</time>
      </trkpt>
      <trkpt lat="41.617530200" lon="2.507280600">
        <ele>249.10</ele>
        <time>2013-03-23T19:17:11Z</time>
      </trkpt>
      <trkpt lat="41.617475000" lon="2.507601200">
        <ele>244.80</ele>
        <time>2013-03-23T19:17:16Z</time>
      </trkpt>
      <trkpt lat="41.617448600" lon="2.507895000">
        <ele>242.40</ele>
        <time>2013-03-23T19:17:18Z</time>
      </trkpt>
      <trkpt lat="41.617365500" lon="2.508285300">
        <ele>239.50</ele>
        <time>2013-03-23T19:17:23Z</time>
      </trkpt>
      <trkpt lat="41.617331300" lon="2.508378300">
        <ele>238.10</ele>
        <time>2013-03-23T19:17:23Z</time>
      </trkpt>
      <trkpt lat="41.617147600" lon="2.508932200">
        <ele>234.20</ele>
        <time>2013-03-23T19:17:30Z</time>
      </trkpt>
      <trkpt lat="41.617071600" lon="2.509176200">
        <ele>231.80</ele>
        <time>2013-03-23T19:17:33Z</time>
      </trkpt>
      <trkpt lat="41.616975100" lon="2.509419300">
        <ele>231.30</ele>
        <time>2013-03-23T19:17:37Z</time>
      </trkpt>
      <trkpt lat="41.616861000" lon="2.509713100">
        <ele>229.90</ele>
        <time>2013-03-23T19:17:42Z</time>
      </trkpt>
      <trkpt lat="41.616786100" lon="2.510035500">
        <ele>228.40</ele>
        <time>2013-03-23T19:17:47Z</time>
      </trkpt>
      <trkpt lat="41.616685100" lon="2.510511800">
        <ele>223.20</ele>
        <time>2013-03-23T19:17:54Z</time>
      </trkpt>
      <trkpt lat="41.616596200" lon="2.510645800">
        <ele>221.20</ele>
        <time>2013-03-23T19:17:56Z</time>
      </trkpt>
      <trkpt lat="41.616474700" lon="2.510878100">
        <ele>219.80</ele>
        <time>2013-03-23T19:17:58Z</time>
      </trkpt>
      <trkpt lat="41.616445700" lon="2.510969700">
        <ele>218.80</ele>
        <time>2013-03-23T19:17:59Z</time>
      </trkpt>
      <trkpt lat="41.616389800" lon="2.511226000">
        <ele>217.40</ele>
        <time>2013-03-23T19:18:03Z</time>
      </trkpt>
      <trkpt lat="41.616379300" lon="2.511452800">
        <ele>216.90</ele>
        <time>2013-03-23T19:18:05Z</time>
      </trkpt>
      <trkpt lat="41.616505100" lon="2.511833900">
        <ele>215.00</ele>
        <time>2013-03-23T19:18:12Z</time>
      </trkpt>
      <trkpt lat="41.616732200" lon="2.512317400">
        <ele>213.60</ele>
        <time>2013-03-23T19:18:19Z</time>
      </trkpt>
      <trkpt lat="41.616763800" lon="2.512397100">
        <ele>213.10</ele>
        <time>2013-03-23T19:18:19Z</time>
      </trkpt>
      <trkpt lat="41.616862600" lon="2.512854200">
        <ele>212.10</ele>
        <time>2013-03-23T19:18:24Z</time>
      </trkpt>
      <trkpt lat="41.616899500" lon="2.513768100">
        <ele>209.70</ele>
        <time>2013-03-23T19:18:34Z</time>
      </trkpt>
      <trkpt lat="41.616910100" lon="2.514428400">
        <ele>207.80</ele>
        <time>2013-03-23T19:18:41Z</time>
      </trkpt>
      <trkpt lat="41.616904500" lon="2.514935400">
        <ele>205.40</ele>
        <time>2013-03-23T19:18:47Z</time>
      </trkpt>
      <trkpt lat="41.616891600" lon="2.515333900">
        <ele>204.40</ele>
        <time>2013-03-23T19:18:50Z</time>
      </trkpt>
      <trkpt lat="41.616870600" lon="2.516083100">
        <ele>201.50</ele>
        <time>2013-03-23T19:18:59Z</time>
      </trkpt>
      <trkpt lat="41.616829300" lon="2.516790300">
        <ele>199.60</ele>
        <time>2013-03-23T19:19:06Z</time>
      </trkpt>
      <trkpt lat="41.616820900" lon="2.516896500">
        <ele>199.60</ele>
        <time>2013-03-23T19:19:06Z</time>
      </trkpt>
      <trkpt lat="41.616758100" lon="2.517647000">
        <ele>197.20</ele>
        <time>2013-03-23T19:19:13Z</time>
      </trkpt>
      <trkpt lat="41.616752700" lon="2.518299200">
        <ele>195.30</ele>
        <time>2013-03-23T19:19:20Z</time>
      </trkpt>
      <trkpt lat="41.616648000" lon="2.518715200">
        <ele>193.40</ele>
        <time>2013-03-23T19:19:25Z</time>
      </trkpt>
      <trkpt lat="41.616606000" lon="2.518829400">
        <ele>193.40</ele>
        <time>2013-03-23T19:19:27Z</time>
      </trkpt>
      <trkpt lat="41.616479200" lon="2.519407500">
        <ele>192.90</ele>
        <time>2013-03-23T19:19:35Z</time>
      </trkpt>
      <trkpt lat="41.616376600" lon="2.519827500">
        <ele>191.90</ele>
        <time>2013-03-23T19:19:39Z</time>
      </trkpt>
      <trkpt lat="41.616337300" lon="2.520004100">
        <ele>191.00</ele>
        <time>2013-03-23T19:19:42Z</time>
      </trkpt>
      <trkpt lat="41.616105700" lon="2.520720200">
        <ele>189.50</ele>
        <time>2013-03-23T19:19:49Z</time>
      </trkpt>
      <trkpt lat="41.616005800" lon="2.521063500">
        <ele>188.60</ele>
        <time>2013-03-23T19:19:51Z</time>
      </trkpt>
      <trkpt lat="41.615839500" lon="2.522150000">
        <ele>186.60</ele>
        <time>2013-03-23T19:20:00Z</time>
      </trkpt>
      <trkpt lat="41.615690600" lon="2.523177000">
        <ele>182.80</ele>
        <time>2013-03-23T19:20:08Z</time>
      </trkpt>
      <trkpt lat="41.615658900" lon="2.523554100">
        <ele>181.80</ele>
        <time>2013-03-23T19:20:12Z</time>
      </trkpt>
      <trkpt lat="41.615620700" lon="2.524114100">
        <ele>179.40</ele>
        <time>2013-03-23T19:20:17Z</time>
      </trkpt>
      <trkpt lat="41.615559600" lon="2.524853100">
        <ele>176.10</ele>
        <time>2013-03-23T19:20:22Z</time>
      </trkpt>
      <trkpt lat="41.615529900" lon="2.525229500">
        <ele>175.10</ele>
        <time>2013-03-23T19:20:26Z</time>
      </trkpt>
      <trkpt lat="41.615533800" lon="2.525990800">
        <ele>172.70</ele>
        <time>2013-03-23T19:20:31Z</time>
      </trkpt>
      <trkpt lat="41.615595500" lon="2.526824000">
        <ele>170.30</ele>
        <time>2013-03-23T19:20:38Z</time>
      </trkpt>
      <trkpt lat="41.615457000" lon="2.527755800">
        <ele>166.00</ele>
        <time>2013-03-23T19:20:47Z</time>
      </trkpt>
      <trkpt lat="41.615280300" lon="2.528610000">
        <ele>164.00</ele>
        <time>2013-03-23T19:20:54Z</time>
      </trkpt>
      <trkpt lat="41.615210600" lon="2.529022200">
        <ele>162.60</ele>
        <time>2013-03-23T19:20:57Z</time>
      </trkpt>
      <trkpt lat="41.615185900" lon="2.529344500">
        <ele>161.20</ele>
        <time>2013-03-23T19:21:01Z</time>
      </trkpt>
      <trkpt lat="41.615183400" lon="2.529424700">
        <ele>160.70</ele>
        <time>2013-03-23T19:21:02Z</time>
      </trkpt>
      <trkpt lat="41.615203900" lon="2.530140100">
        <ele>159.70</ele>
        <time>2013-03-23T19:21:09Z</time>
      </trkpt>
      <trkpt lat="41.615166900" lon="2.530995400">
        <ele>157.30</ele>
        <time>2013-03-23T19:21:16Z</time>
      </trkpt>
      <trkpt lat="41.615144800" lon="2.531258000">
        <ele>154.90</ele>
        <time>2013-03-23T19:21:20Z</time>
      </trkpt>
      <trkpt lat="41.615200800" lon="2.531652100">
        <ele>153.90</ele>
        <time>2013-03-23T19:21:25Z</time>
      </trkpt>
      <trkpt lat="41.615196500" lon="2.531978000">
        <ele>152.50</ele>
        <time>2013-03-23T19:21:27Z</time>
      </trkpt>
      <trkpt lat="41.615036000" lon="2.532760300">
        <ele>150.60</ele>
        <time>2013-03-23T19:21:34Z</time>
      </trkpt>
      <trkpt lat="41.614816400" lon="2.533553100">
        <ele>148.70</ele>
        <time>2013-03-23T19:21:41Z</time>
      </trkpt>
      <trkpt lat="41.614615700" lon="2.534228700">
        <ele>146.30</ele>
        <time>2013-03-23T19:21:48Z</time>
      </trkpt>
      <trkpt lat="41.614364800" lon="2.534968200">
        <ele>143.90</ele>
        <time>2013-03-23T19:21:55Z</time>
      </trkpt>
      <trkpt lat="41.614082400" lon="2.535778500">
        <ele>141.00</ele>
        <time>2013-03-23T19:22:02Z</time>
      </trkpt>
      <trkpt lat="41.613847700" lon="2.536390500">
        <ele>138.60</ele>
        <time>2013-03-23T19:22:10Z</time>
      </trkpt>
      <trkpt lat="41.613736000" lon="2.536612800">
        <ele>137.60</ele>
        <time>2013-03-23T19:22:14Z</time>
      </trkpt>
      <trkpt lat="41.613719700" lon="2.536625300">
        <ele>137.10</ele>
        <time>2013-03-23T19:22:21Z</time>
      </trkpt>
      <trkpt lat="41.613718900" lon="2.536627500">
        <ele>137.10</ele>
        <time>2013-03-23T19:22:35Z</time>
      </trkpt>
      <trkpt lat="41.613707400" lon="2.536620100">
        <ele>137.10</ele>
        <time>2013-03-23T19:22:49Z</time>
      </trkpt>
      <trkpt lat="41.613703000" lon="2.536626600">
        <ele>137.10</ele>
        <time>2013-03-23T19:23:01Z</time>
      </trkpt>
      <trkpt lat="41.613703500" lon="2.536635700">
        <ele>137.10</ele>
        <time>2013-03-23T19:23:15Z</time>
      </trkpt>
      <trkpt lat="41.613705200" lon="2.536637600">
        <ele>137.10</ele>
        <time>2013-03-23T19:23:27Z</time>
      </trkpt>
      <trkpt lat="41.613629600" lon="2.536775500">
        <ele>137.10</ele>
        <time>2013-03-23T19:23:37Z</time>
      </trkpt>
      <trkpt lat="41.613528300" lon="2.537003200">
        <ele>136.60</ele>
        <time>2013-03-23T19:23:43Z</time>
      </trkpt>
      <trkpt lat="41.613242000" lon="2.537365400">
        <ele>135.70</ele>
        <time>2013-03-23T19:23:51Z</time>
      </trkpt>
      <trkpt lat="41.612824300" lon="2.537816100">
        <ele>133.80</ele>
        <time>2013-03-23T19:24:02Z</time>
      </trkpt>
      <trkpt lat="41.612781200" lon="2.537867600">
        <ele>133.80</ele>
        <time>2013-03-23T19:24:02Z</time>
      </trkpt>
      <trkpt lat="41.612655000" lon="2.538015200">
        <ele>133.30</ele>
        <time>2013-03-23T19:24:05Z</time>
      </trkpt>
      <trkpt lat="41.612401200" lon="2.538332300">
        <ele>132.30</ele>
        <time>2013-03-23T19:24:12Z</time>
      </trkpt>
      <trkpt lat="41.612248600" lon="2.538583100">
        <ele>130.90</ele>
        <time>2013-03-23T19:24:16Z</time>
      </trkpt>
      <trkpt lat="41.612193600" lon="2.538702400">
        <ele>130.40</ele>
        <time>2013-03-23T19:24:18Z</time>
      </trkpt>
      <trkpt lat="41.612038800" lon="2.539006600">
        <ele>128.90</ele>
        <time>2013-03-23T19:24:24Z</time>
      </trkpt>
      <trkpt lat="41.611915000" lon="2.539217500">
        <ele>128.00</ele>
        <time>2013-03-23T19:24:30Z</time>
      </trkpt>
      <trkpt lat="41.611858600" lon="2.539305800">
        <ele>128.00</ele>
        <time>2013-03-23T19:24:33Z</time>
      </trkpt>
      <trkpt lat="41.611668100" lon="2.539497400">
        <ele>127.00</ele>
        <time>2013-03-23T19:24:38Z</time>
      </trkpt>
      <trkpt lat="41.611619500" lon="2.539649200">
        <ele>127.00</ele>
        <time>2013-03-23T19:24:44Z</time>
      </trkpt>
      <trkpt lat="41.611672100" lon="2.539882800">
        <ele>127.00</ele>
        <time>2013-03-23T19:24:49Z</time>
      </trkpt>
      <trkpt lat="41.611691800" lon="2.540145700">
        <ele>128.00</ele>
        <time>2013-03-23T19:24:54Z</time>
      </trkpt>
      <trkpt lat="41.611686100" lon="2.540355500">
        <ele>128.90</ele>
        <time>2013-03-23T19:25:01Z</time>
      </trkpt>
      <trkpt lat="41.611678500" lon="2.540669200">
        <ele>131.40</ele>
        <time>2013-03-23T19:25:08Z</time>
      </trkpt>
      <trkpt lat="41.611684000" lon="2.540755800">
        <ele>131.80</ele>
        <time>2013-03-23T19:25:12Z</time>
      </trkpt>
      <trkpt lat="41.611549700" lon="2.540840300">
        <ele>132.30</ele>
        <time>2013-03-23T19:25:17Z</time>
      </trkpt>
      <trkpt lat="41.611468300" lon="2.540884700">
        <ele>132.30</ele>
        <time>2013-03-23T19:25:18Z</time>
      </trkpt>
      <trkpt lat="41.611065200" lon="2.541046000">
        <ele>129.90</ele>
        <time>2013-03-23T19:25:27Z</time>
      </trkpt>
      <trkpt lat="41.610508700" lon="2.541286600">
        <ele>128.00</ele>
        <time>2013-03-23T19:25:36Z</time>
      </trkpt>
      <trkpt lat="41.610396900" lon="2.541343300">
        <ele>127.00</ele>
        <time>2013-03-23T19:25:38Z</time>
      </trkpt>
      <trkpt lat="41.610268700" lon="2.541517300">
        <ele>126.60</ele>
        <time>2013-03-23T19:25:41Z</time>
      </trkpt>
      <trkpt lat="41.610270800" lon="2.541608300">
        <ele>126.60</ele>
        <time>2013-03-23T19:25:43Z</time>
      </trkpt>
      <trkpt lat="41.610309600" lon="2.541817100">
        <ele>128.00</ele>
        <time>2013-03-23T19:25:50Z</time>
      </trkpt>
      <trkpt lat="41.610327700" lon="2.541873300">
        <ele>128.00</ele>
        <time>2013-03-23T19:25:52Z</time>
      </trkpt>
      <trkpt lat="41.610221300" lon="2.541951200">
        <ele>128.90</ele>
        <time>2013-03-23T19:25:57Z</time>
      </trkpt>
      <trkpt lat="41.610078900" lon="2.541984500">
        <ele>131.40</ele>
        <time>2013-03-23T19:26:04Z</time>
      </trkpt>
      <trkpt lat="41.609941900" lon="2.542031100">
        <ele>132.80</ele>
        <time>2013-03-23T19:26:11Z</time>
      </trkpt>
      <trkpt lat="41.609738500" lon="2.542099900">
        <ele>135.20</ele>
        <time>2013-03-23T19:26:21Z</time>
      </trkpt>
      <trkpt lat="41.609579200" lon="2.542151000">
        <ele>136.60</ele>
        <time>2013-03-23T19:26:30Z</time>
      </trkpt>
      <trkpt lat="41.609524000" lon="2.542156700">
        <ele>138.10</ele>
        <time>2013-03-23T19:26:33Z</time>
      </trkpt>
      <trkpt lat="41.609454200" lon="2.542193700">
        <ele>138.60</ele>
        <time>2013-03-23T19:26:37Z</time>
      </trkpt>
      <trkpt lat="41.609258700" lon="2.542196800">
        <ele>141.40</ele>
        <time>2013-03-23T19:26:47Z</time>
      </trkpt>
      <trkpt lat="41.609149800" lon="2.542209000">
        <ele>142.90</ele>
        <time>2013-03-23T19:26:53Z</time>
      </trkpt>
      <trkpt lat="41.609001700" lon="2.542204200">
        <ele>144.30</ele>
        <time>2013-03-23T19:27:01Z</time>
      </trkpt>
      <trkpt lat="41.608860400" lon="2.542181600">
        <ele>145.80</ele>
        <time>2013-03-23T19:27:08Z</time>
      </trkpt>
      <trkpt lat="41.608788100" lon="2.542162100">
        <ele>146.70</ele>
        <time>2013-03-23T19:27:12Z</time>
      </trkpt>
      <trkpt lat="41.608595800" lon="2.542131900">
        <ele>149.10</ele>
        <time>2013-03-23T19:27:22Z</time>
      </trkpt>
      <trkpt lat="41.608512600" lon="2.542088000">
        <ele>150.10</ele>
        <time>2013-03-23T19:27:27Z</time>
      </trkpt>
      <trkpt lat="41.608371900" lon="2.542047900">
        <ele>150.60</ele>
        <time>2013-03-23T19:27:36Z</time>
      </trkpt>
      <trkpt lat="41.608258100" lon="2.542004300">
        <ele>151.10</ele>
        <time>2013-03-23T19:27:41Z</time>
      </trkpt>
      <trkpt lat="41.608143900" lon="2.541953800">
        <ele>151.10</ele>
        <time>2013-03-23T19:27:48Z</time>
      </trkpt>
      <trkpt lat="41.607970200" lon="2.541887000">
        <ele>149.60</ele>
        <time>2013-03-23T19:27:54Z</time>
      </trkpt>
      <trkpt lat="41.607925700" lon="2.541865300">
        <ele>149.60</ele>
        <time>2013-03-23T19:27:55Z</time>
      </trkpt>
      <trkpt lat="41.607723500" lon="2.541887900">
        <ele>147.70</ele>
        <time>2013-03-23T19:27:59Z</time>
      </trkpt>
      <trkpt lat="41.607631900" lon="2.542070000">
        <ele>145.30</ele>
        <time>2013-03-23T19:28:02Z</time>
      </trkpt>
      <trkpt lat="41.607628800" lon="2.542158700">
        <ele>144.80</ele>
        <time>2013-03-23T19:28:02Z</time>
      </trkpt>
      <trkpt lat="41.607645200" lon="2.542335200">
        <ele>143.90</ele>
        <time>2013-03-23T19:28:04Z</time>
      </trkpt>
      <trkpt lat="41.607702600" lon="2.542610900">
        <ele>140.00</ele>
        <time>2013-03-23T19:28:09Z</time>
      </trkpt>
      <trkpt lat="41.607662400" lon="2.542762400">
        <ele>136.60</ele>
        <time>2013-03-23T19:28:13Z</time>
      </trkpt>
      <trkpt lat="41.607636500" lon="2.542746400">
        <ele>135.70</ele>
        <time>2013-03-23T19:28:13Z</time>
      </trkpt>
      <trkpt lat="41.607462800" lon="2.542596500">
        <ele>132.30</ele>
        <time>2013-03-23T19:28:18Z</time>
      </trkpt>
      <trkpt lat="41.607321800" lon="2.542481800">
        <ele>128.50</ele>
        <time>2013-03-23T19:28:21Z</time>
      </trkpt>
      <trkpt lat="41.607203700" lon="2.542415300">
        <ele>124.60</ele>
        <time>2013-03-23T19:28:23Z</time>
      </trkpt>
      <trkpt lat="41.607136400" lon="2.542459500">
        <ele>122.70</ele>
        <time>2013-03-23T19:28:27Z</time>
      </trkpt>
      <trkpt lat="41.607114400" lon="2.542383200">
        <ele>121.70</ele>
        <time>2013-03-23T19:28:30Z</time>
      </trkpt>
      <trkpt lat="41.607150600" lon="2.542379900">
        <ele>121.70</ele>
        <time>2013-03-23T19:28:35Z</time>
      </trkpt>
      <trkpt lat="41.607150900" lon="2.542382700">
        <ele>121.70</ele>
        <time>2013-03-23T19:28:44Z</time>
      </trkpt>
      <trkpt lat="41.607142200" lon="2.542405000">
        <ele>121.70</ele>
        <time>2013-03-23T19:28:56Z</time>
      </trkpt>
      <trkpt lat="41.607131500" lon="2.542424200">
        <ele>121.70</ele>
        <time>2013-03-23T19:29:10Z</time>
      </trkpt>
      <trkpt lat="41.607120300" lon="2.542453200">
        <ele>121.70</ele>
        <time>2013-03-23T19:29:28Z</time>
      </trkpt>
      <trkpt lat="41.607119800" lon="2.542461100">
        <ele>121.70</ele>
        <time>2013-03-23T19:29:40Z</time>
      </trkpt>
    </trkseg>
  </trk>
</gpx>
